     2.10           OBSERVATION DATA    G (GPS)             RINEX VERSION / TYPE
teqc 2000Jul20 Karen Wendt 20040525 20:09:40UTC             PGM / RUN BY / DATE
Linux 2.0.36|Pentium II|gcc -static|Linux|486/DX+           COMMENT
teqc 2000Jul20 Karen Wendt 20040525 20:09:39UTC             COMMENT
BIT 2 OF LLI FLAGS DATA COLLECTED UNDER A/S CONDITION       COMMENT
v209 V209_1935_USC&GS                                       MARKER NAME
JLS USGS                                                    OBSERVER / AGENCY
ZE1200331018 ASHTECH UZ-12 ZE00                             REC # / TYPE / VERS
CR14341 ASH700936D_M NONE                                   ANT # / TYPE
 -2445229.0000 -4314207.0000  4000660.0000                  APPROX POSITION XYZ
        0.5279        0.0000        0.0000                  ANTENNA: DELTA H/E/N
     1     1                                                WAVELENGTH FACT L1/2
     5    C1    L1    L2    P1    P2                        # / TYPES OF OBSERV
    30.0000                                                 INTERVAL
                                                            COMMENT
National Earthquake Hazard Reduction Program                COMMENT
Crustal Strain Project                                      COMMENT
345 Middlefield Road, MS/977                                COMMENT
U.S. Geological Survey, Menlo Park, California 94025        COMMENT
Contact: kwendt@usgs.gov (Ph: 650-329-4866)                 COMMENT
Antenna height is vertical to base of antenna               COMMENT
                                                            COMMENT
SNR is mapped to RINEX snr flag value [1-9]                 COMMENT
L1: 1 -> 1; 90 -> 5; 210 -> 9                               COMMENT
L2: 1 -> 1; 150 -> 5; 250 -> 9                              COMMENT
  2004     5    18    16    27   30.0000000     GPS         TIME OF FIRST OBS
                                                            END OF HEADER
 04  5 18 16 27 30.0000000  0  8G21G18G17G 6G30G29G26G10
  21872380.125     7513433.78753   5877067.88552  21872381.683    21872378.719
  23707197.649    -2041847.65953  -1572955.56152  23707199.432    23707199.173
  22150442.951    -1583810.17753  -1248133.41252  22150443.944    22150442.746
  20330060.206    -1800596.16254  -1402181.93652  20330062.101    20330059.260
  21917553.897    -1500653.30153  -1186036.46752  21917555.940    21917554.332
  23557301.251    -1923823.10953  -1491743.16352  23557303.250    23557302.507
  23754175.489    -1991381.14453  -1542575.42452  23754178.343    23754178.899
  21925377.490    -1567982.02853  -1226384.27752  21925378.656    21925377.122
 04  5 18 16 28  0.0000000  0  9G21G18G17G 5G 6G30G29G26G10
  21861161.926     7454482.69243   5831131.97442  21861163.655    21861160.509
  23686826.696    -2148897.03243  -1656370.60442  23686828.416    23686828.010
  22162624.000    -1519796.69243  -1198252.80342  22162625.139    22162624.093
  24657054.504    -1457009.14253  -1146235.31652  24657056.572    24657059.505
  20327574.842    -1813655.89044  -1412358.36042  20327576.851    20327574.037
  21934303.290    -1412632.81343  -1117449.18042  21934305.556    21934304.127
  23545421.126    -1986252.56943  -1540389.44242  23545423.587    23545422.488
  23736973.245    -2081777.17943  -1613013.81142  23736975.958    23736976.753
  21939739.359    -1492509.11143  -1167574.24242  21939740.779    21939739.335
 04  5 18 16 28 30.0000000  0  9G21G18G17G 5G 6G30G29G26G10
  21849983.907     7395741.69543   5785359.79842  21849985.644    21849982.415
  23666483.934    -2255797.37443  -1739669.48542  23666485.814    23666485.543
  22174830.218    -1455652.12043  -1148270.06242  22174831.288    22174830.384
  24677905.563    -1347440.09843  -1060856.97242  24677907.153    24677910.095
  20325162.460    -1826332.86044  -1422236.53242  20325164.501    20325161.722
  21951114.514    -1324289.87543  -1048610.62442  21951116.749    21951115.279
  23533601.153    -2048365.83343  -1588789.33442  23533603.659    23533602.542
  23719807.454    -2171983.05543  -1683304.04742  23719810.191    23719811.108
  21954181.250    -1416616.81743  -1108437.43242  21954182.547    21954181.137
 04  5 18 16 29  0.0000000  0  9G21G18G17G 5G 6G30G29G26G10
  21838846.558     7337214.72043   5739754.37742  21838848.362    21838845.042
  23646170.997    -2362542.62743  -1822847.54242  23646172.857    23646172.554
  22187061.939    -1391373.64343  -1098182.97542  22187062.968    22187062.110
  24698749.468    -1237902.26343   -975502.90942  24698751.374    24698754.535
  20322823.846    -1838622.22644  -1431812.67442  20322825.916    20322823.128
  21967987.138    -1235623.46643   -979520.01242  21967989.444    21967987.941
  23521842.783    -2110156.32043  -1636937.69142  23521845.343    23521844.220
  23702679.551    -2261991.34343  -1753440.40042  23702682.168    23702682.905
  21968703.033    -1340304.31743  -1048973.18342  21968704.362    21968702.899
 04  5 18 16 29 30.0000000  0  9G21G18G17G 5G 6G30G29G26G10
  21827749.392     7278899.42843   5694313.90842  21827751.292    21827747.993
  23625887.400    -2469132.63243  -1905904.62142  23625889.394    23625889.163
  22199318.729    -1326964.36443  -1047993.96742  22199319.673    22199318.752
  24719587.377    -1128400.05343   -890176.60642  24719589.212    24719592.043
  20320558.815    -1850524.93444  -1441087.52742  20320560.871    20320558.119
  21984920.496    -1146638.80043   -910181.42442  21984922.782    21984921.207
  23510145.877    -2171623.31343  -1684834.01542  23510148.432    23510147.489
  23685589.138    -2351800.83643  -1823421.69642  23685591.665    23685593.083
  21983303.830    -1263576.55043   -989185.34742  21983305.204    21983303.672
 04  5 18 16 30  0.0000000  0  9G21G18G17G 5G 6G30G29G26G10
  21816693.399     7220799.66443   5649041.40042  21816695.314    21816692.116
  23605634.615    -2575562.03843  -1988836.57742  23605636.613    23605636.535
  22211600.800    -1262421.70343   -997701.02842  22211601.866    22211600.741
  24740418.869    -1018932.52543   -804877.33442  24740420.643    24740423.349
  20318368.257    -1862036.39044  -1450057.50842  20318370.321    20318367.557
  22001914.527    -1057335.46643   -840594.52642  22001916.831    22001915.073
  23498511.692    -2232760.76843  -1732473.51342  23498514.198    23498513.507
  23668538.172    -2441404.51143  -1893242.60142  23668540.621    23668542.320
  21997983.835    -1186433.01143   -929073.53342  21997985.181    21997983.592
 04  5 18 16 30 30.0000000  0  9G21G18G17G 5G 6G30G29G26G10
  21805677.361     7162910.49643   5603932.96842  21805679.390    21805676.239
  23585411.691    -2681833.61343  -2071645.54742  23585413.810    23585413.903
  22223907.127    -1197751.23443   -947308.48542  22223908.228    22223907.028
  24761242.243     -909507.03143   -719610.84242  24761243.810    24761246.559
  20316251.538    -1873159.96244  -1458725.24242  20316253.601    20316250.856
  22018967.659     -967720.93343   -770765.12142  22018970.019    22018968.257
  23486940.080    -2293570.47443  -1779857.64142  23486942.558    23486942.082
  23651526.110    -2530803.38443  -1962904.08842  23651528.658    23651529.912
  22012741.560    -1108881.06143   -868643.47842  22012742.922    22012741.332
 04  5 18 16 31  0.0000000  0  9G21G18G17G 5G 6G30G29G26G10
  21794702.387     7105237.09743   5558992.67742  21794704.410    21794701.315
  23565220.325    -2787940.18443  -2154325.92242  23565222.400    23565222.628
  22236238.550    -1132949.13643   -896813.38242  22236239.609    22236238.363
  24782058.153
  20314209.743    -1883889.92544  -1467086.26942  20314211.806    20314209.084
  22036080.264     -877793.53843   -700691.90942  22036082.665    22036080.887
  23475431.884    -2354045.10543  -1826980.65942  23475434.480    23475434.297
  23634554.613    -2619989.26543  -2032399.49542  23634557.196    23634558.534
  22027577.264    -1030918.61943   -807893.56742  22027578.679    22027577.254
 04  5 18 16 31 30.0000000  0  8G21G18G17G 6G30G29G26G10
  21783767.873     7047775.43243   5514217.38442  21783769.818    21783766.743
  23545060.154    -2893882.97943  -2236878.69242  23545062.281    23545062.327
  22248594.296    -1068019.77043   -846219.12542  22248595.341    22248594.024
  20312242.405    -1894228.31844  -1475142.17342  20312244.480    20312241.786
  22053251.252     -787559.64643   -630379.89442  22053253.649    22053251.949
  23463987.593    -2414185.37743  -1873843.18842  23463990.127    23463989.853
  23617623.657    -2708961.94543  -2101728.77742  23617626.201    23617627.680
  22042490.004     -952552.20443   -746828.85142  22042491.432    22042490.050
 04  5 18 16 32  0.0000000  0  8G21G18G17G 6G30G29G26G10
  21772875.700     6990537.15543   5469616.13242  21772877.709    21772874.483
  23524933.633    -2999648.72143  -2319293.50142  23524935.783    23524935.599
  22260976.134    -1002953.16443   -795517.92642  22260977.262    22260976.015
  20310351.935    -1904163.26644  -1482883.70842  20310353.995    20310351.253
  22070482.068     -697011.28043   -559822.82842  22070484.420    22070482.847
  23452609.597    -2473977.45243  -1920434.33742  23452612.043    23452611.640
  23600736.052    -2797707.21943  -2170880.80242  23600738.474    23600740.038
  22057481.100     -873773.60643   -685442.97542  22057482.505    22057481.208
 04  5 18 16 32 30.0000000  0  8G21G18G17G 6G30G29G26G10
  21762023.012     6933506.24443   5425176.48542  21762025.051    21762021.843
  23504837.824    -3105251.46943  -2401581.28742  23504840.140    23504839.873
  22273380.811     -937765.94443   -744722.72342  22273381.971    22273381.017
  20308535.287    -1913709.55044  -1490322.38442  20308537.418    20308534.695
  22087769.226     -606167.33743   -489035.43742  22087771.551    22087769.962
  23441295.134    -2533434.62943  -1966764.55642  23441297.677    23441297.080
  23583889.211    -2886237.25643  -2239865.18842  23583891.838    23583893.362
  22072547.018     -794601.49343   -623750.45842  22072548.476    22072547.172
 04  5 18 16 33  0.0000000  0  8G21G18G17G 6G30G29G26G10
  21751210.652     6876686.59943   5380901.45242  21751212.645    21751209.437
  23484774.482    -3210685.28443  -2483737.44242  23484776.658    23484776.468
  22285809.165     -872455.33243   -693831.38342  22285810.219    22285809.367
  20306793.704    -1922861.94744  -1497454.14242  20306795.814    20306793.053
  22105112.763     -515027.00543   -418017.10742  22105115.122    22105113.495
  23430045.848    -2592550.33343  -2012828.69942  23430048.329    23430047.564
  23567084.801    -2974544.67043  -2308676.09742  23567087.442    23567088.956
  22087688.171     -715034.90643   -561750.55242  22087689.562    22087688.188
 04  5 18 16 33 30.0000000  0  8G21G18G17G 6G30G29G26G10
  21740439.203     6820082.18743   5336794.12442  21740441.193    21740437.957
  23464744.394    -3315943.78943  -2565756.99142  23464746.542    23464746.292
  22298261.494     -807017.90543   -642841.21842  22298262.691    22298261.730
  20305128.010    -1931615.38944  -1504275.01842  20305130.131    20305127.385
  22122512.938     -423588.99043   -346766.82242  22122515.284    22122513.679
  23418862.667    -2651317.68843  -2058621.35942  23418865.250    23418864.331
  23550324.011    -3062621.77243  -2377307.46342  23550326.554    23550328.460
  22102904.440     -635072.51343   -499442.22842  22102905.913    22102904.560
 04  5 18 16 34  0.0000000  0  8G21G18G17G 6G30G29G26G10
  21729708.342     6763691.39943   5292853.27042  21729710.358    21729707.180
  23444747.752    -3421026.44643  -2647639.52042  23444749.903    23444749.450
  22310737.462     -741456.17243   -591754.19342  22310738.714    22310737.660
  20303538.099    -1939970.46644  -1510785.48342  20303540.244    20303537.499
  22139968.774     -331857.96743   -275288.20442  22139971.159    22139969.665
  23407746.170    -2709735.60643  -2104141.78342  23407748.675    23407747.596
  23533607.744    -3150466.67243  -2445757.90542  23533610.252    23533611.967
  22118195.181     -554719.15943   -436829.27342  22118196.635    22118195.347
 04  5 18 16 34 30.0000000  0  8G21G18G17G 6G30G29G26G10
  21719018.061     6707513.70343   5249078.45442  21719020.117    21719016.900
  23424784.734    -3525932.20243  -2729384.20342  23424786.892    23424786.311
  22323236.792     -675771.93243   -540571.71942  22323238.046    22323236.949
  20302024.054    -1947926.86144  -1516985.29142  20302026.224    20302023.473
  22157479.734     -239837.91443   -203584.37542  22157482.081    22157480.552
  23396696.202    -2767802.41343  -2149388.58342  23396698.678    23396697.920
  23516935.883    -3238076.84743  -2514025.43742  23516938.506    23516940.039
  22133559.848     -473978.25243   -373914.31342  22133561.163    22133559.777
 04  5 18 16 35  0.0000000  0  8G21G18G17G 6G30G29G26G10
  21708367.962     6651547.00543   5205468.05842  21708370.037    21708366.775
  23404855.634    -3630659.89743  -2810990.15942  23404857.798    23404857.045
  22335759.152     -609967.31443   -489295.45242  22335760.293    22335759.184
  20300585.842    -1955484.69044  -1522874.52642  20300588.018    20300585.299
  22175044.836     -147533.09943   -131658.65542  22175047.178    22175045.655
  23385713.330    -2825516.82143  -2194360.78942  23385715.885    23385715.082
  23500309.520    -3325449.97843  -2582108.31542  23500312.038    23500312.995
  22148997.347     -392853.96843   -310700.62342  22148998.673    22148997.240
 04  5 18 16 35 30.0000000  0  8G21G18G17G 6G30G29G26G10
  21697758.466     6595793.68343   5162023.92842  21697760.541    21697757.235
  23384961.067    -3735206.05543  -2892454.62542  23384963.164    23384962.503
  22348304.416     -544041.36443   -437924.62242  22348305.558    22348304.511
  20299223.983    -1962641.14744  -1528451.00142  20299226.153    20299223.485
  22192663.899      -54944.63643    -59511.91842  22192666.241    22192664.738
  23374798.663    -2882874.23943  -2239054.83542  23374801.123    23374800.236
  23483728.910    -3412580.57743  -2650002.20842  23483731.481    23483732.356
  22164507.629     -311347.27743   -247188.95942  22164508.963    22164507.511
 04  5 18 16 36  0.0000000  0  8G21G18G17G 6G30G29G26G10
  21687189.968     6540255.92743   5118747.76942  21687192.059    21687188.736
  23365102.055    -3839566.29443  -2973774.24742  23365104.140    23365103.415
  22360872.897     -477993.43843   -386458.75542  22360874.030    22360873.056
  20297939.114    -1969393.24044  -1533712.38942  20297941.238    20297938.605
  22210336.856       37926.20343     12854.86142  22210339.133    22210337.655
  23363952.632    -2939870.40343  -2283467.36042  23363955.085    23363954.055
  23467195.693    -3499463.45143  -2717703.04642  23467198.301    23467198.984
  22180090.337     -229459.47143   -183380.32342  22180091.720    22180090.312
 04  5 18 16 36 30.0000000  0  8G21G18G17G 6G30G29G26G10
  21676661.945     6484931.06343   5075637.51742  21676664.045    21676660.774
  23345278.276    -3943741.20243  -3054949.42642  23345280.399    23345279.793
  22373464.154     -411826.44943   -334900.09842  22373465.280    22373464.119
  20296730.892    -1975742.45844  -1538659.84742  20296733.044    20296730.419
  22228062.281      131074.00643     85437.45842  22228064.647    22228063.208
  23353175.561    -2996504.69443  -2327597.98142  23353178.061    23353176.700
  23450709.913    -3586097.51743  -2785209.97042  23450712.456    23450713.013
  22195744.643     -147195.60243   -119278.65142  22195745.998    22195744.718
 04  5 18 16 37  0.0000000  0  8G21G18G17G 6G30G29G26G10
  21666174.805     6429820.90243   5032694.54742  21666176.913    21666173.654
  23325490.417    -4047726.34143  -3135976.73742  23325492.612    23325492.150
  22386078.002     -345539.46343   -283247.95542  22386079.250    22386078.229
  20295599.976    -1981685.65044  -1543290.92342  20295602.124    20295599.550
  22245840.236      224497.71943    158235.04442  22245842.659    22245841.237
  23342468.140    -3052772.88543  -2371443.26842  23342470.719    23342469.294
  23434272.208    -3672477.23243  -2852518.74342  23434274.822    23434275.105
  22211470.247      -64556.73543    -54884.77242  22211471.680    22211470.424
 04  5 18 16 37 30.0000000  0  8G21G18G17G 6G30G29G26G10
  21655728.071     6374922.81543   4989916.83542  21655730.150    21655726.961
  23305738.532    -4151522.72043  -3216856.97642  23305740.699    23305740.407
  22398714.473     -279135.66743   -231504.78842  22398715.551    22398714.634
  20294546.041    -1987224.30444  -1547606.77742  20294548.180    20294545.608
  22263669.790      318191.89643    231243.38942  22263672.164    22263670.782
  23331830.334    -3108674.75243  -2415003.10442  23331833.013    23331831.712
  23417883.237    -3758601.56343  -2919628.51142  23417885.849    23417885.969
  22227266.484       18451.81943      9797.17642  22227267.913    22227266.541
 04  5 18 16 38  0.0000000  0  8G21G18G17G 6G30G29G26G10
  21645322.336     6320240.19443   4947307.02442  21645324.436    21645321.188
  23286023.809    -4255124.64343  -3297585.69342  23286025.940    23286025.721
  22411373.300     -212612.69643   -179668.75042  22411374.495    22411373.634
  20293569.849    -1992354.16044  -1551604.08442  20293571.977    20293569.432
  22281550.770      412156.69243    304462.59342  22281553.112    22281551.726
  23321263.056    -3164204.52543  -2458272.99342  23321265.846    23321264.794
  23401544.030    -3844463.65143  -2986533.95542  23401546.787    23401546.963
  22243132.912      101830.17343     74767.29142  22243134.412    22243132.853
 04  5 18 16 38 30.0000000  0  8G21G18G17G 6G30G29G26G10
  21634957.294     6265771.23343   4904863.68342  21634959.361    21634955.965
  23266346.030    -4358531.95543  -3378162.74942  23266348.113    23266347.857
  22424054.362     -145973.31243   -127742.00142  22424055.593    22424054.727
  20292671.400    -1997076.02544  -1555283.48442  20292673.494    20292670.874
  22299482.306      506387.08043    377888.77142  22299484.671    22299483.268
  23310767.306    -3219361.43943  -2501252.38342  23310769.915    23310768.662
  23385255.142    -3930062.10743  -3053233.91742  23385257.844    23385258.173
  22259068.847      185573.88143    140022.09642  22259070.384    22259068.815
 04  5 18 16 39  0.0000000  0  8G21G18G17G 6G30G29G26G10
  21624633.904     6211521.72343   4862591.36042  21624635.979    21624632.656
  23246706.829    -4461737.00643  -3458582.24142  23246708.818    23246708.385
  22436758.681      -79212.58743    -75720.70342  22436759.834    22436758.870
  20291851.768    -2001383.26344  -1558639.78442  20291853.895    20291851.171
  22317464.826      600885.71943    451523.97442  22317467.276    22317465.855
  23300343.752    -3274137.24043  -2543934.77842  23300346.235    23300345.163
  23369018.151    -4015387.42443  -3119721.04242  23369020.929    23369021.311
  22275074.601      269685.61143    205563.65342  22275076.182    22275074.820
 04  5 18 16 39 30.0000000  0  8G21G18G17G 6G30G29G26G10
  21614351.021     6157484.83143   4820484.71242  21614353.092    21614349.826
  23227105.034    -4564744.10243  -3538847.42042  23227107.136    23227106.836
  22449484.454      -12338.01643    -23610.69442  22449485.625    22449484.726
  20291110.002    -2005281.46444  -1561677.36342  20291112.136    20291109.408
  22335496.733      695643.23043    525360.89342  22335499.135    22335497.666
  23289991.879    -3328536.07043  -2586323.45642  23289994.338    23289993.315
  23352832.586    -4100442.94243  -3185998.01542  23352835.447    23352835.610
  22291148.733      354155.75143    271384.50742  22291150.287    22291148.926
 04  5 18 16 40  0.0000000  0  8G21G18G17G 6G30G29G26G10
  21604108.244     6103658.84043   4778542.40242  21604110.334    21604107.069
  23207541.208    -4667552.83843  -3618958.05242  23207543.293    23207542.982
  22462231.671       54647.96943     28586.13242  22462232.806    22462231.764
  20290445.924    -2008771.20244  -1564396.65342  20290448.077    20290445.381
  22353576.854      790654.54943    599395.56942  22353579.263    22353577.856
  23279712.089    -3382557.04043  -2628417.68042  23279714.397    23279713.314
  23336698.665    -4185226.63843  -3252063.09542  23336701.630    23336701.859
  22307290.406      438979.91743    337481.22142  22307291.905    22307290.472
 04  5 18 16 40 30.0000000  0  8G21G18G17G 6G30G29G26G10
  21593907.155     6050051.89243   4736770.77942  21593909.211    21593905.979
  23188016.954    -4770153.44043  -3698906.52842  23188019.032    23188018.652
  22475001.251      121752.32743     80875.19842  22475002.449    22475001.356
  20289861.241    -2011843.80444  -1566790.90442  20289863.400    20289860.704
  22371706.260      885924.69543    673631.94342  22371708.705    22371707.423
  23269505.988    -3436189.76143  -2670209.36042  23269508.264    23269507.233
  23320618.697    -4269727.27943  -3317907.64442  23320621.520    23320621.669
  22323500.232      524163.03343    403857.63142  22323501.765    22323500.316
 04  5 18 16 41  0.0000000  0  8G21G18G17G 6G30G29G26G10
  21583747.089     5996660.50343   4695167.10242  21583749.142    21583745.887
  23168532.017    -4872546.95643  -3778693.60142  23168534.124    23168533.664
  22487792.389      188970.89843    133253.23742  22487793.659    22487792.673
  20289355.452    -2014501.63544  -1568861.96242  20289357.635    20289354.969
  22389883.739      981447.11643    748064.88142  22389886.121    22389884.928
  23259373.701    -3489435.11943  -2711699.26742  23259375.910    23259374.779
  23304592.574    -4353944.72143  -3383531.48242  23304595.430    23304595.624
  22339777.114      609698.58643    470508.67642  22339778.654    22339777.226
 04  5 18 16 41 30.0000000  0  8G21G18G17G 6G30G29G26G10
  21573627.587     5943482.51543   4653729.72842  21573629.663    21573626.471
  23149086.403    -4974733.86043  -3858319.69942  23149088.571    23149087.854
  22500604.739      256300.67243    185717.96742  22500605.951    22500605.140
  20288928.461    -2016745.69744  -1570610.60242  20288930.593    20288927.909
  22408108.156     1077216.61943    822690.35042  22408110.557    22408109.351
  23249315.336    -3542292.61543  -2752886.84942  23249317.728    23249316.391
  23288620.636    -4437877.53543  -3448933.63642  23288623.432    23288622.593
  22356120.115      695581.77343    537430.58542  22356121.617    22356120.286
 04  5 18 16 42  0.0000000  0  8G21G18G17G 6G30G29G26G10
  21563549.497     5890521.59244   4612461.47942  21563551.502    21563548.268
  23129681.219    -5076708.29443  -3937780.24942  23129683.420    23129682.685
  22513438.945      323744.71343    238271.72742  22513440.159    22513439.377
  20288581.044    -2018571.49844  -1572033.32642  20288583.180    20288580.440
  22426379.629     1173233.93143    897508.91042  22426382.037    22426380.980
  23239331.655    -3594756.27543  -2793767.60542  23239334.298    23239332.708
  23272704.334    -4521518.56843  -3514108.31642  23272707.159    23272706.220
  22372529.368      781813.25643    604623.92042  22372530.855    22372529.523
 04  5 18 16 42 30.0000000  0  8G21G18G17G 6G30G29G26G10
  21553511.720     5837772.84143   4571358.56942  21553513.768    21553510.499
  23110315.867    -5178473.51143  -4017077.76242  23110318.029    23110317.300
  22526293.799      391296.73743    290909.62742  22526295.005    22526294.097
  20288312.386    -2019983.34444  -1573133.48042  20288314.505    20288311.755
  22444696.594     1269490.56343    972513.96642  22444698.986    22444698.097
  23229422.524    -3646828.96543  -2834343.69542  23229424.879    23229423.635
  23256842.999    -4604869.61843  -3579057.10342  23256845.540    23256845.224
  22389003.502      868384.77843    672082.20442  22389004.924    22389003.534
 04  5 18 16 43  0.0000000  0  8G21G18G17G 6G30G29G26G10
  21543515.293     5785241.12743   4530424.78642  21543517.321    21543514.080
  23090991.786    -5280021.71043  -4096206.17842  23090993.885    23090993.153
  22539170.019      458961.90043    343635.67342  22539171.284    22539170.400
  20288123.748    -2020974.49744  -1573905.82842  20288125.872    20288123.202
  22463059.748     1365989.35443   1047707.70342  22463062.110    22463061.314
  23219589.552    -3698502.36443  -2874608.66242  23219591.734    23219590.591
  23241038.850    -4687921.43643  -3643772.68642  23241041.525    23241041.050
  22405542.885      955299.46043    739807.89242  22405544.284    22405542.835
 04  5 18 16 43 30.0000000  0  8G21G18G17G 6G30G29G26G10
  21533559.936     5732925.46844   4489659.36342  21533561.955    21533558.790
  23071709.246    -5381352.02643  -4175164.80942  23071711.376    23071710.368
  22552067.260      526737.90443    396448.10042  22552068.598    22552067.787
  20288015.125    -2021545.44344  -1574350.73642  20288017.206    20288014.617
  22481468.334     1462725.87343   1123086.69242  22481470.693    22481469.808
  23209832.551    -3749775.25943  -2914561.54942  23209834.928    23209833.818
  23225291.636    -4770671.86343  -3708253.41442  23225294.506    23225294.039
  22422146.663     1042552.95043    807797.57842  22422148.130    22422146.670
 04  5 18 16 44  0.0000000  0  8G21G18G17G 6G30G29G26G10
  21523645.241     5680823.33943   4449060.30642  21523647.260    21523644.069
  23052468.082    -5482465.24343  -4253954.29542  23052470.221    23052468.798
  22564985.269      594621.55643    449344.40142  22564986.477    22564985.549
  20287986.098    -2021697.90244  -1574469.55642  20287988.197    20287985.646
  22499920.987     1559694.22243   1198646.31242  22499923.404    22499922.441
  23200151.743    -3800647.79643  -2954202.45642  23200154.076    23200153.278
  23209601.822    -4853120.19343  -3772498.74042  23209604.702    23209604.649
  22438813.932     1130139.42943    876046.74042  22438815.358    22438813.848
 04  5 18 16 44 30.0000000  0  8G21G18G17G 6G30G29G26G10
  21513771.816     5628938.30944   4408630.42642  21513773.846    21513770.686
  23033269.236    -5583355.75043  -4332570.21942  23033271.418    23033269.874
  22577924.001      662615.34643    502326.52442  22577925.289    22577924.227
  20288037.596    -2021427.26844  -1574258.68742  20288039.689    20288037.190
  22518417.773     1656895.04543   1274387.10342  22518420.174    22518419.241
  23190548.134    -3851114.43043  -2993527.06342  23190550.521    23190549.861
  23193971.397    -4935259.34143  -3836503.20042  23193974.232    23193974.060
  22455544.492     1218059.86943    944556.13742  22455546.021    22455544.599
 04  5 18 16 45  0.0000000  0  8G21G18G17G 6G30G29G26G10
  21503939.192     5577267.65243   4368367.60842  21503941.201    21503938.126
  23014112.592    -5684024.04443  -4411012.99142  23014114.826    23014113.479
  22590883.229      730716.19643    555392.07942  22590884.537    22590883.509
  20288169.314    -2020735.34644  -1573719.54842  20288171.420    20288168.872
  22536957.576     1754322.65943   1350304.60542  22536960.029    22536959.226
  23181022.000    -3901175.01543  -3032535.29942  23181024.297    23181023.620
  23178399.796    -5017088.22643  -3900265.84642  23178402.566    23178402.616
  22472337.687     1306308.54643   1013321.29342  22472339.238    22472337.749
 04  5 18 16 45 30.0000000  0  8G21G18G17G 6G30G29G26G10
  21494147.904     5525814.33043   4328274.12042  21494149.898    21494146.826
  22994999.223    -5784465.56543  -4489279.07242  22995001.448    22995000.216
  22603863.265      798925.79243    608542.36842  22603864.517    22603863.576
  20288381.803    -2019618.73044  -1572849.47842  20288383.911    20288381.348
  22555540.622     1851976.62343   1426398.46542  22555542.951    22555542.282
  23171573.879    -3950824.64343  -3071223.27342  23171576.088    23171575.620
  23162888.337    -5098600.94243  -3963782.16242  23162891.164    23162891.314
  22489193.317     1394885.00043   1082341.87642  22489194.908    22489193.214
 04  5 18 16 46  0.0000000  0  8G21G18G17G 6G30G29G26G10
  21484397.879     5474577.82543   4288349.59842  21484399.870    21484396.795
  22975929.341    -5884678.50343  -4567367.01642  22975931.569    22975930.319
  22616863.599      867243.19143    661776.66342  22616864.895    22616864.091
  20288675.263    -2018076.65644  -1571647.87942  20288677.388    20288674.783
  22574166.141     1949853.54043   1502666.06542  22574168.495    22574167.735
  23162204.393    -4000061.19443  -3109589.39442  23162206.759    23162206.156
  23147437.733    -5179794.11843  -4027049.49042  23147440.606    23147440.845
  22506110.685     1483786.24543   1151615.52342  22506112.316    22506110.568
 04  5 18 16 46 30.0000000  0  8G21G18G17G 6G30G29G26G10
  21474688.078     5423552.09843   4248589.31042  21474690.006    21474686.874
  22956902.383    -5984666.48343  -4645279.65942  22956904.502    22956903.335
  22629883.337      935661.82443    715089.83642  22629884.635    22629883.750
  20289048.725    -2016114.12544  -1570118.65342  20289050.850    20289048.251
  22592832.479     2047944.62543   1579100.54042  22592834.772    22592833.983
  23152912.962    -4048888.07243  -3147636.30642  23152915.314    23152914.555
  23132047.565    -5260670.27943  -4090069.77542  23132050.353    23132050.752
  22523088.328     1573003.70043   1221135.57942  22523089.874    22523088.061
 04  5 18 16 47  0.0000000  0  8G21G18G17G 6G30G29G26G10
  21465020.287     5372747.97443   4209001.70342  21465022.257    21465019.184
  22937920.323    -6084417.46243  -4723007.63542  22937922.526    22937921.298
  22642924.197     1004191.40743    768489.46142  22642925.448    22642924.481
  20289504.376    -2013719.82744  -1568252.98942  20289506.505    20289503.886
  22611540.732     2146257.03243   1655707.48842  22611543.077    22611542.342
  23143701.813    -4097292.59243  -3185354.07342  23143704.250    23143703.471
  23116720.299    -5341215.40343  -4152832.14342  23116723.110    23116723.439
  22540127.322     1662544.49643   1290907.57742  22540128.913    22540127.193
 04  5 18 16 47 30.0000000  0  8G21G18G17G 6G30G29G26G10
  21455393.185     5322157.42144   4169580.51442  21455395.157    21455392.105
  22918982.325    -6183937.04143  -4800555.29842  22918984.468    22918983.323
  22655984.382     1072823.25243    821968.78942  22655985.663    22655984.685
  20290040.864    -2010900.86844  -1566056.41542  20290042.970    20290040.361
  22630288.987     2244779.98243   1732478.50242  22630291.367    22630290.744
  23134570.302    -4145280.28343  -3222747.05742  23134572.751    23134571.615
  23101455.182    -5421434.15343  -4215340.21442  23101457.956    23101458.059
  22557225.855     1752398.03343   1360923.26742  22557227.502    22557225.878
 04  5 18 16 48  0.0000000  0  8G21G18G17G 6G30G29G26G10
  21445807.328     5271782.91544   4130327.65742  21445809.280    21445806.130
  22900089.293    -6283220.50443  -4877918.97642  22900091.420    22900090.311
  22669064.393     1141559.33743    875529.32042  22669065.676    22669064.764
  20290658.854    -2007653.59844  -1563526.09442  20290660.971    20290658.391
  22649077.362     2343513.08043   1809413.26642  22649079.696    22649079.119
  23125518.889    -4192846.00643  -3259811.22642  23125521.317    23125520.338
  23086253.346    -5501320.13043  -4277588.93642  23086256.064    23086256.213
  22574383.898     1842564.18643   1431182.56442  22574385.525    22574384.039
 04  5 18 16 48 30.0000000  0  8G21G18G17G 6G30G29G26G10
  21436262.645     5221625.20643   4091243.75742  21436264.606    21436261.450
  22881241.718    -6382265.28543  -4955096.67342  22881243.851    22881242.750
  22682164.192     1210399.65943    929171.07242  22682165.505    22682164.706
  20291358.530    -2003976.68244  -1560660.98742  20291360.645    20291358.067
  22667905.223     2442454.01243   1886509.95742  22667907.568    22667907.050
  23116548.224    -4239986.87243  -3296544.32642  23116550.634    23116549.566
  23071115.682    -5580869.07943  -4339575.05842  23071118.351    23071118.306
  22591601.161     1933040.72943   1501683.71242  22591602.603    22591601.272
 04  5 18 16 49  0.0000000  0  8G21G18G17G 6G30G29G26G10
  21426759.203     5171684.43244   4052328.87642  21426761.212    21426757.975
  22862439.701    -6481069.03643  -5032086.53742  22862441.960    22862441.071
  22695284.054     1279343.91043    982893.82342  22695285.215    22695284.531
  20292140.206    -1999868.87744  -1557460.12642  20292142.338    20292139.774
  22686772.182     2541599.82043   1963766.27942  22686774.473    22686773.996
  23107658.796    -4286700.28743  -3332944.35742  23107661.240    23107660.240
  23056042.754    -5660077.51343  -4401295.83942  23056045.456    23056045.201
  22608876.682     2023824.88243   1572424.56842  22608878.153    22608877.025
 04  5 18 16 49 30.0000000  0  8G21G18G17G 6G30G29G26G10
  21417296.655     5121958.69243   4013581.56942  21417298.665    21417295.448
  22843683.738    -6579631.57143  -5108888.44642  22843685.965    22843685.131
  22708423.039     1348389.61243   1036695.62742  22708424.224    22708423.708
  20293003.785    -1995331.10944  -1553924.22542  20293005.908    20293003.299
  22705677.261     2640945.96443   2041178.71342  22705679.507    22705678.972
  23098851.092    -4332985.56743  -3369010.78842  23098853.499    23098852.486
  23041035.105    -5738943.57843  -4462749.86542  23041037.727    23041037.213
  22626210.149     2114912.39143   1643401.80042  22626211.545    22626210.527
 04  5 18 16 50  0.0000000  0  8G21G18G17G 6G30G29G26G10
  21407875.567     5072450.37744   3975003.67742  21407877.561    21407874.242
  22824974.486    -6677949.71243  -5185499.92642  22824976.645    22824975.777
  22721581.388     1417537.51043   1090577.07242  22721582.580    22721582.145
  20293949.574    -1990361.10744  -1550051.52242  20293951.705    20293949.046
  22724620.083     2740490.58143   2118745.81742  22724622.384    22724621.708
  23090125.452    -4378839.08243  -3404740.76342  23090127.941    23090126.957
  23026093.354    -5817462.59943  -4523933.48142  23026095.991    23026095.339
  22643601.046     2206301.59743   1714614.11442  22643602.382    22643601.385
 04  5 18 16 50 30.0000000  0  8G21G18G17G 6G30G29G26G10
  21398495.165     5023156.22244   3936592.65942  21398497.215    21398493.842
  22806311.592    -6776023.52843  -5261921.00242  22806313.878    22806312.880
  22734758.782     1486784.46843   1144535.68142  22734759.908    22734759.286
  20294977.243    -1984960.59144  -1545843.34942  20294979.378    20294976.784
  22743599.741     2840228.30343   2196463.38542  22743601.951    22743601.214
  23081481.893    -4424261.13743  -3440134.52342  23081484.460    23081483.341
  23011217.807    -5895633.42843  -4584845.73842  23011220.480    23011219.991
  22661048.297     2297987.36043   1786057.51342  22661049.709    22661048.730
 04  5 18 16 51  0.0000000  0  8G21G18G17G 6G30G29G26G10
  21389156.537     4974081.68643   3898352.77742  21389158.555    21389155.218
  22787696.520    -6873846.08343  -5338146.30542  22787698.823    22787697.819
  22747955.701     1556134.82043   1198574.87842  22747956.896    22747956.165
  20296088.025    -1979123.60144  -1541295.07342  20296090.142    20296087.542
  22762616.285     2940161.07943   2274332.94142  22762618.613    22762618.084
  23072921.749    -4469244.03243  -3475186.07742  23072924.358    23072923.249
  22996410.305    -5973447.39743  -4645479.96242  22996413.066    22996412.615
  22678552.565     2389971.80743   1857733.65142  22678553.924    22678552.871
 04  5 18 16 51 30.0000000  0  8G21G18G17G 6G30G29G26G10
  21379858.622     4925220.69244   3860279.29142  21379860.613    21379857.348
  22769128.567    -6971420.90343  -5414178.55742  22769130.883    22769129.982
  22761171.158     1625582.14143   1252689.61942  22761172.284    22761171.524
  20297280.823    -1972855.09644  -1536410.54142  20297282.955    20297280.461
  22781668.578     3040280.19643   2352347.67842  22781670.809    22781670.370
  23064444.760    -4513791.76243  -3509898.58442  23064447.201    23064445.994
  22981670.103    -6050907.10243  -4705838.11042  22981672.829    22981672.374
  22696111.752     2482246.08143   1929635.62942  22696113.220    22696112.047
 04  5 18 16 52  0.0000000  0  8G21G18G17G 6G30G29G26G10
  21370602.190     4876577.83644   3822375.77942  21370604.198    21370600.807
  22750608.799    -7068742.37543  -5490013.40442  22750611.105    22750610.375
  22774405.558     1695129.89443   1306882.63142  22774406.838    22774406.086
  20298556.753    -1966150.33444  -1531186.06942  20298558.865    20298556.325
  22800756.301     3140586.65143   2430508.40842  22800758.600    22800758.226
  23056051.533    -4557897.73243  -3544266.81242  23056053.977    23056052.944
  22966998.923    -6128004.78543  -4765914.17942  22967001.664    22967001.150
  22713726.491     2574811.43643   2001764.43042  22713727.936    22713726.672
 04  5 18 16 52 30.0000000  0  8G21G18G17G 6G30G29G26G10
  21361387.162     4828152.25944   3784641.58242  21361389.142    21361385.697
  22732137.726    -7165808.86243  -5565649.55742  22732139.953    22732139.328
  22787659.247     1764777.15043   1361153.16042  22787660.537    22787659.601
  20299915.757    -1959009.02044  -1525621.43442  20299917.871    20299915.278
  22819879.174     3241076.74443   2508812.23442  22819881.410    22819881.007
  23047742.650    -4601560.39343  -3578289.60342  23047745.137    23047744.192
  22952397.002    -6204737.74043  -4825706.03342  22952399.763    22952399.360
  22731395.967     2667664.42543   2074117.36742  22731397.383    22731396.082
 04  5 18 16 53  0.0000000  0  8G21G18G17G 6G30G29G26G10
  21352213.337     4779943.59844   3747076.39842  21352215.385    21352211.962
  22713715.232    -7262619.07243  -5641086.02642  22713717.536    22713717.022
  22800931.546     1834522.65043   1415500.25442  22800932.890    22800931.778
  20301357.857    -1951430.67244  -1519716.25142  20301359.980    20301357.400
  22839036.209     3341747.23243   2587256.62142  22839038.549    22839038.200
  23039518.701    -4644777.83143  -3611965.48642  23039521.171    23039520.194
  22937865.156    -6281102.64943  -4885211.12742  22937867.847    22937867.489
  22749119.364     2760801.81343   2146691.89142  22749120.763    22749119.656
 04  5 18 16 53 30.0000000  0  8G21G18G17G 6G30G29G26G10
  21343081.211     4731954.38244   3709682.22442  21343083.272    21343079.938
  22695342.401    -7359168.41343  -5716319.21042  22695344.634    22695344.149
  22814222.615     1904368.16743   1469925.27942  22814224.016    22814223.114
  20302883.759    -1943412.34444  -1513468.22542  20302885.861    20302883.227
  22858227.350     3442597.29543   2665840.97042  22858229.725    22858229.410
  23031380.460    -4687545.50743  -3645290.91542  23031382.902    23031381.726
  22923404.517    -6357093.95143  -4944425.09442  22923407.127    22923405.981
  22766896.567     2854223.11943   2219487.67842  22766898.167    22766897.145
 04  5 18 16 54  0.0000000  0  8G21G18G17G 6G30G29G26G10
  21333990.102     4684179.97044   3672455.41642  21333992.122    21333988.750
  22677018.669    -7455459.60543  -5791351.24442  22677020.829    22677020.367
  22827531.687     1974308.23643   1524423.98242  22827533.068    22827532.296
  20304492.551    -1934958.14544  -1506880.55542  20304494.648    20304492.055
  22877451.247     3543619.24143   2744559.22442  22877453.606    22877453.375
  23023327.144    -4729866.13443  -3678267.94942  23023329.658    23023328.359
  22909014.650    -6432713.19943  -5003349.12442  22909017.190    22909016.529
  22784726.840     2947920.95243   2292498.91642  22784728.235    22784727.263
 04  5 18 16 54 30.0000000  0  8G21G18G17G 6G30G29G26G10
  21324939.960     4636621.27644   3635396.70542  21324942.015    21324938.591
  22658744.884    -7551489.61543  -5866179.73642  22658746.989    22658746.405
  22840859.016     2044343.37143   1578996.76642  22840860.267    22840859.432
  20306184.685    -1926065.97044  -1499951.60742  20306186.779    20306184.210
  22896707.408     3644811.10343   2823409.87042  22896709.745    22896709.719
  23015359.392    -4771736.39843  -3710894.10442  23015362.050    23015360.654
  22894696.502    -6507955.53443  -5061979.46242  22894699.070    22894698.357
  22802609.429     3041893.42343   2365724.17042  22802610.764    22802609.790
 04  5 18 16 55  0.0000000  0  8G21G18G17G 6G30G29G26G10
  21315931.663     4589282.28744   3598509.19342  21315933.674    21315930.287
  22640521.732    -7647252.53343  -5940800.10842  22640523.928    22640523.251
  22854205.004     2114476.97343   1633646.27542  22854206.381    22854205.435
  20307960.948    -1916731.44244  -1492677.96842  20307963.058    20307960.532
  22915996.220     3746173.64543   2902393.53542  22915998.451    22915998.628
  23007478.465    -4813150.28643  -3743164.62342  23007481.107    23007479.731
  22880451.447    -6582813.91543  -5120310.59442  22880454.045    22880453.221
  22820544.255     3136141.60043   2439164.25442  22820545.650    22820544.664
 04  5 18 16 55 30.0000000  0  8G21G18G17G 6G30G29G26G10
  21306964.070     4542157.23944   3561788.38842  21306966.070    21306962.692
  22622348.633    -7742752.34143  -6015215.46442  22622350.869    22622350.061
  22867568.701     2184702.42643   1688367.36042  22867569.914    22867568.931
  20309820.509    -1906959.65344  -1485063.61142  20309822.589    20309820.033
  22935315.911     3847698.20843   2981503.44042  22935318.118    22935318.295
  22999683.773    -4854111.45743  -3775082.34842  22999686.304    22999684.992
  22866278.973    -6657290.55243  -5178344.30342  22866281.649    22866280.652
  22838529.840     3230656.78143   2512812.40442  22838531.340    22838530.418
 04  5 18 16 56  0.0000000  0  8G21G18G17G 6G30G29G26G10
  21298038.581     4495253.80344   3525240.27142  21298040.580    21298037.287
  22604227.520    -7837979.40943  -6089418.29042  22604229.764    22604228.802
  22880951.024     2255025.92643   1743164.59042  22880952.331    22880951.838
  20311764.966    -1896742.00644  -1477101.82942  20311767.000    20311764.388
  22954667.225     3949389.37143   3060743.17042  22954669.445    22954669.619
  22991977.107    -4894610.03943  -3806639.64042  22991979.570    22991978.232
  22852181.038    -6731374.60643  -5236072.07342  22852183.808    22852182.508
  22856567.261     3325444.08443   2586672.57942  22856568.220    22856568.079
 04  5 18 16 56 30.0000000  0  8G21G18G17G 6G30G29G26G10
  21289154.092     4448565.24244   3488859.58142  21289156.016    21289152.708
  22586157.278    -7932938.83243  -6163412.57042  22586159.541    22586158.545
  22894350.731     2325442.23843   1798034.40642  22894352.068    22894351.224
  20313792.900    -1886084.88644  -1468797.60142  20313794.982    20313792.407
  22974048.367     4051237.36243   3140105.08242  22974050.585    22974050.837
  22984357.652    -4934650.80643  -3837840.19342  22984360.044    22984358.561
  22838157.426    -6805069.20443  -5293496.38542  22838160.160    22838159.101
  22874654.727     3420493.70343   2660737.17442  22874656.075    22874655.244
 04  5 18 16 57  0.0000000  0  8G21G18G17G 6G30G29G26G10
  21280311.280     4402096.21444   3452649.95942  21280313.182    21280309.923
  22568139.189    -8027623.76443  -6237192.96942  22568141.459    22568140.567
  22907768.948     2395954.34643   1852978.84742  22907770.146    22907769.378
  20315905.574    -1874982.65144  -1460146.52542  20315907.632    20315905.113
  22993459.706     4153243.96043   3219590.60742  22993461.954    22993462.265
  22976826.438    -4974226.93643  -3868678.67642  22976828.906    22976827.434
  22824209.329    -6878366.39643  -5350611.03042  22824212.026    22824211.144
  22892792.227     3515807.33243   2735007.48042  22892793.688    22892792.625
 04  5 18 16 57 30.0000000  0  8G21G18G17G 6G30G29G26G10
  21271509.362     4355841.66144   3416607.46342  21271511.239    21271507.957
  22550172.804    -8122037.30543  -6310761.89742  22550175.055    22550174.213
  22921204.136     2466556.62643   1907993.54942  22921205.242    22921204.648
  20318102.072    -1863440.05144  -1451152.30242  20318104.130    20318101.645
  23012899.659     4255400.78243   3299193.17042  23012901.824    23012902.080
  22969383.227    -5013341.73343  -3899157.69542  22969385.720    22969384.024
  22810336.587    -6951268.04943  -5407417.46542  22810339.205    22810338.685
  22910978.581     3611376.90743   2809477.21342  22910980.003    22910978.924
 04  5 18 16 58  0.0000000  0  9G21G18G17G 6G30G29G26G10G16
  21262748.739     4309804.56443   3380734.40842  21262750.634    21262747.447
  22532259.026    -8216174.64243  -6384115.60142  22532261.268    22532260.391
  22934656.837     2537251.21643   1963080.20642  22934657.917    22934657.565
  20320383.066    -1851453.58744  -1441812.21842  20320385.124    20320382.626
  23032368.128     4357707.65543   3378912.65042  23032370.293    23032370.421
  22962028.437    -5051990.20943  -3929273.32342  22962031.070    22962029.438
  22796540.319    -7023768.02043  -5463910.93542  22796542.931    22796542.353
  22929213.739     3707202.66643   2884146.58942  22929215.064    22929214.042
  24173597.169
 04  5 18 16 58 30.0000000  0  9G21G18G17G 6G30G29G26G10G16
  21254029.722     4263985.70144   3345031.41042  21254031.594    21254028.387
  22514398.464    -8310033.03943  -6457251.94342  22514400.626    22514399.589
  22948127.174     2608038.21443   2018238.82542  22948128.251    22948127.917
  20322748.734    -1839021.94344  -1432125.24142  20322750.820    20322748.337
  23051864.589     4460162.12043   3458747.17342  23051866.859    23051866.851
  22954763.077    -5090169.72143  -3959023.58142  22954765.672    22954764.146
  22782821.162    -7095862.20243  -5520088.15142  22782823.655    22782823.429
  22947497.042     3803282.42743   2959013.87842  22947498.384    22947497.403
  24160372.820     -789329.98453   -604439.62352  24160371.735    24160372.603
 04  5 18 16 59  0.0000000  0  9G21G18G17G 6G30G29G26G10G16
  21245352.131     4218385.12244   3309498.50942  21245354.033    21245350.886
  22496591.052    -8403610.98043  -6530169.75842  22496593.278    22496592.088
  22961614.995     2678917.56543   2073469.46442  22961616.181    22961615.834
  20325199.320    -1826143.99244  -1422090.49042  20325201.405    20325198.963
  23071388.784     4562761.94743   3538694.94942  23071391.078    23071391.161
  22947587.552    -5127877.56043  -3988406.24742  22947590.066    22947588.623
  22769180.049    -7167546.78343  -5575946.22042  22769182.562    22769182.279
  22965828.437     3899613.98743   3034077.36642  22965829.669    22965828.695
  24147229.525     -858396.25343   -658257.40542  24147229.844    24147229.464
 04  5 18 16 59 30.0000000  0  9G21G18G17G 6G30G29G26G10G16
  21236716.853     4173006.02344   3274138.18442  21236718.723    21236715.508
  22478838.224    -8496903.10943  -6602864.85542  22478840.385    22478839.043
  22975120.994     2749891.34743   2128773.64542  22975122.110    22975121.668
  20327735.496    -1812816.57144  -1411705.50642  20327737.575    20327735.062
  23090940.578     4665506.60543   3618755.58842  23090942.851    23090942.925
  22940502.464    -5165109.44043  -4017418.06542  22940505.000    22940503.685
  22755618.088    -7238815.84443  -5631480.51842  22755620.614    22755620.066
  22984207.593     3996196.99043   3109336.80242  22984208.915    22984207.948
  24134166.462     -927036.58743   -711743.33642  24134167.777    24134167.852
 04  5 18 17  0  0.0000000  0  9G21G18G17G 6G30G29G26G10G16
  21228121.949     4127839.35244   3238943.37742  21228123.846    21228120.509
  22461138.173    -8589917.05243  -6675343.18242  22461140.389    22461139.016
  22988643.003     2820949.92343   2184143.89742  22988644.245    22988643.587
  20330355.510    -1799048.11644  -1400976.84942  20330357.595    20330355.137
  23110517.511     4768383.90343   3698919.59042  23110519.880    23110519.963
  22933506.747    -5201872.28143  -4046064.40742  22933509.337    22933507.936
  22742133.950    -7309675.22443  -5686695.55942  22742136.515    22742135.955
  23002632.304     4093019.33643   3184782.72542  23002633.608    23002632.718
  24121184.388     -995257.85243   -764902.69642  24121185.947    24121185.334
 04  5 18 17  0 30.0000000  0  9G21G18G17G 6G30G29G26G10G16
  21219569.278     4082894.82544   3203921.68042  21219571.211    21219567.925
  22443493.385    -8682640.88143  -6747595.45742  22443495.595    22443494.249
  23002182.996     2892102.62443   2239587.50842  23002184.214    23002183.510
  20333061.484    -1784828.21544  -1389896.42242  20333063.550    20333061.099
  23130121.150     4871400.69043   3779192.26842  23130123.434    23130123.619
  22926602.471    -5238154.44943  -4074336.18942  22926605.159    22926603.621
  22728730.275    -7380111.82843  -5741581.16542  22728732.964    22728732.243
  23021104.176     4190088.18243   3260420.72742  23021105.395    23021104.461
  24108284.356    -1063049.16053   -817727.33452  24108285.732    24108284.707
 04  5 18 17  1  0.0000000  0  9G21G18G17G 6G30G29G26G10G16
  21211057.975     4038167.91444   3169069.55542  21211059.906    21211056.718
  22425903.238    -8775077.81143  -6819624.16842  22425905.441    22425903.959
  23015739.889     2963343.92543   2295100.13742  23015741.003    23015740.269
  20335852.555    -1770160.92644  -1378467.38242  20335854.647    20335852.220
  23149749.751     4974549.47943   3859567.82442  23149752.080    23149752.340
  22919789.126    -5273958.65843  -4102235.53542  22919791.772    22919790.106
  22715406.823    -7450126.84543  -5796138.24542  22715409.572    22715408.870
  23039621.325     4287396.31643   3336245.19542  23039622.635    23039621.633
  24095466.019    -1130411.39543   -870217.28942  24095467.612    24095466.384
 04  5 18 17  1 30.0000000  0  9G21G18G17G 6G30G29G26G10G16
  21202588.108     3993658.23044   3134386.69442  21202590.012    21202586.785
  22408367.647    -8867227.10743  -6891428.76542  22408369.899    22408368.350
  23029313.267     3034672.74243   2350680.97542  23029314.361    23029313.560
  20338728.700    -1755046.92644  -1366690.26142  20338730.762    20338728.329
  23169402.697     5077826.09443   3940042.96942  23169404.995    23169405.512
  22913066.843    -5309283.88843  -4129761.65142  22913069.559    22913067.897
  22702163.888    -7519718.31043  -5850365.29942  22702166.788    22702165.930
  23058183.260     4384939.71943   3412252.98442  23058184.605    23058183.621
  24082729.159    -1197344.24443   -922372.72542  24082730.810    24082729.642
 04  5 18 17  2  0.0000000  0  9G21G18G17G 6G30G29G26G10G16
  21194160.115     3949368.91844   3099875.55042  21194162.017    21194158.736
  22390888.235    -8959081.70343  -6963003.70442  22390890.449    22390888.900
  23042903.981     3106093.17743   2406333.18842  23042905.228    23042904.557
  20341690.940    -1739480.65644  -1354560.71642  20341692.985    20341690.473
  23189080.465     5181232.21843   4020619.01842  23189082.618    23189083.269
  22906437.051    -5344123.67543  -4156909.50542  22906439.694    22906438.103
  22689003.113    -7588878.00643  -5904255.89242  22689005.915    22689005.233
  23076790.213     4482720.30043   3488445.58142  23076791.592    23076790.745
  24070075.282    -1263841.02143   -974188.41842  24070076.968    24070075.611
 04  5 18 17  2 30.0000000  0  9G21G18G17G 6G30G29G26G10G16
  21185773.727     3905298.57144   3065535.02642  21185775.679    21185772.412
  22373464.764    -9050642.31743  -7034349.58242  22373467.004    22373465.399
  23056511.894     3177602.11443   2462054.39242  23056513.036    23056512.383
  20344738.755    -1723464.11644  -1342080.31742  20344740.853    20344738.321
  23208781.415     5284762.52343   4101291.85842  23208783.742    23208784.501
  22899899.508    -5378478.46843  -4183679.43942  22899902.087    22899900.439
  22675924.817    -7657605.04643  -5957809.37342  22675927.609    22675926.860
  23095441.431     4580733.12243   3564819.16542  23095442.772    23095442.102
  24057504.210    -1329902.01243  -1025664.45642  24057506.007    24057504.667
 04  5 18 17  3  0.0000000  0  9G21G18G17G 6G30G29G26G10G16
  21177428.834     3861445.76444   3031364.01542  21177430.754    21177427.566
  22356097.354    -9141909.12843  -7105466.51842  22356099.554    22356097.944
  23070135.893     3249196.95343   2517842.51142  23070137.146    23070136.737
  20347872.000    -1706999.06044  -1329250.41842  20347874.073    20347871.536
  23228505.423     5388411.92143   4182057.50942  23228507.683    23228508.212
  22893454.262    -5412348.43443  -4210071.59742  22893456.746    22893455.250
  22662928.953    -7725898.47743  -6011024.97542  22662931.656    22662930.984
  23114135.932     4678973.11443   3641369.76342  23114137.124    23114136.572
  24045015.978    -1395527.44543  -1076801.08842  24045017.987    24045016.709
 04  5 18 17  3 30.0000000  0  9G21G18G17G 6G30G29G26G10G16
  21169125.763     3817812.68244   2997364.22542  21169127.682    21169124.479
  22338786.539    -9232877.39543  -7176350.82742  22338788.790    22338787.285
  23083776.992     3320880.37543   2573699.65142  23083778.067    23083777.739
  20351091.231    -1690081.68544  -1316068.07042  20351093.325    20351090.850
  23248251.938     5492180.38443   4262915.89842  23248254.178    23248254.841
  22887102.121    -5445728.85543  -4236082.28442  22887104.594    22887103.216
  22650016.811    -7793751.91243  -6063897.70542  22650019.457    22650018.788
  23132873.495     4777440.47743   3718097.50342  23132874.843    23132874.399
  24032611.809    -1460712.13943  -1127594.33642  24032613.633    24032612.396
 04  5 18 17  4  0.0000000  0  9G21G18G17G 6G30G29G26G10G16
  21160863.818     3774396.17244   2963533.18742  21160865.793    21160862.531
  22321532.249    -9323548.92443  -7247003.90642  22321534.467    22321533.060
  23097434.003     3392647.96743   2629622.37342  23097435.206    23097434.796
  20354395.926    -1672715.44844  -1302535.95142  20354398.010    20354395.551
  23268020.034     5596061.22243   4343861.86942  23268022.185    23268022.961
  22880842.828    -5478621.70143  -4261713.05042  22880845.285    22880844.005
  22637188.227    -7861165.89143  -6116427.99642  22637190.940    22637190.212
  23151653.386     4876128.72443   3794997.37142  23151654.697    23151654.084
  24020291.103    -1525457.89443  -1178045.50542  24020292.951    24020291.869
 04  5 18 17  4 30.0000000  0  9G21G18G17G 6G30G29G26G10G16
  21152643.734     3731199.42044   2929873.39842  21152645.703    21152642.443
  22304335.458    -9413918.30943  -7317421.53942  22304337.697    22304336.381
  23111107.576     3464502.92943   2685613.17642  23111108.852    23111108.361
  20357786.830    -1654896.23944  -1288650.87542  20357788.929    20357786.477
  23287809.480     5700055.14843   4424895.94842  23287811.804    23287812.435
  22874677.484    -5511021.41543  -4286959.55242  22874679.871    22874678.683
  22624444.531    -7928133.59343  -6168610.55942  22624447.170    22624446.461
  23170475.333     4975038.85943   3872070.14642  23170476.709    23170476.131
  24008055.001    -1589759.19043  -1228150.37242  24008056.983    24008055.642
 04  5 18 17  5  0.0000000  0  9G21G18G17G 6G30G29G26G10G16
  21144465.625     3688222.85044   2896385.16442  21144467.575    21144464.245
  22287196.518    -9503983.63943  -7387602.25142  22287198.782    22287197.515
  23124797.581     3536444.80443   2741671.71242  23124798.828    23124798.400
  20361264.069    -1636623.41044  -1274412.33042  20361266.156    20361263.699
  23307620.102     5804159.14043   4506015.79542  23307622.363    23307622.833
  22868606.287    -5542926.07643  -4311820.30442  22868608.664    22868607.460
  22611786.512    -7994651.73043  -6220442.80742  22611789.080    22611788.489
  23189338.962     5074168.21743   3949313.76042  23189340.357    23189339.849
  23995903.866    -1653613.86443  -1277907.21242  23995905.918    23995904.371
 04  5 18 17  5 30.0000000  0  9G21G18G17G 6G30G29G26G10G16
  21136328.978     3645464.50144   2863066.98142  21136330.925    21136327.568
  22270115.349    -9593745.18643  -7457546.23342  22270117.604    22270116.274
  23138503.871     3608471.45643   2797796.29442  23138504.989    23138504.749
  20364827.338    -1617898.47244  -1259821.49542  20364829.412    20364826.931
  23327450.625     5908368.48843   4587217.74742  23327452.852    23327453.426
  22862629.142    -5574336.07243  -4336295.59142  22862631.567    22862630.383
  22599214.492    -8060718.98243  -6271923.71242  22599216.999    22599216.295
  23208243.556     5173512.11543   4026724.52442  23208244.846    23208244.457
  23983837.787    -1717021.82943  -1327316.04042  23983839.927    23983838.215
 04  5 18 17  6  0.0000000  0  9G21G18G17G 6G30G29G26G10G16
  21128234.100     3602925.58644   2829919.78342  21128236.051    21128232.714
  22253092.672    -9683199.86743  -7527251.11942  22253094.883    22253093.408
  23152226.299     3680583.37043   2853987.35142  23152227.441    23152227.361
  20368476.960    -1598719.75744  -1244877.06642  20368479.026    20368476.565
  23347300.665     6012681.34543   4668500.35742  23347302.975    23347303.585
  22856746.722    -5605248.23043  -4360382.97342  22856749.146    22856747.957
  22586728.722    -8126330.96243  -6323049.85642  22586731.324    22586730.907
  23227188.746     5273069.01743   4104301.25242  23227189.923    23227189.551
  23971857.239    -1779979.76343  -1376374.19442  23971859.470    23971857.729
 04  5 18 17  6 30.0000000  0  9G21G18G17G 6G30G29G26G10G16
  21120180.813     3560605.70844   2796943.27342  21120182.776    21120179.519
  22236128.546    -9772346.64143  -7596716.06842  22236130.752    22236129.315
  23165964.756     3752779.44243   2910243.96242  23165965.851    23165965.784
  20372212.834    -1579087.53944  -1229579.25842  20372214.903    20372212.479
  23367169.890     6117093.95843   4749860.69542  23367172.137    23367172.739
  22850959.014    -5635661.65943  -4384081.73742  22850961.470    22850960.339
  22574330.166    -8191485.42743  -6373819.51642  22574332.809    22574332.418
  23246173.511     5372835.20843   4182041.09142  23246174.887    23246174.507
  23959962.681    -1842486.91843  -1425081.01842  23959964.808    23959963.131
 04  5 18 17  7  0.0000000  0  9G21G18G17G 6G30G29G26G10G16
  21112169.176     3518503.90944   2764136.68242  21112171.097    21112167.774
  22219223.243    -9861184.47043  -7665940.28042  22219225.440    22219224.066
  23179719.058     3825058.07743   2966564.91642  23179720.156    23179719.809
  20376034.846    -1559002.64944  -1213928.72342  20376036.909    20376034.526
  23387057.342     6221602.34143   4831295.66842  23387059.545    23387060.284
  22845266.656    -5665575.77143  -4407391.42142  22845268.970    22845267.654
  22562019.173    -8256180.26943  -6424231.04442  22562021.834    22562021.317
  23265197.966     5472807.29743   4259941.35142  23265199.148    23265198.585
  23948153.685    -1904542.25443  -1473435.81242  23948155.908    23948154.136
 04  5 18 17  7 30.0000000  0  9G21G18G17G 6G30G29G26G10G16
  21104199.771     3476624.46344   2731503.35542  21104201.733    21104198.376
  22202377.928    -9949707.15443  -7734918.93542  22202380.080    22202378.784
  23193489.919     3897423.50043   3022953.48142  23193490.997    23193490.443
  20379944.042    -1538459.98744  -1197921.48042  20379946.078    20379943.666
  23406963.172     6326208.22443   4912806.63142  23406965.538    23406966.144
  22839670.441    -5694984.20443  -4430307.06042  22839672.788    22839671.394
  22549796.927    -8320407.61343  -6474278.25442  22549799.566    22549799.243
  23284261.670     5572987.05543   4338003.42242  23284262.957    23284262.261
  23936432.282    -1966139.15543  -1521433.34942  23936434.372    23936432.808
 04  5 18 17  8  0.0000000  0  9G21G18G17G 6G30G29G26G10G16
  21096271.834     3434963.00144   2699039.88142  21096273.830    21096270.449
  22185591.954   -10037917.75443  -7803654.41242  22185594.085    22185592.845
  23207276.170     3969870.37643   3079405.50042  23207277.216    23207276.872
  20383939.453    -1517463.88844  -1181560.91242  20383941.501    20383939.103
  23426886.434     6430903.71643   4994387.37742  23426888.649    23426889.242
  22834169.891    -5723889.97943  -4452831.03642  22834172.317    22834170.543
  22537663.777    -8384168.98643  -6523962.41142  22537666.356    22537665.831
  23303363.377     5673366.78643   4416221.34142  23303364.858    23303363.868
  23924797.218    -2027280.53343  -1569075.93142  23924799.296    23924798.037
 04  5 18 17  8 30.0000000  0  9G21G18G17G 6G30G29G26G10G16
  21088385.546     3393520.37644   2666746.93742  21088387.573    21088384.168
  22168865.853   -10125813.65943  -7872144.66442  22168867.950    22168866.777
  23221077.927     4042399.44043   3135921.61142  23221079.047    23221078.946
  20388021.454    -1496013.06644  -1164846.00942  20388023.482    20388021.053
  23446826.250     6535687.09443   5076036.62742  23446828.518    23446829.029
  22828765.513    -5752290.48943  -4474961.28942  22828768.000    22828766.087
  22525619.670    -8447460.61143  -6573280.51142  22525622.381    22525621.744
  23322502.826     5773944.96743   4494593.87742  23322504.379    23322503.324
  23913249.722    -2087963.60843  -1616361.41142  23913251.730    23913250.164
 04  5 18 17  9  0.0000000  0  9G21G18G17G 6G30G29G26G10G16
  21080541.558     3352299.87044   2634627.07242  21080543.554    21080540.175
  22152200.534   -10213390.27843  -7940386.12642  22152202.638    22152201.446
  23234895.993     4115012.80443   3192503.39242  23234897.199    23234896.956
  20392190.646    -1474104.20444  -1147774.19442  20392192.659    20392190.234
  23466782.645     6640558.07343   5157754.11542  23466784.953    23466785.512
  22823457.940    -5780181.26843  -4496694.35142  22823460.412    22823458.722
  22513666.107    -8510276.27343  -6622227.71942  22513668.902    22513668.172
  23341679.974     5874721.58943   4573121.06942  23341681.652    23341680.602
  23901790.192    -2148183.61543  -1663286.08442  23901792.193    23901790.760
 04  5 18 17  9 30.0000000  0  9G21G18G17G 6G30G29G26G10G16
  21072739.249     3311298.25344   2602677.77442  21072741.248    21072737.822
  22135595.665   -10300649.16343  -8008380.01242  22135597.797    22135596.615
  23248729.150     4187706.81943   3249148.01642  23248730.487    23248730.257
  20396446.295    -1451740.53644  -1130347.98242  20396448.381    20396445.922
  23486754.349     6745510.32043   5239534.97742  23486756.776    23486757.214
  22818247.089    -5807564.39843  -4518031.84542  22818249.482    22818248.015
  22501803.260    -8572616.34943  -6670804.34842  22501805.968    22501805.056
  23360894.001     5975690.81143   4651798.31442  23360895.455    23360894.518
  23890418.557    -2207942.03043  -1709851.04542  23890420.631    23890419.135
 04  5 18 17 10  0.0000000  0  9G21G18G17G 6G30G29G26G10G16
  21064979.008     3270518.07844   2570901.01742  21064981.025    21064977.517
  22119052.089   -10387585.70043  -8076122.70842  22119054.243    22119053.097
  23262578.256     4260483.83643   3305857.31642  23262579.583    23262579.471
  20400789.178    -1428918.78344  -1112564.82142  20400791.252    20400788.780
  23506741.383     6850543.77943   5321379.09442  23506743.731    23506744.561
  22813133.690    -5834435.12443  -4538970.05642  22813136.105    22813134.731
  22490031.814    -8634475.20743  -6719006.01042  22490034.578    22490033.464
  23380144.755     6076852.74143   4730625.69542  23380146.199    23380145.173
  23879135.718    -2267234.31143  -1756052.80742  23879137.589    23879135.856
 04  5 18 17 10 30.0000000  0  9G21G18G17G 6G30G29G26G10G16
  21057260.149     3229955.00544   2539293.44042  21057262.133    21057258.570
  22102569.527   -10474202.30543  -8143616.10742  22102571.635    22102570.398
  23276442.023     4333339.48743   3362627.88042  23276443.465    23276443.621
  20405218.449    -1405642.67544  -1094427.61842  20405220.562    20405218.064
  23526742.881     6955651.60843   5403281.17542  23526745.068    23526746.080
  22808117.336    -5860795.94843  -4559510.95942  22808119.721    22808118.586
  22478351.876    -8695853.44643  -6766833.15942  22478354.487    22478353.441
  23399430.645     6178200.70343   4809598.07042  23399432.186    23399431.078
  23867940.918    -2326062.37443  -1801892.80042  23867942.911    23867941.466
 04  5 18 17 11  0.0000000  0  9G21G18G17G 6G30G29G26G10G16
  21049583.665     3189615.11744   2507859.76842  21049585.686    21049582.148
  22086149.132   -10560491.77043  -8210854.58642  22086151.283    22086149.999
  23290322.240     4406278.79043   3419463.62842  23290323.413    23290323.427
  20409735.329    -1381906.45044  -1075931.87942  20409737.433    20409734.941
  23546759.116     7060836.21243   5485243.09142  23546761.349    23546762.198
  22803199.340    -5886639.97243  -4579649.13842  22803201.710    22803200.589
  22466765.065    -8756742.81043  -6814279.36442  22466767.614    22466766.547
  23418752.173     6279737.28743   4888717.42342  23418753.796    23418753.024
  23856835.885    -2384419.21643  -1847365.64142  23856837.831    23856836.595
 04  5 18 17 11 30.0000000  0  9G21G18G17G 6G30G29G26G10G16
  21041948.883     3149494.22744   2476596.74742  21041950.870    21041947.357
  22069790.443   -10646456.69043  -8277840.18042  22069792.598    22069791.273
  23304217.247     4479296.86943   3476360.74842  23304218.452    23304218.065
  20414338.961    -1357714.25844  -1057080.84542  20414341.041    20414338.574
  23566788.463     7166090.26543   5567259.08542  23566790.661    23566791.667
  22798379.178    -5911970.11343  -4599386.89542  22798381.514    22798380.361
  22455270.899    -8817144.64143  -6861345.69142  22455273.502    22455272.532
  23438108.365     6381455.31143   4967978.15842  23438109.838    23438109.511
  23845820.036    -2442307.36643  -1892473.25542  23845821.920    23845820.914
 04  5 18 17 12  0.0000000  0  9G21G18G17G 6G30G29G26G10G16
  21034355.769     3109592.08344   2445504.17642  21034357.724    21034354.267
  22053494.029   -10732095.32043  -8344571.51442  22053496.113    22053494.616
  23318126.939     4552393.15043   3533318.81242  23318128.215    23318127.918
  20419029.391    -1333065.97244  -1037874.40942  20419031.462    20419029.053
  23586830.436     7271410.69743   5649326.83542  23586832.728    23586833.575
  22793657.194    -5936784.91543  -4618723.07742  22793659.409    22793658.096
  22443870.237    -8877055.99943  -6908029.82542  22443872.779    22443871.820
  23457498.639     6483352.18843   5047378.28342  23457500.008    23457500.009
  23834893.835    -2499725.29343  -1937214.46442  23834895.739    23834894.607
 04  5 18 17 12 30.0000000  0  9G21G18G17G 6G30G29G26G10G16
  21026805.255     3069913.62244   2414585.89242  21026807.177    21026803.744
  22037260.663   -10817401.46443  -8411043.77242  22037262.823    22037261.354
  23332052.399     4625572.09143   3590341.29842  23332053.676    23332053.652
  20423807.653    -1307956.59044  -1018308.67742  20423809.686    20423807.248
  23606885.508     7376799.45143   5731447.80042  23606887.770    23606888.406
  22789034.365    -5961078.13043  -4637652.82742  22789036.674    22789035.101
  22432564.294    -8936469.23043  -6954325.78842  22432566.919    22432565.832
  23476923.458     6585430.23843   5126919.55842  23476924.680    23476924.930
  23824058.293    -2556666.32743  -1981584.09342  23824060.187    23824058.809
 04  5 18 17 13  0.0000000  0  9G21G18G17G 6G30G29G26G10G16
  21019296.481     3030454.75644   2383838.73342  21019298.379    21019294.962
  22021090.165   -10902377.63943  -8477258.91042  22021092.315    22021090.892
  23345992.831     4698829.25343   3647424.73442  23345993.997    23345994.126
  20428672.889    -1282389.69644   -998386.45042  20428674.944    20428672.479
  23626951.940     7482249.72243   5813616.72042  23626954.243    23626954.928
  22784510.188    -5984852.24443  -4656178.10542  22784512.618    22784510.868
  22421352.787    -8995385.26543  -7000234.33642  22421355.476    22421354.411
  23496381.789     6687682.69643   5206596.72442  23496382.831    23496382.989
  23813313.125    -2613132.69143  -2025583.83542  23813315.038    23813313.596
 04  5 18 17 13 30.0000000  0  9G21G18G17G 6G30G29G26G10G16
  21011829.742     2991216.42044   2353263.40642  21011831.665    21011828.100
  22004982.976   -10987021.34543  -8543214.99142  22004985.129    22004983.678
  23359948.120     4772164.85743   3704569.27042  23359949.168    23359949.480
  20433625.270    -1256364.57744   -978107.15842  20433627.353    20433624.927
  23647029.669     7587758.99643   5895831.61642  23647031.930    23647032.686
  22780085.055    -6008105.36343  -4674297.40742  22780087.543    22780085.951
  22410236.701    -9053800.55943  -7045752.69342  22410239.347    22410238.369
  23515872.657     6790107.60943   5286408.26142  23515873.809    23515873.779
  23802658.669    -2669122.14943  -2069211.93342  23802660.610    23802658.946
 04  5 18 17 14  0.0000000  0  9G21G18G17G 6G30G29G26G10G16
  21004405.185     2952200.45444   2322861.35942  21004407.161    21004403.618
  21988939.637   -11071329.47043  -8608909.57342  21988941.763    21988940.327
  23373918.813     4845580.18243   3761775.95542  23373919.755    23373919.955
  20438665.212    -1229879.39244   -957469.37142  20438667.347    20438664.912
  23667118.471     7693326.23543   5978091.65842  23667120.738    23667121.605
  22775760.079    -6030834.33543  -4692008.26842  22775762.388    22775760.917
  22399216.670    -9111710.48443  -7090877.27142  22399219.418    22399218.450
  23535396.034     6892703.73343   5366353.24542  23535397.433    23535397.033
  23792095.555    -2724631.44743  -2112465.92242  23792097.475    23792095.725
 04  5 18 17 14 30.0000000  0  9G21G18G17G 6G30G29G26G10G16
  20997022.723     2913405.53844   2292631.55742  20997024.675    20997021.189
  21972960.238   -11155301.66943  -8674342.39042  21972962.322    21972960.860
  23387904.184     4919073.60343   3819043.46342  23387905.139    23387905.372
  20443792.536    -1202935.18844   -936473.90842  20443794.662    20443792.215
  23687217.488     7798947.07343   6060393.48842  23687219.780    23687220.846
  22771534.703    -6053039.02843  -4709310.61242  22771537.017    22771535.508
  22388293.135    -9169113.49343  -7135606.85142  22388295.874    22388294.895
  23554951.319     6995467.36843   5446428.75642  23554952.873    23554952.280
  23781623.969    -2779659.95443  -2155345.29442  23781625.931    23781624.392
 04  5 18 17 15  0.0000000  0  9G21G18G17G 6G30G29G26G10G16
  20989681.973     2874829.50044   2262572.31242  20989683.895    20989680.481
  21957044.647   -11238937.88143  -8739513.41042  21957046.773    21957045.365
  23401903.912     4992642.29543   3876369.64542  23401904.876    23401905.110
  20449006.928    -1175533.92144   -915122.29842  20449009.004    20449006.513
  23707326.003     7904616.60643   6142733.23942  23707328.254    23707329.410
  22767408.915    -6074720.21243  -4726205.03242  22767411.275    22767409.722
  22377466.310    -9226008.87543  -7179940.86142  22377468.985    22377468.102
  23574537.491     7098393.60643   5526630.92442  23574539.068    23574538.512
  23771243.865    -2834207.98243  -2197850.23442  23771245.783    23771244.169
 04  5 18 17 15 30.0000000  0  9G21G18G17G 6G30G29G26G10G16
  20982383.885     2836477.91544   2232687.96342  20982385.796    20982382.407
  21941194.404   -11322231.69943  -8804417.61842  21941196.468    21941195.044
  23415918.778     5066291.65143   3933758.68142  23415919.875    23415920.188
  20454309.235    -1147670.04044   -893410.20942  20454311.330    20454308.857
  23727444.089     8010337.29243   6225112.88742  23727446.377    23727447.800
  22763384.004    -6095871.33843  -4742686.40642  22763386.419    22763384.871
  22366737.649    -9282388.22243  -7223872.77342  22366740.304    22366739.412
  23594155.210     7201485.33643   5606962.07142  23594156.693    23594156.250
  23760956.387    -2888268.68943  -2239975.43342  23760958.304    23760956.795
 04  5 18 17 16  0.0000000  0  9G21G18G17G 6G30G29G26G10G16
  20975127.403     2798344.94644   2202973.97342  20975129.320    20975125.962
  21925408.477   -11405187.15543  -8869058.18342  21925410.606    21925409.108
  23429948.173     5140015.31343   3991205.62042  23429949.196    23429949.241
  20459698.563    -1119349.43444   -871342.23642  20459700.615    20459698.108
  23747570.360     8116100.39443   6307525.57242  23747572.559    23747574.036
  22759459.032    -6116496.66843  -4758758.07842  22759461.539    22759459.988
  22356106.665    -9338254.65143  -7267405.00642  22356109.227    22356108.350
  23613802.695     7304733.89343   5687415.42642  23613804.196    23613803.875
  23750760.912    -2941846.37243  -2281724.24542  23750762.810    23750761.340
 04  5 18 17 16 30.0000000  0  9G21G18G17G 6G30G29G26G10G16
  20967913.457     2760435.32744   2173434.00842  20967915.371    20967911.922
  21909688.055   -11487798.23243  -8933430.39042  21909690.169    21909688.654
  23443992.013     5213817.14843   4048713.46142  23443993.210    23443993.295
  20465175.565    -1090567.40844   -848914.71142  20465177.673    20465175.187
  23767704.510     8221907.27643   6389972.36442  23767706.889    23767708.393
  22755635.322    -6136590.86343  -4774415.87042  22755637.705    22755636.104
  22345574.472    -9393601.15343  -7310532.07942  22345577.088    22345576.260
  23633480.634     7408141.03643   5767992.35942  23633481.995    23633481.702
  23740658.465    -2994935.01643  -2323091.99442  23740660.293    23740658.878
 04  5 18 17 17  0.0000000  0  9G21G18G17G 6G30G29G26G10G16
  20960741.754     2722747.95444   2144067.23742  20960743.636    20960740.354
  21894033.318   -11570064.87243  -8997534.19942  21894035.384    21894033.736
  23458050.927     5287695.46843   4106280.92142  23458051.983    23458051.878
  20470740.166    -1061325.17744   -826128.58242  20470742.265    20470739.824
  23787846.244     8327753.78943   6472450.03642  23787848.718    23787850.231
  22751912.556    -6156153.66543  -4789659.59442  22751914.995    22751913.368
  22335141.670    -9448425.86643  -7353252.60342  22335144.222    22335143.369
  23653187.837     7511703.13443   5848690.02442  23653189.146    23653189.108
  23730649.136    -3047534.18243  -2364078.34542  23730650.957    23730649.596
 04  5 18 17 17 30.0000000  0  9G21G18G17G 6G30G29G26G10G16
  20953612.109     2685281.24544   2114872.40842  20953613.957    20953610.688
  21878444.090   -11651986.47143  -9061369.14942  21878446.238    21878444.459
  23472123.731     5361648.73743   4163906.76042  23472124.829    23472124.605
  20476392.147    -1031624.06744   -802984.88842  20476394.245    20476391.769
  23807995.134     8433635.85743   6554955.40042  23807997.414    23807998.842
  22748290.983    -6175185.27343  -4804489.40242  22748293.314    22748291.791
  22324808.251    -9502727.37043  -7395565.39042  22324810.841    22324810.112
  23672923.792     7615416.17543   5929505.33642  23672925.140    23672925.169
  23720732.935    -3099643.64443  -2404683.07942  23720734.903    23720733.619
 04  5 18 17 18  0.0000000  0  9G21G18G17G 6G30G29G26G10G16
  20946525.288     2648039.75444   2085853.07042  20946527.124    20946523.794
  21862921.663   -11733557.26143  -9124930.74542  21862923.818    21862921.891
  23486211.770     5435680.98043   4221594.11642  23486212.658    23486212.525
  20482132.261    -1001459.51644   -779480.07042  20482134.373    20482131.942
  23828150.918     8539554.99843   6637489.64442  23828153.319    23828154.680
  22744771.455    -6193680.26843  -4818901.07642  22744773.838    22744772.329
  22314576.010    -9556498.65443  -7437465.04542  22314578.526    22314577.724
  23692688.961     7719282.21043   6010439.82642  23692690.291    23692690.268
  23710911.185    -3151257.48143  -2444901.67342  23710913.168    23710911.779
 04  5 18 17 18 30.0000000  0  9G21G18G17G 6G30G29G26G10G16
  20939479.907     2611016.15144   2057003.51242  20939481.767    20939478.390
  21847464.838   -11814783.51843  -9188223.87642  21847466.985    21847464.914
  23500313.251     5509783.99843   4279336.65242  23500314.306    23500313.971
  20487959.153     -970839.07844   -755620.01542  20487961.237    20487958.860
  23848312.049     8645500.70643   6720044.59442  23848314.443    23848315.714
  22741352.917    -6211644.82643  -4832899.40942  22741355.274    22741353.745
  22304443.756    -9609744.41843  -7478955.20742  22304446.260    22304445.354
  23712481.441     7823290.73243   6091485.34042  23712482.583    23712482.578
  23701182.496    -3202381.71543  -2484738.70242  23701184.500    23701182.971
 04  5 18 17 19  0.0000000  0  9G21G18G17G 6G30G29G26G10G16
  20932477.180     2574217.05444   2028328.90842  20932479.084    20932475.731
  21832075.093   -11895657.03343  -9251242.13842  21832077.237    21832075.230
  23514429.220     5583964.14343   4337139.27742  23514430.359    23514430.217
  20493874.017     -939756.22444   -731399.64042  20493876.090    20493873.754
  23868478.666     8751476.60543   6802623.08042  23868480.996    23868482.538
  22738036.769    -6229071.08843  -4846478.29242  22738039.144    22738037.548
  22294413.046    -9662455.43643  -7520028.66242  22294415.659    22294414.666
  23732301.394     7927445.76743   6172645.03642  23732302.835    23732302.731
  23691548.394    -3253008.30943  -2524187.97142  23691550.335    23691548.996
 04  5 18 17 19 30.0000000  0  9G21G18G17G 6G30G29G26G10G16
  20925517.286     2537642.27044   1999829.07742  20925519.191    20925515.775
  21816752.677   -11976176.36843  -9313984.42542  21816754.868    21816752.947
  23528559.703     5658220.97343   4395001.65542  23528560.923    23528560.922
  20499876.851     -908211.06644   -706819.02442  20499878.937    20499876.665
  23888650.330     8857479.73543   6885222.79042  23888652.382    23888654.312
  22734823.365    -6245958.26643  -4859637.12242  22734825.700    22734823.941
  22284484.945    -9714629.15443  -7560683.48042  22284487.477    22284486.174
  23752148.560     8031744.57643   6253916.78842  23752150.201    23752150.164
  23682009.611    -3303135.75643  -2563248.31042  23682011.561    23682010.087
 04  5 18 17 20  0.0000000  0  9G21G18G17G 6G30G29G26G10G16
  20918599.081     2501286.94444   1971500.26342  20918601.017    20918597.586
  21801497.049   -12056345.09643  -9376453.50942  21801499.227    21801497.295
  23542703.915     5732548.86743   4452919.42542  23542705.043    23542705.212
  20505966.773     -876208.78544   -681882.20742  20505968.830    20505966.586
  23908825.962     8963502.02143   6967837.44842  23908828.016    23908829.830
  22731711.478    -6262310.45943  -4872379.06942  22731713.914    22731712.142
  22274658.257    -9766268.12443  -7600921.58342  22274660.967    22274659.513
  23772021.978     8136179.64443   6335294.67642  23772023.412    23772023.519
  23672564.963    -3352767.80343  -2601922.61142  23672566.923    23672565.592
 04  5 18 17 20 30.0000000  0  9G21G18G17G 6G30G29G26G10G16
  20911724.014     2465158.26444   1943348.05842  20911725.964    20911722.487
  21786309.768   -12136154.52743  -9438642.61442  21786311.966    21786310.044
  23556862.876     5806954.80943   4510897.99042  23556863.971    23556864.318
  20512144.991     -843742.05844   -656583.49042  20512147.062    20512144.809
  23929005.693     9069547.92843   7050470.49342  23929007.969    23929009.821
  22728703.015    -6278119.28043  -4884697.60742  22728705.491    22728703.724
  22264935.270    -9817362.23843  -7640735.15342  22264937.977    22264936.456
  23791922.282     8240755.63943   6416782.40342  23791923.701    23791923.691
  23663216.035    -3401895.78643  -2640204.13542  23663218.031    23663216.643
 04  5 18 17 21  0.0000000  0  9G21G18G17G 6G30G29G26G10G16
  20904890.461     2429247.66244   1915365.78142  20904892.433    20904888.929
  21771189.522   -12215611.83643  -9500557.34542  21771191.717    21771189.762
  23571035.155     5881429.54143   4568930.18942  23571036.131    23571036.470
  20518409.920     -810819.64444   -630929.67642  20518411.994    20518409.783
  23949188.540     9175605.91543   7133112.91942  23949190.639    23949192.083
  22725796.785    -6293392.31743  -4896598.66042  22725799.199    22725797.375
  22255314.850    -9867917.68743  -7680128.94642  22255317.412    22255316.140
  23811847.081     8345461.26843   6498371.13442  23811848.591    23811848.596
  23653961.728    -3450527.01343  -2678098.56642  23653963.813    23653962.251
 04  5 18 17 21 30.0000000  0 10G22G21G18G17G 6G30G29G26G10G16
  24351369.811
  20898098.840     2393557.73944   1887555.46142  20898100.880    20898097.328
  21756137.043   -12294713.02343  -9562194.57242  21756139.276    21756137.286
  23585220.906     5955975.41643   4627017.77442  23585221.987    23585222.037
  20524762.005     -777439.22644   -604918.98142  20524764.073    20524761.926
  23969373.059     9281675.49643   7215764.35242  23969375.317    23969376.378
  22722993.080    -6308126.08843  -4908079.49042  22722995.534    22722993.554
  22245797.840    -9917929.45243  -7719099.10842  22245800.346    22245799.176
  23831796.576     8450296.47843   6580060.84942  23831798.073    23831797.899
  23644802.831    -3498657.29043  -2715602.65842  23644804.800    23644803.365
 04  5 18 17 22  0.0000000  0 10G22G21G18G17G 6G30G29G26G10G16
  24331071.102
  20891350.406     2358094.13944   1859921.49242  20891352.389    20891348.824
  21741153.674   -12373451.03743  -9623548.80842  21741155.890    21741153.942
  23599420.871     6030597.48843   4685164.80442  23599422.173    23599422.093
  20531202.405     -743595.02544   -578546.90242  20531204.456    20531202.316
  23989560.510     9387759.61343   7298427.13442  23989562.736    23989563.740
  22720293.122    -6322314.07143  -4919135.04442  22720295.668    22720293.707
  22236385.916    -9967389.12643  -7757639.08042  22236388.412    22236387.419
  23851771.587     8555264.35043   6661853.93942  23851772.869    23851772.576
  23635740.525    -3546279.96343  -2752711.15442  23635742.470    23635741.341
 04  5 18 17 22 30.0000000  0 10G22G21G18G17G 6G30G29G26G10G16
  24310800.267
  20884645.282     2322858.87344   1832465.45942  20884647.279    20884643.783
  21726239.974   -12451822.71243  -9684617.58942  21726242.192    21726240.248
  23613636.033     6105297.28643   4743372.36742  23613637.361    23613637.235
  20537731.297     -709285.41844   -551812.16542  20537733.386    20537731.232
  24009750.310     9493856.99343   7381100.26642  24009752.647    24009753.447
  22717697.804    -6335953.17143  -4929762.89342  22717700.243    22717698.281
  22227079.866   -10016292.50143  -7795745.57442  22227082.414    22227081.329
  23871771.311     8660363.87743   6743749.58642  23871772.648    23871772.491
  23626775.506    -3593391.73343  -2789421.52942  23626777.563    23626776.428
 04  5 18 17 23  0.0000000  0 10G22G21G18G17G 6G30G29G26G10G16
  24290554.372
  20877981.376     2287839.78444   1805177.87142  20877983.353    20877979.858
  21711393.913   -12529839.14043  -9745409.55942  21711396.127    21711394.172
  23627863.149     6180062.08043   4801630.58042  23627864.564    23627864.636
  20544346.391     -674523.13844   -524724.70042  20544348.481    20544346.289
  24029939.491     9599952.56843   7463772.02742  24029941.942    24029942.722
  22715204.400    -6349055.01843  -4939972.10142  22715206.952    22715205.029
  22217877.777   -10064649.41943  -7833426.24242  22217880.368    22217879.390
  23891793.574     8765580.29043   6825736.32942  23891794.719    23891794.707
  23617905.832    -3640003.36543  -2825742.23142  23617907.824    23617906.409
 04  5 18 17 23 30.0000000  0 10G22G21G18G17G 6G30G29G26G10G16
  24270336.889    -1562172.26553   -840345.00052  24270336.929    24270336.865
  20871361.733     2253052.95044   1778071.25142  20871363.674    20871360.116
  21696618.668   -12607482.70743  -9805910.97142  21696620.908    21696619.050
  23642105.381     6254907.31043   4859951.47142  23642106.852    23642107.285
  20551050.638     -639292.06844   -497271.94042  20551052.758    20551050.527
  24050130.984     9706059.30343   7546452.43142  24050133.365    24050134.106
  22712816.571    -6361602.71943  -4949749.50042  22712819.150    22712817.361
  22208783.323   -10112441.32643  -7870666.66642  22208785.890    22208784.827
  23911840.465     8870927.01343   6907824.61042  23911841.685    23911841.679
  23609134.120    -3686097.86443  -2861660.02642  23609136.262    23609134.680
 04  5 18 17 24  0.0000000  0 10G22G21G18G17G 6G30G29G26G10G16
  24250145.966    -1668274.32243   -923021.85942  24250145.994    24250146.453
  20864783.849     2218486.02544   1751135.99042  20864785.779    20864782.203
  21681912.515   -12684764.04843  -9866130.14342  21681914.710    21681912.829
  23656361.210     6329821.02443   4918325.74242  23656362.370    23656362.950
  20557841.850     -603604.33844   -469463.34542  20557843.956    20557841.671
  24070321.701     9812162.70443   7629130.31242  24070324.192    24070325.005
  22710532.267    -6373607.17743  -4959103.62342  22710534.679    22710532.961
  22199794.549   -10159677.70243  -7907474.19042  22199797.117    22199795.880
  23931909.485     8976389.89743   6990003.42342  23931910.889    23931910.673
  23600459.158    -3731685.89143  -2897183.11242  23600461.234    23600459.486
 04  5 18 17 24 30.0000000  0 10G22G21G18G17G 6G30G29G26G10G16
  24229982.476    -1774228.61443  -1005583.57242  24229983.627    24229984.533
  20858249.032     2184145.36644   1724377.04042  20858250.962    20858247.438
  21667276.664   -12761675.86943  -9926061.36742  21667278.861    21667276.892
  23670631.184     6404808.84843   4976757.73142  23670632.157    23670632.879
  20564721.041     -567454.21744   -441294.44742  20564723.140    20564720.823
  24090512.483     9918265.63343   7711807.77442  24090514.956    24090516.193
  22708352.636    -6385061.65943  -4968029.17242  22708354.865    22708353.247
  22190912.996   -10206349.96343  -7943842.14742  22190915.602    22190914.433
  23952001.195     9081972.00543   7072275.11342  23952002.622    23952002.441
  23591881.864    -3776759.73243  -2932305.56842  23591883.991    23591882.080
 04  5 18 17 25  0.0000000  0 10G22G21G18G17G 6G30G29G26G10G16
  24209848.021    -1880037.56743  -1088032.04042  24209849.039    24209849.882
  20851756.550     2150027.12844   1697791.41142  20851758.477    20851755.005
  21652710.520   -12838221.13243  -9985706.97242  21652712.765    21652710.723
  23684914.392     6479865.85343   5035243.60142  23684915.366    23684915.884
  20571687.327     -530846.02844   -412768.61442  20571689.440    20571687.129
  24110701.823    10024361.27343   7794479.52442  24110704.272    24110705.912
  22706276.910    -6395969.46643  -4976528.75142  22706279.240    22706277.643
  22182138.601   -10252459.90243  -7979771.95042  22182141.216    22182139.920
  23972114.300     9187666.72543   7154634.55142  23972115.737    23972115.597
  23583401.834    -3821322.43243  -2967029.77242  23583403.914    23583402.028
 04  5 18 17 25 30.0000000  0 10G22G21G18G17G 6G30G29G26G10G16
  24189741.613    -1985698.72243  -1170365.34642  24189742.674    24189743.245
  20845306.433     2116131.69744   1671379.38842  20845308.390    20845304.971
  21638214.577   -12914397.63343 -10045065.22442  21638216.775    21638214.715
  23699210.518     6554992.66943   5093783.92342  23699211.632    23699211.909
  20578740.869     -493779.28344   -383885.46542  20578742.988    20578740.717
  24130889.768    10130447.46543   7877143.91442  24130892.025    24130893.527
  22704305.529    -6406329.15443  -4984601.23442  22704307.865    22704306.177
  22173471.650   -10298004.65643  -8015261.31942  22173474.298    22173472.983
  23992248.484     9293472.50443   7237080.52642  23992249.928    23992249.950
  23575019.548    -3865372.34043  -3001354.39842  23575021.339    23575019.662
 04  5 18 17 26  0.0000000  0 10G22G21G18G17G 6G30G29G26G10G16
  24169664.171    -2091206.73443  -1252579.27142  24169665.317    24169665.643
  20838899.566     2082463.03044   1645144.06242  20838901.492    20838898.049
  21623789.678   -12990200.46743 -10104132.30942  21623791.890    21623789.800
  23713520.783     6630192.35643   5152380.97442  23713521.901    23713522.015
  20585882.391     -456250.65844   -354642.41642  20585884.441    20585882.202
  24151075.654    10236524.72443   7959801.37842  24151077.946    24151079.581
  22702439.239    -6416136.33743  -4992243.16342  22702441.520    22702439.935
  22164913.534   -10342978.02843  -8050305.47742  22164916.076    22164914.723
  24012403.773     9399390.25543   7319613.77942  24012405.262    24012405.505
  23566735.622    -3908904.54843  -3035275.60242  23566737.225    23566735.377
 04  5 18 17 26 30.0000000  0 10G22G21G18G17G 6G30G29G26G10G16
  24149615.716    -2196560.55143  -1334673.05842  24149616.913    24149617.536
  20832535.534     2049020.25844   1619084.76342  20832537.530    20832534.066
  21609436.051   -13065628.96243 -10162907.70142  21609438.199    21609436.169
  23727844.468     6705463.81943   5211033.97942  23727845.681    23727845.585
  20593111.501     -418261.24844   -325040.31642  20593113.572    20593111.374
  24171259.110    10342589.53443   8042449.15342  24171261.377    24171263.220
  22700678.135    -6425391.11043  -4999454.66742  22700680.378    22700678.660
  22156464.288   -10387378.63943  -8084903.30842  22156466.950    22156465.669
  24032579.968     9505416.39543   7402231.48842  24032581.402    24032581.716
  23558550.658    -3951918.62143  -3068793.06442  23558552.198    23558550.373
 04  5 18 17 27  0.0000000  0 10G22G21G18G17G 6G30G29G26G10G16
  24129596.713    -2301761.46543  -1416647.69842  24129597.764    24129598.042
  20826214.034     2015800.42644   1593199.18842  20826215.983    20826212.474
  21595153.235   -13140685.03343 -10221392.89442  21595155.399    21595153.438
  23742181.028     6780803.65543   5269740.27642  23742182.197    23742182.486
  20600427.758     -379814.38644   -295081.75042  20600429.801    20600427.557
  24191439.110    10448636.08843   8125082.71942  24191441.212    24191443.357
  22699021.696    -6434095.63743  -5006237.40042  22699023.974    22699022.180
  22148123.996   -10431206.98943  -8119055.24142  22148126.603    22148125.510
  24052775.698     9611545.97443   7484929.78642  24052777.119    24052777.689
  23550463.200    -3994416.48753  -3101908.24752  23550464.882    23550463.526
 04  5 18 17 27 30.0000000  0  9G22G21G18G17G 6G30G29G26G10
  24109606.782    -2406808.93143  -1498502.72942  24109607.879    24109608.094
  20819934.689     1982802.53744   1567486.55742  20819936.643    20819933.167
  21580941.422   -13215368.90443 -10279588.06742  21580943.505    21580941.598
  23756530.683     6856210.33943   5328498.63642  23756531.772    23756531.932
  20607830.716     -340911.44144   -264767.80342  20607832.850    20607830.576
  24211614.941    10554660.25743   8207698.78842  24211616.972    24211619.185
  22697469.847    -6442250.52943  -5012591.86442  22697472.209    22697470.352
  22139892.753   -10474462.23043  -8152760.58642  22139895.304    22139894.350
  24072990.588     9717774.93643   7567705.49442  24072991.852    24072992.488
 04  5 18 17 28  0.0000000  0  9G22G21G18G17G 6G30G29G26G10
  24089648.298    -2511691.48143  -1580229.25242  24089649.384    24089649.561
  20813699.548     1950036.55044   1541954.62842  20813701.472    20813697.966
  21566802.536   -13289669.31043 -10337484.43242  21566804.624    21566802.716
  23770894.358     6931693.42143   5387316.53742  23770895.800    23770896.023
  20615322.378     -301542.83544   -234091.00142  20615324.487    20615322.164
  24231788.076    10660669.18443   8290302.99542  24231789.945    24231792.011
  22696024.771    -6449845.07643  -5018509.68542  22696027.049    22696025.280
  22131773.053   -10517131.85643  -8186009.59942  22131775.538    22131774.641
  24093225.512     9824110.79743   7650564.53542  24093226.899    24093227.484
 04  5 18 17 28 30.0000000  0  9G22G21G18G17G 6G30G29G26G10
  24069719.490    -2616417.98543  -1661834.23442  24069720.662    24069720.876
  20807506.502     1917491.78644   1516595.07042  20807508.404    20807504.896
  21552734.841   -13363595.38843 -10395089.11842  21552736.945    21552735.049
  23785270.810     7007241.54643   5446185.12742  23785272.150    23785272.520
  20622900.493     -261719.74144   -203060.04442  20622902.574    20622900.236
  24251955.484    10766649.29943   8372884.76442  24251957.615    24251959.630
  22694684.127    -6456889.43543  -5023998.78942  22694686.485    22694684.709
  22123763.040   -10559224.53843  -8218809.05742  22123765.615    22123764.514
  24113478.360     9930540.10543   7733496.35942  24113479.694    24113480.168
 04  5 18 17 29  0.0000000  0 10G22G21G18G17G 6G30G29G26G10G16
  24049822.622    -2720974.42943  -1743306.70042  24049823.879    24049824.532
  20801357.874     1885180.65844   1491417.57442  20801359.741    20801356.280
  21538740.936   -13437133.75444 -10452391.68742  21538743.046    21538741.102
  23799661.750     7082866.93143   5505113.91842  23799663.195    23799663.555
  20630567.342     -221430.15344   -171665.58542  20630569.388    20630567.093
  24272119.394    10872609.88743   8455451.30142  24272121.512    24272123.432
  22693450.624    -6463370.93643  -5029049.31442  22693453.058    22693451.260
  22115865.540   -10600726.00343  -8251147.80842  22115868.160    22115866.907
  24133750.864    10037072.64243   7816508.63942  24133752.130    24133752.475
  23519105.675    -1082177.34753   -835277.35952  23519106.834    23519109.045
 04  5 18 17 29 30.0000000  0 10G22G21G18G17G 6G30G29G26G10G16
  24029956.302    -2825372.65043  -1824655.87142  24029957.517    24029958.254
  20795251.165     1853089.59744   1466411.55642  20795253.014    20795249.552
  21524818.582   -13510296.24743 -10509401.37042  21524820.693    21524818.671
  23814065.043     7158555.56843   5564091.97842  23814066.276    23814066.659
  20638320.343     -180687.93744   -139918.43042  20638322.382    20638320.062
  24292276.338    10978535.09743   8537990.24942  24292278.443    24292280.225
  22692322.186    -6469302.00543  -5033670.93142  22692324.479    22692322.634
  22108078.558   -10641647.18643  -8283034.41442  22108081.145    22108079.661
  24154040.009    10143692.81743   7899589.21642  24154041.406    24154041.669
  23511516.525    -1122064.63543   -866358.30142  23511517.336    23511517.546
 04  5 18 17 30  0.0000000  0 10G22G21G18G17G 6G30G29G26G10G16
  24010121.793    -2929604.53943  -1905875.39342  24010122.976    24010123.455
  20789187.560     1821225.15244   1441582.12342  20789189.451    20789185.987
  21510969.063   -13583075.98743 -10566112.80142  21510971.208    21510969.106
  23828481.187     7234313.62843   5623124.11842  23828482.626    23828482.918
  20646160.695     -139487.02744   -107813.84642  20646162.723    20646160.384
  24312427.065    11084428.01843   8620504.07042  24312429.180    24312430.874
  22691299.490    -6474676.20243  -5037858.61442  22691301.723    22691299.926
  22100403.420   -10681979.67343  -8314462.27642  22100406.020    22100404.533
  24174346.526    10250404.55643   7982741.17642  24174348.103    24174348.346
  23504026.625    -1161425.85743   -897029.36342  23504027.827    23504026.940
 04  5 18 17 30 30.0000000  0 10G22G21G18G17G 6G30G29G26G10G16
  23990319.328    -3033667.35843  -1986963.15942  23990320.584    23990320.781
  20783167.332     1789588.52044   1416930.20242  20783169.206    20783165.748
  21497192.739   -13655470.88344 -10622524.35442  21497194.929    21497192.773
  23842910.877     7310141.63643   5682210.77242  23842912.141    23842912.785
  20654088.326      -97827.04544    -75351.54942  20654090.389    20654088.089
  24332571.847    11190287.03043   8702991.46942  24332573.926    24332575.548
  22690383.234    -6479491.65543  -5041610.91642  22690385.436    22690383.617
  22092840.923   -10721720.46943  -8345429.08842  22092843.483    22092841.983
  24194670.565    10357206.23843   8065963.19342  24194671.983    24194672.191
  23496636.790    -1200259.21343   -927289.14042  23496638.254    23496636.881
 04  5 18 17 31  0.0000000  0 10G22G21G18G17G 6G30G29G26G10G16
  23970549.192    -3137559.19643  -2067917.70142  23970550.478    23970550.605
  20777190.366     1758179.68544   1392455.79942  20777192.257    20777188.815
  21483489.917   -13727479.09644 -10678634.60042  21483492.120    21483490.033
  23857353.727     7386039.24543   5741351.69342  23857354.963    23857355.843
  20662103.295      -55708.18744    -42531.69142  20662105.334    20662103.088
  24352709.113    11296109.41043   8785450.31442  24352711.378    24352713.459
  22689573.146    -6483747.90343  -5044927.47942  22689575.363    22689573.810
  22085391.501   -10760867.25243  -8375933.03842  22085393.999    22085392.524
  24215010.795    10464095.56043   8149253.48942  24215012.355    24215012.660
  23489347.443    -1238563.53743   -957136.66642  23489349.097    23489347.957
 04  5 18 17 31 30.0000000  0 10G22G21G18G17G 6G30G29G26G10G16
  23950810.593    -3241285.67243  -2148743.38442  23950811.755    23950811.978
  20771255.430     1726991.61044   1368153.40842  20771257.343    20771253.876
  21469859.550   -13799106.98643 -10734448.49242  21469861.722    21469859.700
  23871808.588     7461999.18943   5800541.17142  23871809.738    23871810.560
  20670204.135      -13137.97044     -9360.12542  20670206.184    20670204.021
  24372837.684    11401885.25143   8867872.90942  24372839.876    24372842.476
  22688868.294    -6487451.44743  -5047813.37442  22688870.509    22688869.220
  22078054.196   -10799424.97543  -8405977.96742  22078056.599    22078055.254
  24235366.089    10571062.99943   8232604.63942  24235367.584    24235367.871
  23482158.171    -1276345.05243   -986576.80042  23482159.867    23482158.379
 04  5 18 17 32  0.0000000  0 10G22G21G18G17G 6G30G29G26G10G16
  23931105.747    -3344834.55443  -2229430.68842  23931106.907    23931107.103
  20765364.699     1696035.20044   1344031.51842  20765366.566    20765363.037
  21456303.871   -13870342.49244 -10789956.62142  21456306.018    21456303.910
  23886277.100     7538031.62243   5859787.14442  23886278.294    23886279.204
  20678392.804       29893.82144     24171.11342  20678394.849    20678392.741
  24392958.971    11507622.29043   8950265.29842  24392961.083    24392963.575
  22688270.785    -6490591.24843  -5050259.97442  22688272.952    22688271.734
  22070831.400   -10837381.10043  -8435554.12642  22070833.815    22070832.592
  24255737.898    10678116.67143   8316023.02242  24255739.423    24255739.672
  23475069.838    -1313592.08143  -1015600.45342  23475071.876    23475070.408
 04  5 18 17 32 30.0000000  0 10G22G21G18G17G 6G30G29G26G10G16
  23911434.071    -3448209.18043  -2309982.21342  23911435.221    23911435.455
  20759517.043     1665305.43744   1320086.25442  20759518.925    20759515.390
  21442822.024   -13941189.63143 -10845162.13042  21442824.209    21442822.059
  23900758.734     7614131.26843   5919085.47742  23900759.884    23900760.707
  20686668.251       73381.48044     58057.56342  20686670.257    20686668.218
  24413071.286    11613312.87443   9032621.41842  24413073.370    24413076.017
  22687779.684    -6493171.94743  -5052270.90142  22687781.849    22687780.633
  22063722.482   -10874738.53943  -8464663.78142  22063724.935    22063723.696
  24276124.838    10785249.11143   8399502.77642  24276126.217    24276126.375
  23468083.061    -1350308.73643  -1044210.80542  23468085.014    23468083.324
 04  5 18 17 33  0.0000000  0 10G22G21G18G17G 6G30G29G26G10G16
  23891795.836    -3551408.28943  -2390396.95242  23891797.075    23891797.164
  20753712.350     1634801.87644   1296317.25442  20753714.278    20753710.718
  21429414.179   -14011647.78643 -10900064.53042  21429416.388    21429414.240
  23915252.644     7690297.05443   5978435.37342  23915253.809    23915254.609
  20695030.263      117324.02744     92298.47642  20695032.290    20695030.262
  24433174.529    11718953.58843   9114938.66342  24433176.591    24433179.072
  22687395.143    -6495193.61743  -5053846.25842  22687397.243    22687395.832
  22056727.719   -10911495.87443  -8493305.82442  22056730.166    22056728.984
  24296525.999    10892457.29543   8483041.51242  24296527.344    24296527.515
  23461197.012    -1386494.58243  -1072407.54242  23461199.229    23461197.497
 04  5 18 17 33 30.0000000  0 10G22G21G18G17G 6G30G29G26G10G16
  23872191.931    -3654426.61743  -2470670.85442  23872193.189    23872193.364
  20747951.427     1604528.18644   1272727.36942  20747953.378    20747949.791
  21416081.319   -14081712.38744 -10954660.27042  21416083.496    21416081.354
  23929759.939     7766532.41443   6037839.43042  23929761.018    23929761.642
  20703479.493      161724.79744    126896.44842  20703481.525    20703479.427
  24453267.800    11824545.29143   9197217.76142  24453270.051    24453272.618
  22687117.479    -6496652.32643  -5054982.89942  22687119.718    22687117.984
  22049848.286   -10947647.47643  -8521475.86042  22049850.686    22049849.573
  24316941.864    10999742.59543   8566640.34042  24316943.248    24316943.267
  23454412.599    -1422145.24343  -1100187.26442  23454414.791    23454413.296
 04  5 18 17 34  0.0000000  0 10G22G21G18G17G 6G30G29G26G10G16
  23852622.102    -3757265.87743  -2550805.22342  23852623.317    23852623.537
  20742233.740     1574481.35444   1249314.25942  20742235.668    20742232.074
  21402822.950   -14151385.34843 -11008950.83142  21402825.085    21402823.023
  23944279.727     7842833.58343   6097294.81842  23944280.889    23944281.308
  20712015.159      206579.79244    161848.35642  20712017.190    20712015.034
  24473350.948    11930081.92143   9279453.90742  24473353.043    24473355.720
  22686946.577    -6497550.87743  -5055683.07542  22686948.783    22686947.002
  22043083.828   -10983194.63543  -8549174.89842  22043086.251    22043085.156
  24337371.287    11107099.29543   8650294.80742  24337372.707    24337372.708
  23447730.094    -1457263.11143  -1127551.81342  23447732.134    23447730.422
 04  5 18 17 34 30.0000000  0 10G22G21G18G17G 6G30G29G26G10G16
  23833087.300    -3859922.18043  -2630797.02142  23833088.383    23833088.453
  20736559.575     1544663.33644   1226079.44142  20736561.485    20736557.899
  21389639.606   -14220663.82943 -11062934.01542  21389641.755    21389639.664
  23958812.173     7919202.42243   6156802.95142  23958813.521    23958813.607
  20720637.487      251890.48844    197155.36042  20720639.561    20720637.379
  24493423.343    12035562.73643   9361646.59342  24493425.554    24493428.334
  22686882.420    -6497886.99943  -5055944.98642  22686884.722    22686883.137
  22036435.223   -11018133.47443  -8576399.93642  22036437.648    22036436.488
  24357814.040    11214526.90943   8734004.55442  24357815.486    24357815.521
  23441149.204    -1491845.48443  -1154499.09542  23441151.323    23441149.624
 04  5 18 17 35  0.0000000  0 10G22G21G18G17G 6G30G29G26G10G16
  23813586.833    -3962398.22443  -2710648.37042  23813587.936    23813587.815
  20730928.036     1515069.94344   1203019.66242  20730929.983    20730926.443
  21376530.883   -14289550.84943 -11116612.16342  21376532.977    21376530.812
  23973356.944     7995634.44043   6216360.23342  23973358.240    23973358.296
  20729345.715      297652.34544    232813.91942  20729347.774    20729345.590
  24513483.818    12140980.84643   9443790.38642  24513486.140    24513489.069
  22686924.901    -6497664.48943  -5055771.59442  22686927.113    22686925.408
  22029901.983   -11052466.14043  -8603152.61542  22029904.490    22029903.124
  24378269.332    11322018.92043   8817764.49342  24378270.634    24378270.676
  23434669.828    -1525895.27743  -1181031.39542  23434671.738    23434670.184
 04  5 18 17 35 30.0000000  0 10G22G21G18G17G 6G30G29G26G10G16
  23794122.023    -4064684.96543  -2790352.17242  23794123.345    23794123.274
  20725340.903     1485708.99944   1180141.00542  20725342.786    20725339.233
  21363498.139   -14358037.80343 -11169978.57242  21363500.273    21363498.127
  23987914.844     8072136.69543   6275972.32242  23987916.253    23987916.595
  20738141.107      343872.16244    268829.32342  20738143.162    20738140.980
  24533533.394    12246341.01243   9525889.03542  24533535.529    24533538.418
  22687075.020    -6496875.69643  -5055156.94742  22687077.191    22687075.630
  22023485.765   -11086183.32843  -8629425.71142  22023488.358    22023486.991
  24398737.735    11429580.51043   8901578.64142  24398739.016    24398739.086
  23428293.185    -1559404.52743  -1207142.48742  23428295.207    23428293.284
 04  5 18 17 36  0.0000000  0 10G22G21G18G17G 6G30G29G26G10G16
  23774693.042    -4166784.11643  -2869909.79642  23774694.364    23774694.354
  20719797.160     1456576.52844   1157440.38442  20719799.042    20719795.543
  21350541.164   -14426127.06643 -11223035.09442  21350543.260    21350541.149
  24002484.994     8148705.35343   6335636.08542  24002486.500    24002487.526
  20747022.794      390545.73644    305198.30242  20747024.845    20747022.776
  24553570.553    12351636.92343   9607937.61542  24553572.579    24553575.243
  22687332.301    -6495523.80943  -5054103.53542  22687334.470    22687333.081
  22017186.357   -11119286.74243  -8655220.54342  22017188.969    22017187.554
  24419218.161    11537205.86143   8985442.46742  24419219.419    24419219.584
  23422019.065    -1592375.89643  -1232834.49442  23422020.995    23422019.462
 04  5 18 17 36 30.0000000  0 10G22G21G18G17G 6G30G29G26G10G16
  23755299.693    -4268695.95943  -2949321.50942  23755300.991    23755301.243
  20714296.742     1427671.32544   1134916.85442  20714298.617    20714295.110
  21337659.605   -14493819.61443 -11275782.48142  21337661.678    21337659.679
  24017067.834     8225337.98643   6395349.73842  24017069.107    24017070.310
  20755990.386      437670.70544    341919.01642  20755992.425    20755990.421
  24573594.706    12456863.95943   9689932.52742  24573596.702    24573599.172
  22687696.396    -6493610.53543  -5052612.66542  22687698.598    22687697.286
  22011003.621   -11151776.46943  -8680537.18342  22011006.264    22011004.918
  24439709.959    11644890.68443   9069352.58742  24439711.376    24439711.527
  23415846.917    -1624810.63443  -1258108.30942  23415848.940    23415847.349
 04  5 18 17 37  0.0000000  0 10G22G21G18G17G 6G30G29G26G10G16
  23735943.319    -4370415.06043  -3028583.05742  23735944.483    23735944.659
  20708840.288     1398997.60244   1112573.70042  20708842.226    20708838.670
  21324854.512   -14561110.55344 -11328216.93042  21324856.587    21324854.593
  24031663.459     8302038.39743   6455116.21542  24031664.860    24031665.701
  20765044.560      485250.20144    378993.90142  20765046.557    20765044.574
  24593605.951    12562023.15843   9771874.65342  24593608.140    24593610.504
  22688168.071    -6491131.52943  -5050680.98142  22688170.384    22688169.052
  22004938.839   -11183646.75243  -8705371.14342  22004941.425    22004940.167
  24460213.378    11752636.60643   9153310.36442  24460214.816    24460214.850
  23409777.734    -1656704.01143  -1282960.27142  23409779.776    23409777.956
 04  5 18 17 37 30.0000000  0 10G22G21G18G17G 6G30G29G26G10G16
  23716623.489    -4471940.74143  -3107693.87142  23716624.730    23716624.611
  20703427.581     1370553.90044   1090409.78042  20703429.520    20703425.987
  21312125.834   -14627999.96344 -11380338.50242  21312127.929    21312125.826
  24046272.035     8378805.31543   6514934.50142  24046273.232    24046273.837
  20774184.896      533282.80644    416421.86642  20774186.917    20774184.948
  24613604.110    12667111.06343   9853761.08742  24613606.340    24613608.399
  22688747.363    -6488087.88143  -5048309.29142  22688749.697    22688748.101
  21998992.167   -11214897.07843  -8729722.00642  21998994.716    21998993.419
  24480727.406    11860440.22843   9237313.09442  24480728.999    24480729.114
  23403811.465    -1688056.39243  -1307390.66342  23403813.548    23403811.651
 04  5 18 17 38  0.0000000  0 10G22G21G18G17G 6G30G29G26G10G16
  23697339.820    -4573275.46343  -3186655.87542  23697341.049    23697340.503
  20698058.076     1342336.68144   1068422.33942  20698059.992    20698056.401
  21299472.990   -14694491.00543 -11432149.65842  21299475.091    21299472.994
  24060892.333     8455634.39443   6574801.21842  24060893.654    24060893.958
  20783410.473      581763.61244    454199.07542  20783412.507    20783410.597
  24633586.808    12772120.65643   9935586.49642  24633589.231    24633591.413
  22689433.328    -6484483.40043  -5045500.59442  22689435.630    22689433.889
  21993162.988   -11245529.51143  -8753591.41042  21993165.492    21993164.172
  24501251.676    11968295.21043   9321355.85142  24501253.029    24501253.150
  23397947.932    -1718871.14043  -1331402.14242  23397949.901    23397948.043
 04  5 18 17 38 30.0000000  0 10G22G21G18G17G 6G30G29G26G10G16
  23678094.000    -4674412.42843  -3265463.77042  23678095.118    23678094.596
  20692732.521     1314351.02644   1046615.34542  20692734.448    20692730.885
  21286897.126   -14760577.34344 -11483645.45942  21286899.219    21286897.144
  24075525.366     8532530.38443   6634720.06242  24075526.793    24075526.929
  20792722.286      630697.20244    492329.09642  20792724.262    20792722.345
  24653554.951    12877054.55443  10017353.03542  24653557.314    24653559.920
  22690226.876    -6480312.57243  -5042250.58242  22690229.207    22690227.449
  21987452.683   -11275537.05843  -8776973.88342  21987455.144    21987453.876
  24521786.390    12076204.52043   9405440.94142  24521787.684    24521787.657
  23392187.272    -1749142.21643  -1354990.03042  23392189.405    23392187.723
 04  5 18 17 39  0.0000000  0 10G22G21G18G17G 6G30G29G26G10G16
  23658886.197    -4775350.38243  -3344116.60642  23658887.407    23658886.917
  20687451.072     1286596.77544   1024988.66442  20687452.975    20687449.474
  21274398.553   -14826258.30944 -11534825.39242  21274400.607    21274398.404
  24090170.712     8609492.61543   6694690.54042  24090172.174    24090172.573
  20802120.098      680082.82744    530811.35842  20802122.084    20802120.119
  24673508.255    12981909.81343  10099058.28842  24673510.438    24673513.277
  22691128.352    -6475575.66543  -5038559.46642  22691130.670    22691128.909
  21981861.495   -11304918.54143  -8799868.51442  21981863.978    21981862.746
  24542330.958    12184165.56943   9489566.33442  24542332.031    24542332.041
  23386530.407    -1778869.53943  -1378154.17642  23386532.393    23386530.595
 04  5 18 17 39 30.0000000  0 10G22G21G18G17G 6G30G29G26G10G16
  23639716.374    -4876087.89943  -3422613.25042  23639717.540    23639716.985
  20682213.580     1259073.58944   1003542.03442  20682215.526    20682212.002
  21261977.102   -14891533.30844 -11585688.97542  21261979.202    21261976.977
  24104828.483     8686520.51243   6754712.18242  24104829.886    24104830.700
  20811603.665      729919.14444    569644.80242  20811605.647    20811603.721
  24693445.819    13086683.41543  10180699.90142  24693448.152    24693450.935
  22692137.485    -6470273.10243  -5034427.59942  22692139.771    22692137.950
  21976389.768   -11333672.56543  -8822274.21142  21976392.197    21976390.970
  24562884.105    12292175.84143   9573730.11642  24562885.666    24562886.086
  23380977.094    -1808052.64343  -1400894.24242  23380979.159    23380977.322
 04  5 18 17 40  0.0000000  0  9G22G21G18G17G 6G29G26G10G16
  23620585.541    -4976621.13143  -3500950.70142  23620586.757    23620586.035
  20677020.677     1231784.49344    982277.81642  20677022.626    20677019.023
  21249633.479   -14956398.76544 -11636233.43542  21249635.616    21249633.437
  24119499.348     8763616.02843   6814786.51242  24119500.621    24119501.678
  20821173.370      780208.00344    608830.88442  20821175.348    20821173.428
  22693254.572    -6464402.23243  -5029852.86942  22693256.936    22693255.106
  21971038.202   -11361795.10543  -8844187.85642  21971040.526    21971039.364
  24583447.084    12400235.30943   9657932.20842  24583448.530    24583449.486
  23375527.635    -1836688.59943  -1423207.99242  23375529.768    23375528.007
 04  5 18 17 40 30.0000000  0  9G22G21G18G17G 6G29G26G10G16
  23601492.424    -5076955.74743  -3579133.42742  23601493.639    23601492.823
  20671870.854     1204721.84744    961190.04442  20671872.820    20671869.178
  21237366.701   -15020861.21744 -11686463.87442  21237368.804    21237366.638
  24134181.795     8840771.61743   6874907.67442  24134182.892    24134183.992
  20830827.573      830941.20044    648363.19742  20830829.624    20830827.700
  22694478.565    -6457970.48843  -5024841.13142  22694480.906    22694479.048
  21965805.855   -11389291.92943  -8865613.92142  21965808.155    21965806.865
  24604017.743    12508334.12943   9742164.94142  24604018.932    24604020.217
  23370180.982    -1864784.26743  -1445100.67142  23370183.209    23370181.540
 04  5 18 17 41  0.0000000  0  9G22G21G18G17G 6G29G26G10G16
  23582438.231    -5177085.95643  -3657156.88642  23582439.401    23582438.558
  20666764.900     1177890.20344    940282.27642  20666766.887    20666763.281
  21225177.544   -15084915.69244 -11736376.41242  21225179.644    21225177.430
  24148876.289     8917991.41743   6935078.84142  24148877.408    24148878.428
  20840567.067      882122.34544    688244.55642  20840569.086    20840567.187
  22695809.858    -6450973.61243  -5019389.00042  22695812.343    22695810.544
  21960693.483   -11416157.21343  -8886547.89042  21960695.852    21960694.458
  24624596.435    12616474.43743   9826430.04942  24624597.536    24624598.890
  23364938.470    -1892334.67743  -1466568.49842  23364940.490    23364938.940
 04  5 18 17 41 30.0000000  0  9G22G21G18G17G 6G29G26G10G16
  23563423.297    -5277009.76643  -3735019.48942  23563424.387    23563423.660
  20661703.106     1151290.35444    919555.12642  20661705.054    20661701.514
  21213066.233   -15148560.80244 -11785969.95842  21213068.329    21213066.048
  24163583.627     8995275.46543   6995300.02342  24163584.637    24163585.126
  20850391.671      933751.04844    728474.66642  20850393.689    20850391.800
  22697249.027    -6443411.00843  -5013496.06842  22697251.476    22697249.656
  21955701.751   -11442389.01343  -8906988.22142  21955704.250    21955702.648
  24645182.629    12724654.41043   9910726.06342  24645183.799    24645184.888
  23359799.829    -1919338.89943  -1487610.72342  23359801.761    23359800.192
 04  5 18 17 42  0.0000000  0  9G22G21G18G17G 6G29G26G10G16
  23544447.780    -5376726.85943  -3812721.00642  23544448.855    23544448.044
  20656685.221     1124921.01344    899007.60142  20656687.095    20656683.577
  21201032.799   -15211796.56344 -11835244.53742  21201034.887    21201032.633
  24178302.133     9072622.27843   7055570.14742  24178303.471    24178303.945
  20860301.218      985825.61844    769052.20142  20860303.201    20860301.303
  22698795.645    -6435283.94643  -5007163.28142  22698798.098    22698796.160
  21950830.660   -11467986.77543  -8926934.50042  21950833.216    21950831.572
  24665775.732    12832870.86143   9995050.51242  24665776.931    24665777.873
  23354765.031    -1945797.67043  -1508227.90242  23354766.882    23354765.187
 04  5 18 17 42 30.0000000  0  9G22G21G18G17G 6G29G26G10G16
  23525512.472    -5476230.92343  -3890256.55242  23525513.640    23525512.918
  20651711.951     1098786.80444    878643.29142  20651713.878    20651710.404
  21189078.254   -15274617.95844 -11884196.22842  21189080.303    21189078.124
  24193033.524     9150036.18543   7115892.57442  24193034.914    24193035.451
  20870296.242     1038349.65844    809979.96842  20870298.213    20870296.292
  22700450.507    -6426587.78643  -5000387.04542  22700452.958    22700451.045
  21946081.305   -11492944.59243  -8946382.11642  21946083.904    21946082.232
  24686375.954    12941126.02143  10079405.11342  24686377.486    24686378.281
  23349834.821    -1971705.90053  -1528416.19952  23349836.687    23349834.781
 04  5 18 17 43  0.0000000  0  8G22G21G18G17G 6G29G26G16
  23506617.755    -5575523.15243  -3967626.99542  23506618.902    23506618.047
  20646783.163     1072885.51944    858460.47542  20646785.052    20646781.552
  21177202.161   -15337026.65144 -11932826.32342  21177204.252    21177202.085
  24207777.179     9227514.05843   7176264.82142  24207778.542    24207779.074
  20880376.154     1091319.58644    851255.18642  20880378.132    20880376.173
  22702213.057    -6417325.70943  -4993169.84842  22702215.439    22702213.466
  21941453.597   -11517263.68943  -8965332.02542  21941456.172    21941454.472
  23345009.097    -1997065.77043  -1548177.14942  23345011.161    23345009.064
 04  5 18 17 43 30.0000000  0  8G22G21G18G17G 6G29G26G16
  23487764.046    -5674599.99543  -4044829.64342  23487765.157    23487764.322
  20641898.957     1047218.80544    838460.44742  20641900.839    20641897.349
  21165405.278   -15399019.73844 -11981132.57942  21165407.353    21165405.108
  24222532.820     9305057.64343   7236688.31642  24222534.372    24222535.227
  20890541.083     1144736.59944    892878.77542  20890543.099    20890541.138
  22704083.440    -6407495.58243  -4985509.99742  22704085.950    22704083.981
  21936947.859   -11540940.73243  -8983781.64042  21936950.524    21936948.896
  23340287.979    -2021875.03943  -1567509.04142  23340290.171    23340288.156
 04  5 18 17 44  0.0000000  0  8G22G21G18G17G 6G29G26G16
  23468950.198    -5773467.09143  -4121868.84542  23468951.454    23468950.519
  20637058.148     1021780.21244    818638.16842  20637060.061    20637056.541
  21153686.235   -15460603.36744 -12029119.77542  21153688.341    21153686.127
  24237299.931     9382659.54643   7297157.23242  24237301.283    24237302.791
  20900789.644     1198592.82544    934844.60742  20900791.646    20900789.715
  22706060.706    -6397104.46043  -4977413.03042  22706063.106    22706061.421
  21932563.306   -11563981.31943  -9001735.29842  21932565.991    21932564.472
  23335670.741    -2046140.05543  -1586416.86242  23335672.911    23335670.787
 04  5 18 17 44 30.0000000  0  8G22G21G18G17G 6G29G26G16
  23450177.772    -5872116.79443  -4198738.62042  23450179.001    23450178.051
  20632261.882      996575.72344    798998.30742  20632263.805    20632260.251
  21142046.355   -15521770.99444 -12076782.81842  21142048.481    21142046.305
  24252079.758     9460325.65543   7357676.16742  24252080.587    24252082.402
  20911122.650     1252893.35544    977156.65342  20911124.672    20911122.830
  22708145.929    -6386146.58543  -4968874.42942  22708148.163    22708146.720
  21928301.319   -11586378.08443  -9019187.30142  21928303.980    21928302.399
  23331157.936    -2069854.56453  -1604895.65752  23331160.002    23331158.077
 04  5 18 17 45  0.0000000  0  8G22G21G18G17G 6G29G26G16
  23431446.656    -5970547.45743  -4275437.71142  23431447.901    23431447.248
  20627510.276      971605.62544    779541.08742  20627512.171    20627508.589
  21130485.955   -15582521.24344 -12124120.62342  21130488.082    21130485.895
  24266871.617     9538055.95943   7418245.12842  24266872.464    24266873.898
  20921540.233     1307637.63444   1019814.48042  20921542.213    20921540.381
  22710338.961    -6374622.22043  -4959894.40542  22710341.134    22710339.702
  21924162.129   -11608129.58743  -9036136.48042  21924164.808    21924163.190
  23326749.960    -2093018.00543  -1622945.05142  23326751.965    23326750.285
 04  5 18 17 45 30.0000000  0  8G22G21G18G17G 6G29G26G16
  23412757.706    -6068758.34943  -4351965.56742  23412758.827    23412758.178
  20622803.093      946869.52344    760266.21042  20622804.991    20622801.447
  21119004.935   -15642854.35344 -12171133.39242  21119007.029    21119004.825
  24281675.459     9615848.96643   7478862.95742  24281676.114    24281677.606
  20932041.882     1362823.93944   1062816.73142  20932043.827    20932042.070
  22712639.617    -6362532.00943  -4950473.47142  22712641.818    22712640.532
  21920145.930   -11629235.18143  -9052582.35742  21920148.573    21920147.010
  23322447.162    -2115630.69843  -1640565.33042  23322449.145    23322447.154
 04  5 18 17 46  0.0000000  0  8G22G21G18G17G 6G29G26G16
  23394110.806    -6166748.65243  -4428321.55742  23394111.934    23394111.083
  20618140.280      922366.48744    741172.94542  20618142.174    20618138.692
  21107603.127   -15702770.81144 -12217821.49242  21107605.245    21107602.997
  24296490.641     9693703.94743   7539529.02242  24296491.581    24296493.087
  20942627.319     1418450.39244   1106161.95442  20942629.248    20942627.533
  22715047.919    -6349877.16243  -4940612.56042  22715050.133    22715048.714
  21916252.711   -11649694.48243  -9068524.64342  21916255.310    21916253.704
  23318248.573    -2137693.42043  -1657757.05842  23318250.630    23318248.931
 04  5 18 17 46 30.0000000  0  8G22G21G18G 6G29G26G16G15
  23375508.031    -6264506.91743  -4504496.72342  23375509.188    23375508.232
  20613523.862      898106.83544    722269.31642  20613525.708    20613522.196
  21096282.827   -15762259.31744 -12264176.12742  21096284.939    21096282.634
  20953298.287     1474526.19644   1149857.32942  20953300.175    20953298.455
  22717565.407    -6336648.03943  -4930304.15642  22717567.695    22717566.079
  21912484.487   -11669496.30643  -9083954.59642  21912487.130    21912485.356
  23314156.778    -2159195.82543  -1674512.24442  23314158.955    23314157.072
  23317328.074
 04  5 18 17 47  0.0000000  0  8G22G21G18G 6G29G26G16G15
  23356947.177    -6362043.59443  -4580499.20242  23356948.407    23356947.469
  20608951.427      874078.85244    703546.22142  20608953.289    20608949.816
  21085041.881   -15821331.05544 -12310206.01242  21085043.960    21085041.595
  20964052.250     1531038.55744   1193892.87842  20964054.162    20964052.415
  22720189.860    -6322856.64543  -4919557.62142  22720192.181    22720190.456
  21908839.408   -11688651.22243  -9098880.48442  21908842.026    21908840.292
  23310169.476    -2180149.14143  -1690839.54442  23310171.501    23310169.476
  23302177.961    -1467497.62453  -1107531.13252  23302179.742    23302179.602
 04  5 18 17 47 30.0000000  0  8G22G21G18G 6G29G26G16G15
  23338428.272    -6459360.57143  -4656330.51542  23338429.390    23338428.754
  20604422.556      850279.18644    685001.04042  20604424.349    20604420.872
  21073879.648   -15879988.72144 -12355913.23242  21073881.771    21073879.390
  20974888.467     1587983.19744   1238265.26342  20974890.387    20974888.640
  22722920.525    -6308506.62143  -4908375.78642  22722922.899    22722921.150
  21905316.975   -11707161.42743  -9113303.97642  21905319.558    21905317.850
  23306286.106    -2200556.86943  -1706741.65642  23306288.116    23306286.039
  23287042.541    -1547031.27643  -1169505.35542  23287044.983    23287045.192
 04  5 18 17 48  0.0000000  0  8G22G21G18G 6G29G26G16G15
  23319953.558    -6556445.30743  -4731980.83042  23319954.641    23319954.177
  20599939.250      826719.24144    666642.64742  20599941.088    20599937.550
  21062798.423   -15938220.66643 -12401288.72542  21062800.558    21062798.165
  20985808.826     1645370.09444   1282982.27242  20985810.763    20985809.007
  22725759.472    -6293587.44343  -4896750.45542  22725761.853    22725760.191
  21901919.466   -11725014.74243  -9127215.63142  21901922.016    21901920.365
  23302508.411    -2220407.77643  -1722209.88942  23302510.125    23302508.503
  23271924.643    -1626476.79643  -1231410.85842  23271927.091    23271927.433
 04  5 18 17 48 30.0000000  0  8G22G21G18G 6G29G26G16G15
  23301521.938    -6653303.89643  -4807454.94142  23301523.057    23301522.437
  20595500.042      803391.22744    648464.97742  20595501.909    20595498.313
  21051796.980   -15996033.67044 -12446337.76642  21051799.118    21051796.621
  20996811.788     1703190.57544   1328037.12942  20996813.716    20996811.957
  22728705.184    -6278107.11643  -4884687.85842  22728707.550    22728705.958
  21898645.828   -11742217.85443  -9140620.62142  21898648.308    21898646.726
  23298835.260    -2239709.23843  -1737250.01842  23298837.197    23298835.839
  23256822.044    -1705841.77043  -1293253.58542  23256824.420    23256824.675
 04  5 18 17 49  0.0000000  0  8G22G21G18G 6G29G26G16G15
  23283134.552    -6749930.26543  -4882748.09242  23283135.738    23283134.931
  20591105.960      780300.33544    630472.08442  20591107.835    20591104.234
  21040876.205   -16053422.37344 -12491056.19042  21040878.411    21040875.798
  21007897.902     1761448.51044   1373432.86842  21007899.896    21007898.111
  22731758.576    -6262061.00843  -4872184.40042  22731760.886    22731759.372
  21895497.026   -11758764.71543  -9153514.25942  21895499.496    21895498.049
  23295267.773    -2258456.32943  -1751858.15642  23295269.739    23295268.686
  23241735.503    -1785121.18043  -1355029.65242  23241737.914    23241738.300
 04  5 18 17 49 30.0000000  0  8G22G21G18G 6G29G26G16G15
  23264791.216    -6846324.79043  -4957860.60442  23264792.380    23264791.510
  20586756.734      757444.86744    612662.63042  20586758.614    20586754.962
  21030035.869   -16110388.19343 -12535445.08142  21030038.072    21030035.518
  21019066.769     1820140.86844   1419167.11442  21019068.763    21019066.960
  22734919.190    -6245451.76543  -4859242.14042  22734921.422    22734919.898
  21892473.000   -11774656.32143  -9165897.30842  21892475.430    21892473.967
  23291805.509    -2276650.84243  -1766035.67342  23291807.371    23291806.085
  23226665.070    -1864316.84743  -1416740.46742  23226667.452    23226667.856
 04  5 18 17 50  0.0000000  0  8G22G21G18G 6G29G26G16G15
  23246492.325    -6942485.72143  -5032791.09942  23246493.480    23246492.700
  20582452.424      734825.33544    595037.02842  20582454.268    20582450.636
  21019276.221   -16166929.99643 -12579503.58042  21019278.404    21019276.009
  21030318.206     1879267.02944   1465239.38342  21030320.188    21030318.324
  22738187.146    -6228279.28243  -4845860.98442  22738189.341    22738187.671
  21889573.940   -11789891.27343  -9177768.68142  21889576.431    21889574.808
  23288449.060    -2294292.12043  -1779782.15642  23288450.740    23288448.795
  23211610.382    -1943428.23643  -1478385.58342  23211612.821    23211613.240
 04  5 18 17 50 30.0000000  0  8G22G21G18G 6G29G26G16G15
  23228238.262    -7038411.69943  -5107538.47542  23228239.459    23228238.466
  20578192.909      712441.81744    577595.34142  20578194.787    20578191.267
  21008597.415   -16223047.36744 -12623231.35942  21008599.566    21008597.272
  21041651.860     1938825.82044   1511648.78442  21041653.886    21041652.023
  22741562.020    -6210544.28543  -4832041.49942  22741564.280    22741562.541
  21886799.914   -11804468.64643  -9189127.65742  21886802.449    21886800.779
  23285196.699    -2311380.36753  -1793097.70752  23285198.577    23285196.942
  23196572.147    -2022455.24043  -1539964.92642  23196574.452    23196574.848
 04  5 18 17 51  0.0000000  0  8G22G21G18G 6G29G26G16G15
  23210029.572    -7134097.33443  -5182098.58542  23210030.854    23210029.947
  20573979.205      690298.52844    560340.83142  20573981.049    20573977.520
  20998000.337   -16278735.63144 -12666624.76042  20998002.456    20998000.150
  21053068.388     1998819.94844   1558397.38942  21053070.405    21053068.601
  22745044.539    -6192243.06643  -4817780.81642  22745046.962    22745045.242
  21884152.071   -11818383.65143  -9199970.49842  21884154.538    21884152.834
  23282051.355    -2327911.70643  -1805979.24742  23282053.169    23282051.103
  23181550.556    -2101393.78843  -1601475.36742  23181552.824    23181553.395
 04  5 18 17 51 30.0000000  0  8G22G21G18G 6G29G26G16G15
  23191865.764    -7229545.67443  -5256473.76442  23191867.195    23191866.520
  20569810.368      668390.78144    543269.85942  20569812.204    20569808.582
  20987484.016   -16333998.87544 -12709686.98142  20987486.147    20987483.795
  21064566.706     2059244.02944   1605481.03942  21064568.700    21064566.926
  22748633.981    -6173380.81043  -4803082.95542  22748636.387    22748634.671
  21881629.434   -11831639.80343  -9210299.96442  21881631.910    21881630.208
  23279010.933    -2343890.33143  -1818430.14842  23279012.819    23279010.598
  23166545.353    -2180248.08743  -1662920.20942  23166547.428    23166547.882
 04  5 18 17 52  0.0000000  0  8G22G21G18G 6G29G26G16G15
  23173748.622    -7324752.18043  -5330660.54742  23173749.843    23173749.220
  20565686.894      646722.27344    526385.32242  20565688.751    20565685.249
  20977049.412   -16388833.17144 -12752414.95142  20977051.511    20977049.182
  21076147.285     2120100.11243   1652901.31042  21076149.199    21076147.494
  22752330.653    -6153954.86843  -4787945.87942  22752332.930    22752331.320
  21879233.019   -11844232.86643  -9220112.72542  21879235.518    21879233.825
  23276075.809    -2359313.06343  -1830447.83942  23276077.758    23276075.935
  23151556.105    -2259014.84243  -1724296.80842  23151558.291    23151558.745
 04  5 18 17 52 30.0000000  0  8G22G21G18G 6G29G26G16G15
  23155677.422    -7419717.06643  -5404659.02542  23155678.553    23155677.872
  20561608.693      625291.29144    509685.86842  20561610.568    20561607.151
  20966696.085   -16443239.62844 -12794809.54342  20966698.210    20966695.950
  21087809.544     2181385.36944   1700655.99942  21087811.420    21087809.792
  22756134.181    -6133967.55843  -4772371.35742  22756136.462    22756134.788
  21876962.602   -11856163.94343  -9229409.66642  21876965.059    21876963.330
  23273246.332    -2374181.73143  -1842033.81642  23273248.500    23273246.664
  23136583.867    -2337695.62243  -1785606.41742  23136585.947    23136586.305
 04  5 18 17 53  0.0000000  0  8G22G21G18G 6G29G26G16G15
  23137652.214    -7514438.64543  -5478467.92942  23137653.386    23137652.803
  20557575.894      604098.54844    493172.04442  20557577.775    20557574.261
  20956424.595   -16497216.87044 -12836869.68342  20956426.640    20956424.381
  21099553.271     2243099.06844   1748744.53542  21099555.179    21099553.616
  22760044.620    -6113418.79943  -4756359.34942  22760046.874    22760045.113
  21874818.333   -11867431.66443  -9238189.70742  21874820.805    21874819.116
  23270522.303    -2388495.75543  -1853187.61242  23270524.443    23270522.657
  23121627.864    -2416289.53243  -1846848.30842  23121630.208    23121630.564
 04  5 18 17 53 30.0000000  0  8G22G21G18G 6G29G26G16G15
  23119673.969    -7608914.68043  -5552085.49242  23119675.157    23119674.537
  20553588.556      583144.94744    476844.56442  20553590.449    20553586.869
  20946234.851   -16550764.22844 -12878594.85142  20946236.882    20946234.548
  21111378.532     2305240.78644   1797166.60142  21111380.417    21111378.879
  22764061.698    -6092308.81943  -4739910.02942  22764063.997    22764062.244
  21872800.783   -11878034.46643  -9246451.62542  21872803.148    21872801.403
  23267904.457    -2402254.58643  -1863908.77242  23267906.254    23267904.450
  23106688.545    -2494795.85543  -1908022.01342  23106690.894    23106691.300
 04  5 18 17 54  0.0000000  0  8G22G21G18G 6G29G26G16G15
  23101742.651    -7703144.49243  -5625511.19742  23101743.798    23101743.118
  20549646.658      562430.23144    460703.24642  20549648.571    20549645.099
  20936126.870   -16603881.75943 -12919985.08742  20936128.881    20936126.515
  21123284.804     2367808.63643   1845920.71042  21123286.733    21123285.280
  22768185.372    -6070638.66943  -4723024.20742  22768187.658    22768185.990
  21870909.627   -11887972.36643  -9254195.43442  21870912.082    21870910.203
  23265391.728    -2415458.96943  -1874197.92342  23265393.480    23265391.596
  23091765.759    -2573215.13943  -1969127.88242  23091768.102    23091768.469
 04  5 18 17 54 30.0000000  0  8G22G21G18G 6G29G26G16G15
  23083858.622    -7797125.86043  -5698743.32142  23083859.728    23083858.889
  20545750.511      541955.47244    444748.89442  20545752.409    20545748.845
  20926100.928   -16656568.13344 -12961039.35342  20926102.926    20926100.561
  21135272.185     2430802.50543   1895006.78842  21135274.107    21135272.699
  22772415.746    -6048408.40343  -4705701.94642  22772418.004    22772416.324
  21869145.391   -11897243.57643  -9261419.73342  21869147.856    21869145.877
  23262984.513    -2428108.19043  -1884054.49842  23262986.221    23262984.588
  23076859.719    -2651545.95843  -2030164.80342  23076862.089    23076862.432
 04  5 18 17 55  0.0000000  0  8G22G21G18G 6G29G26G16G15
  23066021.958    -7890857.71743  -5771781.01942  23066023.092    23066022.156
  20541899.861      521720.59244    428981.46342  20541901.808    20541898.278
  20916157.268   -16708822.64744 -13001757.11442  20916159.271    20916156.768
  21147340.295     2494220.93244   1944423.68042  21147342.256    21147340.907
  22776752.473    -6025618.44643  -4687943.54642  22776754.833    22776753.219
  21867508.261   -11905847.65243  -9268124.20442  21867510.641    21867508.566
  23260683.085    -2440202.27643  -1893478.46642  23260684.899    23260683.235
  23061970.841    -2729788.34543  -2091132.82242  23061972.940    23061973.164
 04  5 18 17 55 30.0000000  0  8G22G21G18G 6G29G26G16G15
  23048233.117    -7984338.23343  -5844622.85042  23048234.265    23048233.202
  20538095.098      501726.06244    413401.31342  20538096.995    20538093.409
  20906295.847   -16760644.55744 -13042137.78142  20906297.888    20906295.295
  21159489.156     2558063.04243   1994170.73142  21159491.085    21159489.716
  22781195.637    -6002269.58843  -4669749.64842  22781198.044    22781196.541
  21865998.012   -11913783.73443  -9274308.13942  21866000.515    21865998.475
  23258487.190    -2451741.17643  -1902469.78242  23258489.008    23258487.626
  23047098.745    -2807941.64743  -2152031.41142  23047100.626    23047101.079
 04  5 18 17 56  0.0000000  0  8G22G21G18G 6G29G26G16G15
  23030492.568    -8077565.48643  -5917267.32942  23030493.729    23030492.470
  20534336.181      481972.85144    398009.20442  20534338.049    20534334.483
  20896516.824   -16812033.24344 -13082180.86642  20896518.861    20896516.310
  21171718.310     2622327.93443   2044247.21242  21171720.276    21171718.982
  22785744.953    -5978361.95543  -4651120.32442  22785747.437    22785745.909
  21864615.059   -11921050.58343  -9279970.59742  21864617.624    21864615.671
  23256397.136    -2462724.65143  -1911028.33742  23256398.914    23256397.653
  23032243.822    -2886005.42343  -2212860.28042  23032245.543    23032245.825
 04  5 18 17 56 30.0000000  0  8G22G21G18G 6G29G26G16G15
  23012800.647    -8170537.11643  -5989712.66442  23012801.758    23012800.507
  20530623.350      462461.95344    382805.91642  20530625.243    20530621.631
  20886820.716   -16862986.93144 -13121884.99342  20886822.729    20886820.050
  21184028.052     2687015.88143   2094653.34642  21184029.966    21184028.692
  22790400.865    -5953894.84743  -4632055.07142  22790403.334    22790401.855
  21863359.839   -11927646.46243  -9285110.22942  21863362.388    21863360.573
  23254412.997    -2473151.81543  -1919153.39042  23254414.700    23254413.270
  23017405.852    -2963978.34143  -2273618.29542  23017407.511    23017407.881
 04  5 18 17 57  0.0000000  0  8G22G21G18G 6G29G26G16G15
  22995156.491    -8263257.56843  -6061962.26942  22995157.661    22995156.192
  20526955.623      443187.94744    367787.21442  20526957.484    20526953.914
  20877206.288   -16913510.75044 -13161254.15842  20877208.331    20877205.653
  21196416.936     2752119.38943   2145383.29742  21196418.805    21196417.492
  22795162.158    -5928875.19343  -4612559.25342  22795164.499    22795162.897
  21862231.289   -11933576.53543  -9289731.04442  21862233.794    21862232.183
  23252533.706    -2483028.61043  -1926849.67542  23252535.444    23252533.913
  23002584.418    -3041865.87243  -2334309.81642  23002586.040    23002586.456
 04  5 18 17 57 30.0000000  0  8G22G21G18G 6G29G26G16G15
  22977562.201    -8355714.49243  -6134006.49342  22977563.491    22977562.092
  20523335.094      424162.01444    352961.82342  20523336.957    20523333.345
  20867675.733   -16963593.58744 -13200279.68942  20867677.791    20867675.215
  21208886.765     2817648.33943   2196444.76342  21208888.617    21208887.289
  22800030.114    -5903292.89743  -4592625.01542  22800032.563    22800031.019
  21861231.643   -11938829.50343  -9293824.26242  21861234.100    21861232.700
  23250760.839    -2492344.23343  -1934108.60342  23250762.625    23250761.159
  22987781.229    -3119656.99743  -2394926.19942  22987782.858    22987783.331
 04  5 18 17 58  0.0000000  0  8G22G21G18G 6G29G26G16G15
  22960016.366    -8447918.40443  -6205853.58642  22960017.485    22960016.191
  20519759.532      405372.41244    338320.58642  20519761.384    20519757.803
  20858227.010   -17013246.88044 -13238970.51842  20858229.062    20858226.454
  21221435.084     2883589.78543   2247827.64542  21221436.978    21221435.568
  22805003.080    -5877160.43043  -4572262.04442  22805005.418    22805003.825
  21860358.827   -11943416.49643  -9297398.52442  21860361.249    21860359.856
  23249092.754    -2501110.88943  -1940939.75242  23249094.678    23249092.775
  22972994.177    -3197362.90443  -2455476.19042  22972995.874    22972996.343
 04  5 18 17 58 30.0000000  0  8G22G21G18G 6G29G26G16G15
  22942520.437    -8539859.65243  -6277496.01942  22942521.609    22942520.244
  20516230.569      386827.72044    323870.18042  20516232.435    20516228.849
  20848861.649   -17062461.95344 -13277319.88642  20848863.727    20848861.106
  21234063.242     2949950.76343   2299537.43842  21234065.161    21234063.693
  22810082.088    -5850470.19943  -4551464.46642  22810084.308    22810082.868
  21859614.326   -11947328.68243  -9300446.97142  21859616.768    21859615.340
  23247530.293    -2509320.42343  -1947336.86342  23247532.271    23247530.645
  22958225.236    -3274975.01543  -2515953.07542  22958226.891    22958227.128
 04  5 18 17 59  0.0000000  0  8G22G21G18G 6G29G26G16G15
  22925073.895    -8631541.78443  -6348936.52942  22925075.019    22925073.552
  20512747.308      368523.08444    309606.83342  20512749.174    20512745.601
  20839578.894   -17111243.14844 -13315331.16442  20839580.970    20839578.335
  21246769.945     3016724.78943   2351569.08942  21246771.949    21246770.450
  22815266.014    -5823228.18443  -4530236.92942  22815268.239    22815266.906
  21858997.408   -11950570.62443  -9302973.14542  21858999.899    21858998.326
  23246073.189    -2516978.23943  -1953303.96242  23246075.209    23246073.564
  22943472.958    -3352498.42143  -2576360.88242  22943474.786    22943474.775
 04  5 18 17 59 30.0000000  0  8G22G21G18G 6G29G26G16G15
  22907677.910    -8722958.08043  -6420169.89542  22907679.001    22907677.470
  20509310.919      350464.78344    295535.44242  20509312.796    20509309.217
  20830379.833   -17159584.70344 -13352999.86742  20830381.907    20830379.191
  21259556.054     3083916.22043   2403925.99142  21259558.092    21259556.614
  22820555.865    -5795429.55743  -4508575.67342  22820558.083    22820556.719
  21858509.286   -11953136.20043  -9304972.28742  21858511.685    21858509.959
  23244721.991    -2524078.85043  -1958836.94442  23244723.922    23244722.203
  22928738.660    -3429927.01143  -2636694.81442  22928740.598    22928740.412
 04  5 18 18  0  0.0000000  0  8G22G21G18G 6G29G26G16G15
  22890331.824    -8814111.52343  -6491198.45842  22890332.949    22890331.492
  20505920.647      332648.89344    281652.93742  20505922.526    20505918.943
  20821263.597   -17207490.57744 -13390329.08342  20821265.708    20821262.961
  21272420.494     3151519.41643   2456603.75342  21272422.531    21272421.127
  22825950.739    -5767079.54543  -4486484.77542  22825952.963    22825951.615
  21858148.936   -11955029.43643  -9306447.53842  21858151.396    21858149.625
  23243475.927    -2530627.19643  -1963939.56142  23243477.805    23243476.047
  22914021.527    -3507265.18643  -2696958.21342  22914023.530    22914023.307
 04  5 18 18  0 30.0000000  0  8G22G21G18G 6G29G26G16G15
  22873036.872    -8904997.36043  -6562018.48542  22873037.909    22873036.551
  20502577.179      315078.82844    267961.98142  20502579.075    20502575.459
  20812231.035   -17254956.61744 -13427315.56042  20812233.169    20812230.443
  21285363.766     3219536.62043   2509604.11642  21285365.767    21285364.360
  22831450.869    -5738175.75043  -4463962.34642  22831453.172    22831451.772
  21857917.375   -11956246.62943  -9307395.99442  21857919.848    21857917.999
  23242335.447    -2536620.10443  -1968609.41542  23242337.348    23242335.747
  22899322.599    -3584509.05143  -2757148.12542  22899324.458    22899324.231
 04  5 18 18  1  0.0000000  0  8G22G21G18G 6G29G26G16G15
  22855791.816    -8995619.53443  -6632633.05242  22855792.923    22855791.783
  20499279.478      297749.43644    254458.56942  20499281.393    20499277.758
  20803281.334   -17301987.66044 -13463963.08242  20803283.448    20803280.721
  21298384.604     3287961.18843   2562921.89342  21298386.519    21298385.184
  22837055.416    -5708724.29343  -4441013.16942  22837057.717    22837056.014
  21857813.501   -11956792.57443  -9307821.41142  21857816.011    21857814.114
  23241299.642    -2542063.13443  -1972850.72242  23241301.514    23241299.883
  22884640.659    -3661663.37143  -2817268.29942  22884642.372    22884642.322
 04  5 18 18  1 30.0000000  0  8G22G21G18G 6G29G26G16G15
  22838598.384    -9085971.98043  -6703037.44242  22838599.375    22838598.140
  20496028.605      280666.11944    241146.89942  20496030.541    20496026.885
  20794415.302   -17348578.91044 -13500267.90542  20794417.439    20794414.622
  21311483.572     3356796.68043   2616559.87542  21311485.464    21311484.237
  22842764.857    -5678721.09443  -4417634.05942  22842767.247    22842765.410
  21857838.350   -11956662.04143  -9307719.70042  21857840.802    21857839.003
  23240369.358    -2546951.81043  -1976660.12542  23240371.202    23240369.748
  22869976.457    -3738723.00143  -2877314.71242  22869978.294    22869978.398
 04  5 18 18  2  0.0000000  0  8G22G21G18G 6G29G26G16G15
  22821456.758    -9176050.80243  -6773228.64342  22821457.868    22821456.482
  20492825.094      263831.35144    228028.90942  20492826.999    20492823.406
  20785633.479   -17394727.56144 -13536227.85042  20785635.599    20785632.786
  21324660.860     3426044.00943   2670518.77142  21324662.827    21324661.679
  22848579.505    -5648164.94343  -4393824.08842  22848581.952    22848579.997
  21857992.259   -11955852.47843  -9307088.85742  21857994.756    21857993.161
  23239545.060    -2551284.16643  -1980036.00942  23239546.901    23239545.361
  22855331.147    -3815685.25643  -2937285.26942  22855333.048    22855333.015
 04  5 18 18  2 30.0000000  0  8G22G21G18G 6G29G26G16G15
  22804366.039    -9265862.89243  -6843211.99942  22804367.084    22804365.601
  20489667.429      247237.58044    215098.70342  20489669.335    20489665.698
  20776934.326   -17440441.46744 -13571849.03542  20776936.457    20776933.624
  21337914.803     3495693.67443   2724791.17742  21337916.740    21337915.681
  22854497.774    -5617064.87443  -4369590.26642  22854500.225    22854498.046
  21858274.096   -11954371.63543  -9305934.95342  21858276.481    21858274.995
  23238824.843    -2555068.71743  -1982985.05042  23238826.708    23238825.114
  22840702.356    -3892558.19143  -2997186.14442  22840704.589    22840704.584
 04  5 18 18  3  0.0000000  0  8G22G21G18G 6G29G26G16G15
  22787327.446    -9355400.98243  -6912981.81842  22787328.568    22787326.972
  20486556.655      230890.86244    202361.01142  20486558.590    20486555.023
  20768319.235   -17485714.27844 -13607126.51442  20768321.324    20768318.421
  21351246.228     3565750.55343   2779380.89842  21351248.168    21351247.146
  22860520.364    -5585415.77143  -4344928.63842  22860522.792    22860520.601
  21858684.901   -11952213.23943  -9304253.09442  21858687.211    21858685.602
  23238210.134    -2558299.93043  -1985502.89342  23238211.919    23238210.147
  22826092.205    -3969335.32743  -3057012.38542  22826094.387    22826094.348
 04  5 18 18  3 30.0000000  0  8G22G21G18G 6G29G26G16G15
  22770341.360    -9444663.17943  -6982536.68242  22770342.477    22770340.819
  20483493.193      214792.07944    189816.50942  20483495.075    20483491.497
  20759788.102   -17530545.12644 -13642059.59842  20759790.216    20759787.378
  21364654.985     3636213.66943   2834287.15642  21364656.916    21364655.899
  22866647.328    -5553218.04243  -4319839.51142  22866649.786    22866647.577
  21859224.493   -11949376.59443  -9302042.72142  21859226.861    21859225.406
  23237700.551    -2560977.74443  -1987589.53542  23237702.386    23237700.469
  22811500.202    -4046015.63343  -3116763.23042  22811502.419    22811502.427
 04  5 18 18  4  0.0000000  0  8G22G21G18G 6G29G26G16G15
  22753407.774    -9533649.30443  -7051876.43642  22753408.925    22753407.168
  20480476.771      198940.84044    177464.90342  20480478.656    20480475.048
  20751341.051   -17574934.65044 -13676648.80342  20751343.114    20751340.295
  21378140.644     3707080.72743   2889508.17342  21378142.526    21378141.563
  22872878.329    -5520473.91543  -4294324.59842  22872880.726    22872878.615
  21859893.335   -11945862.31943  -9299304.32542  21859895.620    21859894.133
  23237296.007    -2563103.76243  -1989246.19842  23237297.916    23237296.155
  22796926.713    -4122599.67943  -3176439.05042  22796928.700    22796928.799
 04  5 18 18  4 30.0000000  0  8G22G21G18G 6G29G26G16G15
  22736526.243    -9622362.58843  -7121003.56742  22736527.322    22736525.418
  20477506.655      183332.90144    165302.88242  20477508.551    20477504.939
  20742977.124   -17618887.26744 -13710897.56142  20742979.157    20742976.356
  21391701.945     3778345.68043   2945039.24242  21391703.839    21391702.802
  22879212.141    -5487188.97943  -4268388.30442  22879214.503    22879212.705
  21860690.187   -11941675.05643  -9296041.52342  21860692.409    21860690.976
  23236995.601    -2564682.93243  -1990476.71042  23236997.484    23236995.618
  22782370.870    -4199091.56143  -3236043.04242  22782372.796    22782372.907
 04  5 18 18  5  0.0000000  0  8G22G21G18G 6G29G26G16G15
  22719698.360    -9710793.29343  -7189910.50142  22719699.428    22719697.519
  20474584.532      167976.70344    153337.01942  20474586.424    20474582.766
  20734698.059   -17662394.02944 -13744798.89942  20734700.088    20734697.288
  21405340.302     3850015.54243   3000885.83642  21405342.223    21405341.088
  22885650.426    -5453355.93243  -4242024.90642  22885652.741    22885651.005
  21861616.625   -11936806.22243  -9292247.62642  21861618.955    21861617.472
  23236800.631    -2565707.45743  -1991275.05442  23236802.579    23236800.538
  22767834.183    -4275482.86943  -3295568.69542  22767836.020    22767835.967
 04  5 18 18  5 30.0000000  0  8G22G21G18G 6G29G26G16G15
  22702922.871    -9798948.38243  -7258602.67142  22702923.983    22702922.159
  20471708.811      152864.78144    141561.50442  20471710.701    20471707.089
  20726502.307   -17705462.94644 -13778359.06542  20726504.341    20726501.539
  21419053.922     3922080.70643   3057040.44142  21419055.836    21419054.675
  22892191.430    -5418983.76843  -4215241.39142  22892193.662    22892191.930
  21862671.464   -11931263.81643  -9287928.86342  21862673.745    21862672.223
  23236709.590    -2566186.13743  -1991648.09042  23236711.454    23236709.678
  22753314.978    -4351781.15343  -3355021.78142  22753316.863    22753316.958
 04  5 18 18  6  0.0000000  0  8G22G21G18G 6G29G26G16G15
  22686201.269    -9886820.41043  -7327074.26042  22686202.364    22686200.678
  20468880.824      138003.47444    129981.27642  20468882.726    20468879.057
  20718391.117   -17748087.33944 -13811572.84442  20718393.156    20718390.392
  21432843.633     3994546.02343   3113506.86242  21432845.584    21432844.380
  22898835.613    -5384067.55843  -4188033.95142  22898837.961    22898836.426
  21863855.564   -11925041.72243  -9283080.46342  21863857.936    21863856.236
  23236723.463    -2566113.15643  -1991591.20542  23236725.225    23236723.565
  22738814.866    -4427979.98543  -3414397.39642  22738816.833    22738816.777
 04  5 18 18  6 30.0000000  0  8G22G21G18G 6G29G26G16G15
  22669533.381    -9974410.23743  -7395325.99842  22669534.444    22669532.785
  20466100.182      123391.09444    118595.01742  20466102.111    20466098.417
  20710364.061   -17790269.35644 -13844441.91042  20710366.121    20710363.413
  21446708.881     4067407.97643   3170282.34542  21446710.845    21446709.623
  22905582.823    -5348610.55943  -4160405.13642  22905585.110    22905583.700
  21865168.535   -11918141.99343  -9277704.04542  21865170.942    21865169.190
  23236841.927    -2565491.31243  -1991106.66042  23236843.677    23236841.864
  22724333.241    -4504081.15243  -3473696.93442  22724335.291    22724334.988
 04  5 18 18  7  0.0000000  0  8G22G21G18G 6G29G26G16G15
  22652919.174   -10061717.56343  -7463357.56442  22652920.268    22652918.603
  20463366.701      109026.68944    107401.98342  20463368.634    20463364.974
  20702421.120   -17832010.07044 -13876967.10542  20702423.122    20702420.352
  21460649.213     4140663.95343   3227364.87042  21460651.139    21460649.856
  22912432.520    -5312614.87743  -4132356.54242  22912434.767    22912433.409
  21866610.343   -11910565.48443  -9271800.27742  21866612.693    21866611.015
  23237064.257    -2564322.26243  -1990195.73442  23237066.283    23237064.389
  22709869.925    -4580085.38643  -3532920.95942  22709871.898    22709871.628
 04  5 18 18  7 30.0000000  0  8G22G21G18G 6G29G26G16G15
  22636359.560   -10148737.56543  -7531165.25942  22636360.603    22636359.112
  20460681.275       94914.77244     96405.68842  20460683.231    20460679.518
  20694562.879   -17873305.14444 -13909145.04842  20694564.900    20694562.098
  21474664.766     4214316.32743   3284756.27042  21474666.769    21474665.478
  22919385.309    -5276078.04643  -4103886.29942  22919387.418    22919386.275
  21868181.336   -11902308.66443  -9265366.38642  21868183.740    21868182.180
  23237391.330    -2562603.00143  -1988856.05742  23237393.347    23237391.648
  22695425.981    -4655988.50543  -3592066.20942  22695427.906    22695427.698
 04  5 18 18  8  0.0000000  0  8G22G21G18G 6G29G26G16G15
  22619854.356   -10235472.56843  -7598750.85042  22619855.360    22619853.802
  20458043.283       81051.95144     85603.49242  20458045.202    20458041.510
  20686788.848   -17914157.94044 -13940978.35642  20686790.883    20686788.022
  21488754.907     4288359.99843   3342452.57042  21488756.855    21488755.629
  22926440.115    -5239004.84143  -4074998.07642  22926442.227    22926441.133
  21869881.311   -11893375.10943  -9258405.16842  21869883.671    21869882.163
  23237822.270    -2560337.72043  -1987090.92642  23237824.302    23237822.810
  22681000.740    -4731793.75243  -3651135.11642  22681002.456    22681002.259
 04  5 18 18  8 30.0000000  0  8G22G21G18G 6G29G26G16G15
  22603403.535   -10321921.51143  -7666113.52642  22603404.558    22603402.972
  20455452.702       67438.49044     74995.60842  20455454.618    20455450.983
  20679098.933   -17954568.66944 -13972467.20542  20679100.959    20679098.050
  21502919.215     4362793.39043   3400452.54842  21502921.161    21502919.918
  22933596.604    -5201396.58543  -4045692.95742  22933598.776    22933597.650
  21871710.165   -11883765.06643  -9250916.83142  21871712.454    21871710.892
  23238356.990    -2557527.19543  -1984900.92242  23238359.220    23238357.636
  22666594.289    -4807500.56843  -3710127.38342  22666595.953    22666595.453
 04  5 18 18  9  0.0000000  0  8G22G21G18G 6G29G26G16G15
  22587007.633   -10408082.07843  -7733251.49942  22587008.667    22587007.122
  20452909.865       54075.78444     64583.11442  20452911.774    20452908.107
  20671493.422   -17994535.80744 -14003610.39142  20671495.484    20671492.525
  21517157.524     4437615.91943   3458755.75742  21517159.506    21517158.235
  22940854.999    -5163253.28643  -4015970.90042  22940857.231    22940855.941
  21873667.806   -11873477.67843  -9242900.67442  21873670.076    21873668.463
  23238995.904    -2554171.08043  -1982285.80042  23238997.792    23238996.076
  22652206.640    -4883107.64243  -3769041.95242  22652208.250    22652207.807
 04  5 18 18  9 30.0000000  0  8G22G21G18G 6G29G26G16G15
  22570667.195   -10493951.40343  -7800162.54542  22570668.281    22570666.616
  20450415.103       40965.70544     54367.47042  20450416.991    20450413.353
  20663972.575   -18034057.89144 -14034406.78542  20663974.638    20663971.733
  21531469.897     4512827.75643   3517362.31442  21531471.907    21531470.632
  22948215.268    -5124574.82043  -3985831.82542  22948217.496    22948216.169
  21875754.646   -11862511.36043  -9234355.48942  21875756.978    21875755.296
  23239738.640    -2550268.65643  -1979244.95442  23239740.481    23239738.677
  22637838.384    -4958612.96643  -3827877.21742  22637839.970    22637839.681
 04  5 18 18 10  0.0000000  0  8G22G21G18G 6G29G26G16G15
  22554381.856   -10579531.40343  -7866848.15142  22554382.919    22554381.087
  20447967.931       28105.56144     44346.58942  20447969.809    20447966.198
  20656535.861   -18073137.76844 -14064858.59342  20656537.905    20656535.102
  21545855.464     4588424.16743   3576268.53642  21545857.437    21545856.248
  22955676.798    -5085365.51243  -3955279.11042  22955678.923    22955677.352
  21877969.955   -11850869.49943  -9225283.90842  21877972.380    21877970.683
  23240584.519    -2545823.67743  -1975781.36442  23240586.465    23240584.657
  22623488.938    -5034019.18943  -3886635.23942  22623490.707    22623490.494
 04  5 18 18 10 30.0000000  0  8G22G21G18G 6G29G26G16G15
  22538152.023   -10664819.25443  -7933306.11142  22538153.083    22538151.143
  20445568.706       15497.61244     34522.21342  20445570.637    20445566.983
  20649183.673   -18111773.49844 -14094964.32142  20649185.753    20649182.920
  21560314.276     4664405.60343   3635474.79542  21560316.220    21560315.019
  22963239.175    -5045624.74943  -3924312.28642  22963241.351    22963239.733
  21880314.282   -11838550.44943  -9215684.64942  21880316.579    21880314.894
  23241533.887    -2540835.13543  -1971894.25842  23241535.832    23241533.884
  22609158.894    -5109324.23743  -3945314.42242  22609160.653    22609160.262
 04  5 18 18 11  0.0000000  0  8G22G21G18G 6G29G26G16G15
  22521978.367   -10749812.32843  -7999534.37042  22521979.431    22521977.464
  20443217.716        3143.51144     24895.64642  20443219.665    20443216.063
  20641916.295   -18149963.78144 -14124722.95142  20641918.334    20641915.503
  21574846.356     4740771.81743   3694980.86842  21574848.238    21574847.073
  22970902.717    -5005352.47843  -3892931.28742  22970904.928    22970903.401
  21882787.632   -11825553.18243  -9205556.91142  21882789.968    21882788.271
  23242586.725    -2535302.52243  -1967583.16742  23242588.579    23242586.832
  22594848.418    -5184526.15043  -4003913.24642  22594850.273    22594849.810
 04  5 18 18 11 30.0000000  0  8G22G21G18G 6G29G26G16G15
  22505860.686   -10834510.87243  -8065533.11942  22505861.801    22505859.894
  20440914.993       -8957.62044     15466.19942  20440916.879    20440913.278
  20634733.543   -18187709.60744 -14154135.25542  20634735.573    20634732.649
  21589451.053     4817519.85143   3754784.46442  21589452.913    21589451.853
  22978666.901    -4964551.53443  -3861138.33742  22978669.149    22978667.518
  21885389.670   -11811879.30843  -9194901.94542  21885392.018    21885390.276
  23243742.688    -2529227.92443  -1962849.74642  23243744.630    23243742.630
  22580557.362    -5259625.73443  -4062432.36942  22580559.333    22580558.663
 04  5 18 18 12  0.0000000  0  8G22G21G18G 6G29G26G16G15
  22489799.644   -10918911.80043  -8131299.94942  22489800.741    22489798.757
  20438660.772      -20803.65644      6235.52842  20438662.646    20438659.055
  20627635.607   -18225009.08144 -14183199.74542  20627637.640    20627634.756
  21604128.479     4894649.97343   3814885.79342  21604130.388    21604129.328
  22986531.756    -4923221.20043  -3828932.91342  22986533.959    22986532.497
  21888120.742   -11797527.24443  -9183718.51642  21888123.197    21888121.337
  23245002.052    -2522610.48543  -1957693.31542  23245003.989    23245001.805
  22566286.153    -5334620.73043  -4120869.98142  22566288.218    22566287.517
 04  5 18 18 12 30.0000000  0  8G22G21G18G 6G29G26G16G15
  22473794.839   -11003017.75843  -8196836.94942  22473795.878    22473793.805
  20436454.482      -32397.68644     -2798.77342  20436456.328    20436452.781
  20620621.928   -18261865.98944 -14211919.38242  20620623.928    20620621.060
  21618877.663     4972156.95643   3875280.77842  21618879.550    21618878.493
  22994496.260    -4881366.70643  -3796319.02042  22994498.505    22994497.180
  21890980.143   -11782500.99543  -9172009.74542  21890982.616    21890980.802
  23246363.693    -2515454.67143  -1952117.38642  23246365.633    23246363.624
  22552034.302    -5409514.51443  -4179228.72542  22552036.170    22552035.576
 04  5 18 18 13  0.0000000  0  8G22G21G18G 6G29G26G16G15
  22457846.523   -11086825.93143  -8262141.89942  22457847.617    22457845.497
  20434296.549      -43737.84944    -11635.25642  20434298.381    20434294.850
  20613692.849   -18298278.72244 -14240292.90942  20613694.819    20613691.899
  21633698.503     5050040.86543   3935969.46742  21633700.434    21633699.362
  23002560.800    -4838987.76743  -3763296.48342  23002562.980    23002561.640
  21893967.964   -11766799.40343  -9159774.74542  21893970.488    21893968.742
  23247827.906    -2507759.76943  -1946121.42242  23247829.771    23247827.815
  22537801.988    -5484305.25743  -4237507.15242  22537803.763    22537803.399
 04  5 18 18 13 30.0000000  0  8G22G21G18G 6G29G26G16G15
  22441955.656   -11170331.89843  -8327211.38442  22441956.743    22441954.641
  20432187.653      -54820.26944    -20270.90142  20432189.498    20432185.911
  20606848.896   -18334243.74044 -14268317.56742  20606850.880    20606847.974
  21648591.394     5128303.27643   3996953.09742  21648593.373    21648592.236
  23010725.509    -4796082.41043  -3729863.74442  23010727.743    23010726.184
  21897084.971   -11750419.55443  -9147011.22442  21897087.514    21897085.734
  23249395.141    -2499523.54143  -1939703.59242  23249397.090    23249395.215
  22523590.070    -5558989.08543  -4295702.26142  22523591.953    22523591.640
 04  5 18 18 14  0.0000000  0  8G22G21G18G 6G29G26G16G15
  22426121.903   -11253538.81343  -8392047.84342  22426122.933    22426120.784
  20430127.023      -65649.00844    -28708.87442  20430128.860    20430125.214
  20600089.309   -18369765.61044 -14295996.92142  20600091.307    20600088.382
  21663555.099     5206938.29243   4058227.06742  21663557.117    21663556.060
  23018989.141    -4752656.42843  -3696025.32842  23018991.435    23018990.008
  21900330.055   -11733366.27143  -9133722.94942  21900332.548    21900330.815
  23251064.664    -2490751.02843  -1932867.91342  23251066.538    23251064.770
  22509397.897    -5633570.01343  -4353817.21842  22509399.689    22509399.199
 04  5 18 18 14 30.0000000  0  8G22G21G18G 6G29G26G16G15
  22410345.446   -11336444.38543  -8456649.50142  22410346.500    22410344.361
  20428114.899      -76222.41944    -36947.88642  20428116.768    20428113.164
  20593414.260   -18404842.83544 -14323329.80442  20593416.270    20593413.358
  21678589.727     5285945.51943   4119791.06642  21678591.625    21678590.739
  23027351.839    -4708710.15143  -3661781.48242  23027354.193    23027352.591
  21903703.549   -11715638.75143  -9119909.29042  21903705.910    21903704.196
  23252835.986    -2481442.20143  -1925614.31942  23252837.949    23252836.388
  22495225.532    -5708045.89243  -4411850.32442  22495227.391    22495226.713
 04  5 18 18 15  0.0000000  0  8G22G21G18G 6G29G26G16G15
  22394627.114   -11419045.28543  -8521013.73642  22394628.093    22394625.880
  20426152.039      -86537.64844    -44985.72442  20426153.880    20426150.208
  20586824.318   -18439473.17244 -14350314.45642  20586826.298    20586823.376
  21693695.218     5365325.47443   4181645.50042  21693697.110    21693696.381
  23035813.776    -4664242.75643  -3627131.57442  23035816.098    23035814.337
  21907205.700   -11697235.26543  -9105568.90542  21907208.056    21907206.242
  23254709.772    -2471595.83143  -1917941.88042  23254711.685    23254710.077
  22481073.710    -5782414.31143  -4469799.69842  22481075.509    22481074.854
 04  5 18 18 15 30.0000000  0  8G22G21G18G 6G29G26G16G15
  22378966.171   -11501343.45943  -8585142.08342  22378967.253    22378964.952
  20424237.722      -96597.41744    -52824.49542  20424239.591    20424235.880
  20580318.812   -18473659.74744 -14376953.31642  20580320.792    20580317.901
  21708870.879     5445073.49943   4243786.74842  21708872.730    21708872.002
  23044373.916    -4619258.61943  -3592078.99942  23044376.294    23044374.434
  21910835.743   -11678159.30043  -9090704.51842  21910838.037    21910836.236
  23256685.012    -2461215.82443  -1909853.60542  23256687.018    23256685.275
  22466941.746    -5856677.74643  -4527667.25242  22466943.452    22466942.916
 04  5 18 18 16  0.0000000  0  8G22G21G18G 6G29G26G16G15
  22363363.785   -11583334.84043  -8649031.37542  22363364.819    22363362.421
  20422372.617     -106398.46144    -60461.66442  20422374.534    20422370.813
  20573898.341   -18507399.47344 -14403243.98542  20573900.335    20573897.394
  21724116.829     5525191.01243   4306215.91242  21724118.659    21724117.900
  23053032.646    -4573756.59943  -3556622.89742  23053035.013    23053033.205
  21914594.029   -11658408.67543  -9075314.40942  21914596.449    21914594.633
  23258762.312    -2450300.28843  -1901348.02342  23258764.145    23258762.494
  22452830.545    -5930832.63443  -4585450.21842  22452832.192    22452831.675
 04  5 18 18 16 30.0000000  0  8G22G21G18G 6G29G26G16G15
  22347819.190   -11665021.27043  -8712683.04742  22347820.329    22347817.908
  20420556.258     -115943.40444    -67899.27242  20420558.169    20420554.432
  20567562.206   -18540695.88744 -14429189.21742  20567564.217    20567561.270
  21739432.087     5605673.20043   4368929.23042  21739433.980    21739433.188
  23061789.258    -4527740.76843  -3520766.41942  23061791.631    23061789.840
  21918480.099   -11637986.89743  -9059401.33342  21918482.487    21918480.708
  23260940.650    -2438853.27343  -1892428.26842  23260942.511    23260940.806
  22438739.423    -6004881.61043  -4643150.64242  22438741.133    22438740.727
 04  5 18 18 17  0.0000000  0  8G22G21G18G 6G29G26G16G15
  22332333.312   -11746399.79543  -8776094.78842  22332334.396    22332332.066
  20418789.147     -125229.83544    -75135.45042  20418791.029    20418787.245
  20561310.977   -18573546.37244 -14454786.97142  20561312.965    20561309.992
  21754816.971     5686520.51943   4431927.05742  21754818.805    21754818.026
  23070643.529    -4481210.81443  -3484509.32942  23070645.854    23070644.297
  21922494.208   -11616892.40343  -9042964.06342  21922496.534    21922494.787
  23263220.325    -2426873.89843  -1883093.69142  23263222.161    23263220.427
  22424668.968    -6078821.81743  -4700766.33542  22424670.724    22424670.328
 04  5 18 18 17 30.0000000  0  8G22G21G18G 6G29G26G16G15
  22316906.235   -11827469.16343  -8839265.64442  22316907.383    22316905.043
  20417071.291     -134256.94744    -82169.56042  20417073.228    20417069.428
  20555144.648   -18605950.88444 -14480037.21442  20555146.644    20555143.602
  21770270.921     5767731.43643   4495208.21042  21770272.776    21770272.074
  23079595.493    -4434168.11543  -3447852.69842  23079597.746    23079596.363
  21926636.390   -11595125.82043  -9026003.08642  21926638.606    21926636.868
  23265601.017    -2414362.87443  -1873344.89042  23265602.843    23265601.216
  22410619.423    -6152652.86643  -4758296.98642  22410621.232    22410620.559
 04  5 18 18 18  0.0000000  0  8G22G21G18G 6G29G26G16G15
  22301538.229   -11908228.83143  -8902195.14842  22301539.269    22301536.874
  20415402.722     -143025.11644    -89001.89342  20415404.649    20415400.901
  20549062.927   -18637910.39744 -14504940.70242  20549064.917    20549061.892
  21785793.614     5849303.67843   4558770.91542  21785795.450    21785794.800
  23088644.608    -4386614.80943  -3410798.19142  23088646.865    23088645.460
  21930906.004   -11572688.28143  -9008519.28442  21930908.313    21930906.561
  23268082.536    -2401321.99943  -1863183.21642  23268084.305    23268082.859
  22396590.457    -6226374.76943  -4815742.57142  22396592.342    22396591.700
 04  5 18 18 18 30.0000000  0  8G22G21G18G 6G29G26G16G15
  22286228.943   -11988679.09843  -8964883.57742  22286230.022    22286227.498
  20413783.421     -151534.80944    -95632.81842  20413785.322    20413781.490
  20543065.557   -18669426.37644 -14529498.57942  20543067.561    20543064.589
  21801384.587     5931234.30343   4622612.88042  21801386.416    21801385.693
  23097790.427    -4338553.70043  -3373347.98942  23097792.597    23097791.209
  21935303.024   -11549581.68143  -8990514.13542  21935305.393    21935303.602
  23270664.421    -2387753.75543  -1852610.61642  23270665.954    23270664.917
  22382582.210    -6299988.26743  -4873103.66642  22382584.047    22382583.446
 04  5 18 18 19  0.0000000  0  8G22G21G18G 6G29G26G16G15
  22270979.651   -12068814.48643  -9027326.64042  22270980.678    22270978.134
  20412214.149     -159781.44644   -102058.77442  20412216.047    20412212.215
  20537153.500   -18700494.41744 -14553707.41542  20537155.501    20537152.576
  21817044.106     6013525.51843   4686735.82842  21817045.955    21817045.223
  23107033.405    -4289982.23143  -3335500.10242  23107035.568    23107034.062
  21939827.989   -11525802.84543  -8971985.18342  21939830.409    21939828.607
  23273347.499    -2373655.06543  -1841624.62442  23273349.133    23273347.781
  22368595.392    -6373488.67343  -4930376.64042  22368597.289    22368596.582
 04  5 18 18 19 30.0000000  0  8G22G21G18G 6G29G26G16G15
  22255789.236   -12148640.22543  -9089528.43842  22255790.252    22255787.810
  20410693.810     -167770.78644   -108284.22642  20410695.690    20410691.943
  20531325.496   -18731120.85344 -14577572.14442  20531327.468    20531324.480
  21832770.871     6096169.87743   4751133.95042  21832772.737    21832771.968
  23116371.943    -4240908.10143  -3297260.52942  23116374.125    23116372.549
  21944479.684   -11501358.52343  -8952937.65042  21944482.103    21944480.147
  23276129.928    -2359033.06243  -1830230.84142  23276131.792    23276130.206
  22354629.289    -6446881.45043  -4987565.76942  22354631.179    22354630.359
 04  5 18 18 20  0.0000000  0  8G22G21G18G 6G29G26G16G15
  22240659.063   -12228149.57943  -9151483.67842  22240660.053    22240657.669
  20409223.682     -175496.58344   -114304.32142  20409225.523    20409221.786
  20525582.592   -18761299.93044 -14601088.28542  20525584.561    20525581.533
  21848565.693     6179171.31243   4815810.31442  21848567.554    21848566.703
  23125806.873    -4191327.11443  -3258626.03142  23125809.092    23125807.481
  21949258.812   -11476243.56043  -8933367.55342  21949261.227    21949259.406
  23279012.753    -2343883.34143  -1818425.88842  23279014.691    23279013.036
  22340684.738    -6520160.20043  -5044666.05742  22340686.764    22340685.746
 04  5 18 18 20 30.0000000  0  8G22G21G18G 6G29G26G16G15
  22225588.554   -12307345.24943  -9213194.49842  22225589.565    22225587.032
  20407803.017     -182962.07244   -120121.57842  20407804.873    20407801.134
  20519924.037   -18791035.68244 -14624258.97442  20519926.014    20519922.971
  21864427.198     6262524.24543   4880760.57642  21864429.194    21864428.296
  23135337.308    -4141244.74143  -3219600.82942  23135339.483    23135337.863
  21954164.787   -11450462.78043  -8913278.63342  21954167.158    21954165.443
  23281995.150    -2328210.88043  -1806213.60142  23281997.107    23281995.554
  22326761.241    -6593328.31243  -5101680.12842  22326763.290    22326762.456
 04  5 18 18 21  0.0000000  0  8G22G21G18G 6G29G26G16G15
  22210578.443   -12386223.14543  -9274657.69442  22210579.461    22210576.887
  20406432.466     -190163.98444   -125733.45142  20406434.339    20406430.654
  20514350.410   -18820325.35344 -14647082.06542  20514352.399    20514349.368
  21880355.917     6346229.93643   4945985.70042  21880357.867    21880357.072
  23144963.108    -4090659.69243  -3180183.93742  23144965.386    23144963.863
  21959197.828   -11424014.03543  -8892669.21842  21959200.227    21959198.458
  23285077.509    -2312013.92743  -1793592.65142  23285079.337    23285077.917
  22312859.370    -6666382.29143  -5158605.24342  22312861.541    22312860.785
 04  5 18 18 21 30.0000000  0  8G22G21G18G 6G29G26G16G15
  22195628.293   -12464786.07343  -9335875.47642  22195629.344    22195626.744
  20405111.646     -197105.24844   -131142.22842  20405113.491    20405109.831
  20508860.932   -18849172.30243 -14669560.18342  20508862.940    20508859.949
  21896350.707     6430283.06443   5011481.56142  21896352.646    21896351.952
  23154683.928    -4039577.04843  -3140379.29142  23154686.134    23154684.636
  21964357.101   -11396901.65743  -8871542.69542  21964359.526    21964357.819
  23288258.488    -2295297.31743  -1780566.76542  23288260.593    23288259.072
  22298978.743    -6739324.82043  -5215443.53342  22298980.921    22298980.150
 04  5 18 18 22  0.0000000  0  8G22G21G18G 6G29G26G16G15
  22180739.084   -12543028.94643  -9396843.85942  22180740.132    22180737.684
  20403841.253     -203781.60744   -136344.58442  20403843.101    20403839.322
  20503456.471   -18877572.95544 -14691690.52842  20503458.449    20503455.463
  21912412.170     6514685.85343   5077249.88342  21912414.054    21912413.297
  23164499.701    -3987994.63443  -3100185.23042  23164501.915    23164500.586
  21969643.345   -11369122.66443  -8849896.72542  21969645.752    21969644.048
  23291538.943    -2278058.35543  -1767133.87742  23291540.975    23291539.534
  22285120.364    -6812151.68343  -5272191.69142  22285122.422    22285121.678
 04  5 18 18 22 30.0000000  0  8G22G21G18G 6G29G26G16G15
  22165910.111   -12620954.60543  -9457565.05942  22165911.196    22165909.015
  20402620.469     -210196.14644   -141342.91942  20402622.407    20402618.689
  20498136.195   -18905531.26344 -14713476.20042  20498138.179    20498135.092
  21928539.009     6599432.65943   5143286.27242  21928540.910    21928540.228
  23174409.470    -3935917.94843  -3059606.02542  23174411.846    23174410.481
  21975055.426   -11340681.65843  -8827734.90242  21975057.913    21975056.314
  23294918.182    -2260302.06943  -1753297.89242  23294920.166    23294918.803
  22271283.130    -6884866.24043  -5328852.35142  22271285.226    22271284.525
 04  5 18 18 23  0.0000000  0  8G22G21G18G 6G29G26G16G15
  22151142.546   -12698558.47243  -9518035.50442  22151143.588    22151141.461
  20401450.445     -216344.83144   -146134.09142  20401452.309    20401448.620
  20492900.651   -18933044.13944 -14734914.77842  20492902.628    20492899.543
  21944731.542     6684525.21043   5209592.06642  21944733.456    21944733.025
  23184413.692    -3883345.24543  -3018640.31242  23184416.124    23184414.728
  21980593.904   -11311576.19543  -8805055.32842  21980596.393    21980594.871
  23298396.000    -2242026.24743  -1739057.04542  23298397.983    23298396.453
  22257468.222    -6957464.10243  -5385422.07242  22257470.294    22257469.475
 04  5 18 18 23 30.0000000  0  8G22G21G18G 6G29G26G16G15
  22136435.918   -12775842.16043  -9578256.47842  22136436.953    22136434.697
  20400330.665     -222229.73344   -150719.73142  20400332.544    20400328.800
  20487749.396   -18960113.94743 -14756008.11042  20487751.370    20487748.303
  21960989.202     6769959.34143   5276164.04142  21960991.113    21960990.731
  23194511.625    -3830280.54243  -2977291.21042  23194514.109    23194512.555
  21986258.402   -11281809.75843  -8781860.70042  21986260.736    21986259.283
  23301971.786    -2223234.70543  -1724414.26742  23301973.954    23301972.187
  22243675.136    -7029947.10343  -5441902.28142  22243677.169    22243676.399
 04  5 18 18 24  0.0000000  0  8G22G21G18G 6G29G26G16G15
  22121790.495   -12852803.93443  -9638226.61642  22121791.488    22121789.254
  20399261.126     -227849.77144   -155098.97842  20399263.044    20399259.324
  20482682.527   -18986740.15143 -14776755.77742  20482684.503    20482681.484
  21977311.843     6855733.77043   5343001.18242  21977313.639    21977313.034
  23204702.828    -3776725.06143  -2935559.69842  23204705.211    23204703.829
  21992048.407   -11251382.56843  -8758151.20242  21992050.773    21992049.416
  23305645.656    -2203928.22243  -1709370.32942  23305647.759    23305646.075
  22229904.214    -7102314.14543  -5498292.16642  22229906.186    22229905.338
 04  5 18 18 24 30.0000000  0  8G22G21G18G 6G29G26G16G15
  22107206.485   -12929442.96643  -9697945.25842  22107207.474    22107205.170
  20398242.105     -233204.32244   -159271.35042  20398244.034    20398240.398
  20477700.069   -19012923.26144 -14797158.17742  20477702.028    20477699.027
  21993698.658     6941846.85143   5410102.19742  21993700.540    21993699.856
  23214987.329    -3722680.43443  -2893447.02342  23214989.681    23214988.240
  21997964.178   -11220295.62243  -8733927.60442  21997966.425    21997964.916
  23309417.503    -2184108.13743  -1693926.21242  23309419.315    23309417.527
  22216155.285    -7174564.53543  -5554591.13842  22216157.308    22216156.452
 04  5 18 18 25  0.0000000  0  8G22G21G18G 6G29G26G16G15
  22092684.197   -13005757.55543  -9757411.08342  22092685.198    22092682.756
  20397274.130     -238291.45944   -163235.35242  20397276.012    20397272.381
  20472801.951   -19038662.93044 -14817215.04142  20472803.899    20472800.914
  22010149.641     7028297.28743   5477466.08742  22010151.608    22010150.877
  23225364.620    -3668147.94343  -2850954.19242  23225367.023    23225365.519
  22004005.252   -11188549.66643  -8709190.49542  22004007.539    22004005.886
  23313286.872    -2163775.25143  -1678082.42742  23313288.588    23313286.744
  22202428.926    -7246696.98143  -5610798.19042  22202430.924    22202430.090
 04  5 18 18 25 30.0000000  0  8G22G21G18G 6G29G26G16G15
  22078223.969   -13081746.46543  -9816623.15142  22078224.931    22078222.441
  20396356.899     -243111.69644   -166991.38242  20396358.801    20396355.162
  20467988.263   -19063959.05543 -14836926.28842  20467990.199    20467987.220
  22026664.635     7115083.51043   5545091.62442  22026666.559    22026665.814
  23235834.320    -3613129.00743  -2808082.33042  23235836.645    23235835.220
  22010171.633   -11156145.23643  -8683940.30242  22010173.964    22010172.184
  23317253.484    -2142930.58443  -1661839.92942  23317255.242    23317253.460
  22188725.026    -7318710.59643  -5666912.62442  22188726.985    22188726.318
 04  5 18 18 26  0.0000000  0  8G22G21G18G 6G29G26G16G15
  22063825.568   -13157410.28643  -9875581.88842  22063826.550    22063824.168
  20395490.239     -247665.73044   -170539.97642  20395492.141    20395488.533
  20463258.591   -19088813.29444 -14856293.20142  20463260.543    20463257.571
  22043242.751     7202202.21843   5612976.23542  22043244.634    22043244.001
  23246396.110    -3557626.81643  -2764833.89742  23246398.440    23246396.870
  22016462.823   -11123085.08343  -8658179.14142  22016465.203    22016463.284
  23321316.917    -2121577.11643  -1645200.93342  23321318.556    23321316.968
  22175043.924    -7390606.03343  -5722934.99642  22175045.720    22175044.977
 04  5 18 18 26 30.0000000  0  8G22G21G18G 6G29G26G16G15
  22049489.704   -13232745.18143  -9934284.31742  22049490.681    22049488.365
  20394675.016     -251949.86144   -173878.25742  20394676.905    20394673.246
  20458613.632   -19113222.73244 -14875313.52042  20458615.594    20458612.540
  22059884.331     7289654.75343   5681120.98542  22059886.235    22059885.658
  23257049.980    -3501640.17743  -2721207.96442  23257052.440    23257050.767
  22022879.082   -11089367.26643  -8631905.51442  22022881.515    22022879.516
  23325477.462    -2099713.14243  -1628164.13442  23325479.096    23325477.788
  22161385.728    -7462379.88243  -5778862.63542  22161387.437    22161386.846
 04  5 18 18 27  0.0000000  0  8G22G21G18G 6G29G26G16G15
  22035215.660   -13307755.70043  -9992733.99042  22035216.591    22035214.178
  20393910.164     -255969.28944   -177010.28242  20393912.035    20393908.362
  20454052.110   -19137193.41244 -14893991.94342  20454054.091    20454051.083
  22076588.247     7377433.55843   5749519.98142  22076590.086    22076589.451
  23267794.646    -3445176.66143  -2677210.44842  23267797.177    23267795.385
  22029419.227   -11054998.69943  -8605124.82942  22029421.648    22029419.619
  23329733.677    -2077346.11343  -1610735.30042  23329735.548    23329733.935
  22147749.665    -7534037.19843  -5834699.44942  22147751.394    22147750.772
 04  5 18 18 27 30.0000000  0  8G22G21G18G 6G29G26G16G15
  22021004.190   -13382436.53743 -10050926.75242  22021005.229    22021002.800
  20393196.684     -259718.74644   -179931.93642  20393198.534    20393194.876
  20449574.930   -19160721.21644 -14912325.27642  20449576.891    20449573.867
  22093354.556     7465541.16843   5818175.18242  22093356.491    22093355.843
  23278630.664    -3388233.61543  -2632839.26442  23278633.248    23278631.230
  22036083.757   -11019975.90443  -8577834.34542  22036086.261    22036084.273
  23334086.482    -2054472.91843  -1592912.04542  23334088.201    23334086.713
  22134137.070    -7605572.56243  -5890441.27442  22134138.724    22134138.032
 04  5 18 18 28  0.0000000  0  9G22G21G18G 3G 6G29G26G16G15
  22006855.698   -13456787.97343 -10108862.85842  22006856.677    22006854.026
  20392534.394     -263199.15644   -182643.93742  20392536.212    20392532.601
  20445181.756   -19183807.40744 -14930314.49342  20445183.707    20445180.668
  24028646.480     -295432.18753   -194074.35952  24028648.263    24028649.747
  22110182.894     7553974.74143   5887084.36542  22110184.883    22110184.361
  23289557.349    -3330813.90443  -2588096.66542  23289559.982    23289557.860
  22042872.372   -10984301.38443  -8550036.02342  22042874.828    22042872.958
  23338534.975    -2031095.92643  -1574696.22842  23338536.810    23338535.286
  22120547.335    -7676986.54343  -5946088.46742  22120549.003    22120548.468
 04  5 18 18 28 30.0000000  0  9G22G21G18G 3G 6G29G26G16G15
  21992769.463   -13530811.61143 -10166543.53642  21992770.438    21992767.636
  20391923.028     -266412.06944   -185147.51042  20391924.838    20391921.146
  20440872.046   -19206454.94744 -14947961.90042  20440874.018    20440870.910
  24010307.583     -391802.79143   -269168.27342  24010309.550    24010310.015
  22127072.657     7642729.76643   5956244.03042  22127074.540    22127074.033
  23300573.861    -3272922.00143  -2542986.11642  23300576.423    23300574.438
  22049784.292   -10947978.98543  -8521732.84842  22049786.689    22049784.867
  23343078.751    -2007219.53143  -1556091.27642  23343080.585    23343078.980
  22106980.567    -7748281.16943  -6001642.67342  22106982.201    22106981.633
 04  5 18 18 29  0.0000000  0  8G22G21G18G 6G29G26G16G15
  21978747.783   -13604495.11443 -10223959.15742  21978748.813    21978746.066
  20391364.756     -269346.00444   -187433.69142  20391366.584    20391362.842
  20436647.974   -19228652.62643 -14965258.76742  20436649.941    20436646.787
  22144025.194     7731815.59243   6025661.46742  22144027.137    22144026.637
  23311681.941    -3214548.56043  -2497500.34942  23311684.432    23311682.603
  22056821.523   -10910998.54643  -8492916.91042  22056823.916    22056822.075
  23347719.009    -1982833.60043  -1537089.26742  23347720.954    23347719.610
  22093438.434    -7819444.24743  -6057094.37142  22093440.152    22093439.752
 04  5 18 18 29 30.0000000  0  8G22G21G18G 6G29G26G16G15
  21964788.039   -13677853.72143 -10281121.62042  21964789.053    21964786.300
  20390856.556     -272016.16344   -189514.33042  20390858.425    20390854.717
  20432506.323   -19250417.08143 -14982218.05442  20432508.283    20432505.062
  22161037.381     7821214.85943   6095323.14542  22161039.389    22161038.838
  23322878.284    -3155711.08843  -2451652.98742  23322880.708    23322879.201
  22063980.663   -10873377.09443  -8463601.50842  22063983.139    22063981.165
  23352453.385    -1957955.55543  -1517703.87142  23352455.173    23352453.792
  22079918.926    -7890490.72743  -6112455.23842  22079920.551    22079919.980
 04  5 18 18 30  0.0000000  0  8G22G21G18G 6G29G26G16G15
  21950891.585   -13750880.35843 -10338025.40242  21950892.588    21950889.768
  20390399.886     -274416.09344   -191384.40642  20390401.720    20390398.011
  20428448.244   -19271742.45743 -14998835.20642  20428450.193    20428447.008
  22178109.961     7910931.43543   6165232.07142  22178111.971    22178111.463
  23334163.804    -3096405.53243  -2405440.91242  23334166.081    23334164.871
  22071262.649   -10835110.23143  -8433783.16842  22071265.163    22071263.039
  23357282.000    -1932581.01543  -1497931.57942  23357283.922    23357282.637
  22066422.507    -7961413.92743  -6167719.99242  22066424.176    22066423.721
 04  5 18 18 30 30.0000000  0  9G22G21G18G 3G 6G29G26G16G15
  21937058.722   -13823571.94943 -10394668.10542  21937059.802    21937056.985
  20389995.251     -276542.43944   -193041.29942  20389997.099    20389993.375
  20424474.083   -19292626.56943 -15015108.51342  20424476.048    20424472.853
  23937348.775     -245245.94653   -176798.23152  23937349.705    23937349.230
  22195242.917     8000965.89943   6235388.70242  22195244.896    22195244.403
  23345538.418    -3036631.42043  -2358863.69642  23345540.691    23345539.415
  22078667.585   -10796196.66943  -8403460.92042  22078670.097    22078667.979
  23362204.932    -1906709.31343  -1477771.78842  23362207.108    23362206.126
  22052950.364    -8032210.90143  -6222886.45242  22052952.031    22052951.287
 04  5 18 18 31  0.0000000  0  9G22G21G18G 3G 6G29G26G16G15
  21923289.451   -13895929.98943 -10451050.91342  21923290.489    21923287.639
  20389642.288     -278397.24044   -194486.59342  20389644.137    20389640.451
  20420583.309   -19313072.62543 -15031040.48242  20420585.258    20420582.055
  23919208.610     -340571.50353   -251077.81152  23919210.269    23919209.260
  22212435.699     8091313.77343   6305789.56742  22212437.570    22212437.015
  23357001.219    -2976393.15243  -2311924.82442  23357003.512    23357002.265
  22086194.897   -10756640.42743  -8372637.87442  22086197.454    22086195.269
  23367222.108    -1880344.64243  -1457227.87742  23367224.178    23367223.217
  22039501.677    -8102883.52343  -6277955.97842  22039503.360    22039502.829
 04  5 18 18 31 30.0000000  0  9G22G21G18G 3G 6G29G26G16G15
  21909583.985   -13967952.63943 -10507172.38442  21909585.010    21909582.023
  20389341.171     -279979.48444   -195719.50842  20389343.048    20389339.382
  20416776.065   -19333079.69343 -15046630.38342  20416778.015    20416774.831
  23901109.744     -435680.87743   -325188.94442  23901111.537    23901110.682
  22229687.963     8181974.17043   6376433.93842  22229689.836    22229689.297
  23368552.341    -2915691.83043  -2264625.11242  23368554.530    23368553.424
  22093844.340   -10716441.91843  -8341314.38542  22093846.932    22093844.802
  23372332.853    -1853487.45843  -1436300.24742  23372334.868    23372333.750
  22026077.131    -8173429.73043  -6332927.01042  22026078.859    22026078.250
 04  5 18 18 32  0.0000000  0  9G22G21G18G 3G 6G29G26G16G15
  21895942.908   -14039637.11743 -10563030.34242  21895943.890    21895940.819
  20389092.545     -281286.08444   -196737.63742  20389094.435    20389090.775
  20413052.654   -19352646.14343 -15061876.94442  20413054.631    20413051.457
  23883052.787     -530569.69143   -399128.19442  23883054.787    23883054.339
  22246999.586     8272947.21743   6447321.92442  22247001.484    22247001.081
  23380191.666    -2854527.09143  -2216964.30142  23380193.795    23380192.697
  22101616.225   -10675600.49143  -8309489.88742  22101618.758    22101616.762
  23377537.890     -250717.45453   -187388.61652  23377540.038    23377537.581
  22012677.115    -8243846.84843  -6387797.46442  22012678.968    22012678.168
 04  5 18 18 32 30.0000000  0  9G22G21G18G 3G 6G29G26G16G15
  21882365.256   -14110987.34043 -10618627.82642  21882366.307    21882363.252
  20388895.495     -282321.43744   -197544.40642  20388897.394    20388893.722
  20409412.136   -19371777.31143 -15076784.32742  20409414.112    20409410.900
  23865037.599     -625240.26843   -472897.38242  23865039.663    23865039.227
  22264369.406     8364226.27343   6518448.37242  22264371.331    22264370.940
  23391918.011    -2792905.89643  -2168947.81542  23391919.967    23391918.747
  22109509.160   -10634122.27943  -8277169.20742  22109511.746    22109509.955
  23382834.809     -222880.98243   -165697.89242  23382837.370    23382835.115
  21999300.901    -8314139.01343  -6442570.54042  21999302.805    21999302.086
 04  5 18 18 33  0.0000000  0  9G22G21G18G 3G 6G29G26G16G15
  21868852.441   -14181997.19843 -10673960.10742  21868853.457    21868850.473
  20388751.215     -283079.36044   -198134.98642  20388753.105    20388749.489
  20405855.315   -19390468.28943 -15091348.70342  20405857.291    20405854.134
  23847065.285     -719684.78543   -546490.44242  23847067.291    23847067.118
  22281798.246     8455814.66643   6589815.86442  22281800.175    22281799.655
  23403731.704    -2730824.76043  -2120572.94942  23403733.662    23403732.365
  22117524.108   -10592003.67143  -8244349.50942  22117526.641    22117524.969
  23388225.239     -194554.27343   -143625.27642  23388227.345    23388225.130
  21985949.670    -8384300.02443  -6497241.41542  21985951.577    21985950.964
 04  5 18 18 33 30.0000000  0  9G22G21G18G 3G 6G29G26G16G15
  21855404.183   -14252667.70443 -10729027.95342  21855405.201    21855402.326
  20388659.531     -283561.44044   -198510.63542  20388661.361    20388657.720
  20402381.855   -19408721.30443 -15105571.81042  20402383.822    20402380.662
  23829136.155     -813902.94143   -619907.14242  23829138.152    23829138.044
  22299285.056     8547708.52643   6661421.37142  22299287.012    22299286.551
  23415632.140    -2668287.65643  -2071842.76842  23415634.122    23415632.593
  22125660.168   -10549248.02843  -8211033.42642  22125662.647    22125661.148
  23393708.018     -165741.43343   -121173.81142  23393709.970    23393708.292
  21972623.031    -8454331.26143  -6551811.15942  21972625.000    21972624.451
 04  5 18 18 34  0.0000000  0  9G22G21G18G 3G 6G29G26G16G15
  21842019.812   -14323002.70843 -10783834.37342  21842020.800    21842017.896
  20388619.583     -283771.56544   -198674.36542  20388621.419    20388617.724
  20398990.703   -19426541.62243 -15119457.75542  20398992.665    20398989.571
  23811249.817     -907896.61343   -693148.90042  23811251.862    23811251.691
  22316828.833     8639901.33943   6733259.83642  22316830.725    22316830.345
  23427618.152    -2605301.07143  -2022762.32442  23427620.240    23427618.415
  22133916.495   -10505861.31743  -8177225.60642  22133918.854    22133917.436
  23399282.574     -136448.47443    -98348.17242  23399284.194    23399282.945
  21959320.592    -8524236.27143  -6606282.56242  21959322.560    21959321.778
 04  5 18 18 34 30.0000000  0  9G22G21G18G 3G 6G29G26G16G15
  21828700.963   -14392992.99043 -10838372.19242  21828701.946    21828699.046
  20388632.999     -283700.95744   -198619.34242  20388634.823    20388631.097
  20395683.548   -19443920.80643 -15132999.94742  20395685.479    20395682.391
  23793407.941    -1001654.95743   -766207.30242  23793410.100    23793409.801
  22334430.714     8732399.82543   6805336.47942  22334432.576    22334432.337
  23439690.801    -2541858.64943  -1973326.70642  23439692.946    23439691.110
  22142294.080   -10461836.85643  -8142920.84842  22142296.450    22142295.019
  23404949.332     -106668.85343    -75143.30642  23404951.020    23404949.847
  21946043.720    -8594006.02943  -6660648.55542  21946045.727    21946044.926
 04  5 18 18 35  0.0000000  0  9G22G21G18G 3G 6G29G26G16G15
  21815446.832   -14462643.94943 -10892645.59042  21815447.751    21815444.811
  20388698.826     -283354.90444   -198349.69142  20388700.675    20388696.972
  20392459.047   -19460865.74643 -15146203.77642  20392460.961    20392457.820
  23775610.195    -1095181.45043   -839085.00742  23775612.316    23775611.900
  22352089.180     8825195.57743   6877644.73442  22352090.991    22352090.882
  23451848.709    -2477968.58643  -1923542.25742  23451850.879    23451849.127
  22150791.451   -10417182.30943  -8108125.08942  22150793.854    22150792.420
  23410707.612      -76410.26543    -51565.21642  23410709.376    23410707.899
  21932791.791    -8663645.90043  -6714913.35342  21932793.716    21932792.796
 04  5 18 18 35 30.0000000  0  9G22G21G18G 3G 6G29G26G16G15
  21802257.304   -14531955.00643 -10946654.12342  21802258.254    21802255.342
  20388817.154     -282733.07044   -197865.14742  20388819.000    20388815.344
  20389317.130   -19477376.76143 -15159069.47742  20389319.004    20389315.839
  23757857.042    -1188473.86743   -911780.32942  23757859.008    23757858.853
  22369804.033     8918286.54643   6950183.06742  22369805.739    22369805.501
  23464091.317    -2413633.07943  -1873410.73242  23464093.464    23464091.898
  22159408.597   -10371899.25143  -8072839.59042  22159410.947    22159409.521
  23416556.138      -45674.51243    -27615.37742  23416558.120    23416556.501
  21919564.411    -8733155.18843  -6769076.38542  21919566.425    21919565.618
 04  5 18 18 36  0.0000000  0  9G22G21G18G 3G 6G29G26G16G15
  21789133.244   -14600922.70843 -11000395.12142  21789134.141    21789131.162
  20388988.599     -281832.10544   -197163.09042  20388990.417    20388986.807
  20386258.169   -19493451.76643 -15171595.43442  20386260.067    20386256.862
  23740149.727    -1281526.84143   -984289.06642  23740151.524    23740151.452
  22387574.942     9011673.56843   7022952.06942  22387576.730    22387576.553
  23476418.827    -2348851.24343  -1822931.41942  23476420.840    23476419.525
  22168145.416   -10325986.86743  -8037063.72242  22168147.765    22168146.310
  23422496.008      -14460.82143     -3293.11742  23422497.823    23422496.434
  21906362.818    -8802530.41543  -6823134.97542  21906364.773    21906363.970
 04  5 18 18 36 30.0000000  0  9G22G21G18G 3G 6G29G26G16G15
  21776074.061   -14669548.38343 -11053869.61642  21776075.021    21776071.942
  20389212.783     -280654.24044   -196245.26942  20389214.584    20389210.947
  20383281.540   -19509093.85843 -15183784.05742  20383283.478    20383280.226
  23722488.087    -1374340.17243  -1056611.05142  23722490.062    23722489.643
  22405401.427     9105352.22143   7095948.31642  22405403.208    22405403.172
  23488830.593    -2283627.73343  -1772107.93242  23488832.580    23488831.104
  22177001.473   -10279449.06943  -8000800.49242  22177003.764    22177001.940
  23428526.047       17226.38243     21398.14942  23428527.618    23428526.340
  21893186.291    -8871773.29543  -6877090.42042  21893188.258    21893187.543
 04  5 18 18 37  0.0000000  0  9G22G21G18G 3G 6G29G26G16G15
  21763080.069   -14737831.99743 -11107077.55042  21763080.997    21763077.915
  20389489.754     -279198.66344   -195111.05442  20389491.605    20389487.896
  20380387.221   -19524303.61843 -15195635.80242  20380389.179    20380385.939
  23704872.066    -1466911.99343  -1128744.85542  23704874.183    23704873.654
  22423283.047     9199320.27343   7169170.09042  22423284.810    22423284.736
  23501325.921    -2217964.67543  -1720941.94642  23501327.942    23501326.573
  22185975.933   -10232287.79943  -7964051.47442  22185978.357    22185976.519
  23434645.724       49385.42843     46457.10142  23434647.360    23434646.187
  21880035.257    -8940882.90143  -6930942.02842  21880037.223    21880036.444
 04  5 18 18 37 30.0000000  0  9G22G21G18G 3G 6G29G26G16G15
  21750152.297   -14805767.33343 -11160014.09542  21750153.247    21750150.128
  20389820.647     -277459.55144   -193755.89842  20389822.529    20389818.793
  20377576.089   -19539076.34443 -15207147.00342  20377578.060    20377574.787
  23687303.294    -1559234.47543  -1200684.38642  23687305.531    23687305.185
  22441220.247     9293581.14543   7242620.00342  22441222.042    22441222.144
  23513905.405    -2151858.97443  -1669431.02042  23513907.426    23513906.093
  22195069.813   -10184499.62743  -7926813.92742  22195072.258    22195070.326
  23440855.983       82019.60543     71886.26642  23440857.512    23440856.404
  21866910.540    -9009853.32343  -6984685.18242  21866912.585    21866911.803
 04  5 18 18 38  0.0000000  0  9G22G21G18G 3G 6G29G26G16G15
  21737289.831   -14873359.90343 -11212683.55342  21737290.751    21737287.682
  20390204.438     -275442.61644   -192184.26042  20390206.306    20390202.573
  20374846.743   -19553418.73743 -15218322.87642  20374848.744    20374845.514
  23669781.500    -1651311.40943  -1272432.57642  23669783.742    23669783.286
  22459211.673     9388126.26643   7316291.41542  22459213.395    22459213.557
  23526567.539    -2085319.13943  -1617581.85542  23526569.552    23526568.413
  22204281.361   -10136092.54043  -7889094.13342  22204283.780    22204281.810
  23447154.824      115120.39643     97679.03742  23447156.369    23447155.336
  21853811.431    -9078690.18043  -7038324.27042  21853813.494    21853812.507
 04  5 18 18 38 30.0000000  0  9G22G21G18G 3G 6G29G26G16G15
  21724492.532   -14940609.52043 -11265085.76742  21724493.465    21724490.524
  20390641.166     -273147.49944   -190395.85442  20390643.016    20390639.356
  20372199.173   -19567331.75443 -15229164.17142  20372201.153    20372197.925
  23652307.097    -1743140.40243  -1343987.58642  23652309.313    23652308.769
  22477256.871     9482953.53043   7390182.66442  22477258.609    22477258.774
  23539311.901    -2018347.30543  -1565396.03642  23539314.003    23539312.774
  22213610.379   -10087068.46843  -7850893.56942  22213612.770    22213610.801
  23453542.234      148685.93143    123833.92842  23453543.832    23453542.581
  21840737.736    -9147392.56043  -7091858.55142  21840739.825    21840738.777
 04  5 18 18 39  0.0000000  0  9G22G21G18G 3G 6G29G26G16G15
  21711761.730   -15007510.33843 -11317216.19742  21711762.659    21711759.633
  20391131.959     -270568.65944   -188386.36142  20391133.784    20391130.148
  20369634.189   -19580810.77943 -15239667.28942  20369636.133    20369632.934
  23634881.269    -1834713.80943  -1415343.42642  23634883.407    23634882.999
  22495356.319     9578066.01643   7464296.18742  22495358.084    22495358.140
  23552139.077    -1950940.72143  -1512871.47242  23552141.091    23552139.921
  22223057.327   -10037424.18043  -7812209.72342  22223059.738    22223057.942
  23460018.524      182719.56643    150353.56442  23460020.207    23460019.081
  21827690.798    -9215954.73243  -7145283.59942  21827692.844    21827691.772
 04  5 18 18 39 30.0000000  0  9G22G21G18G 3G 6G29G26G16G15
  21699097.138   -15074063.20443 -11369075.49742  21699098.054    21699094.928
  20391676.434     -267707.12744   -186156.59742  20391678.307    20391674.716
  20367151.380   -19593857.92143 -15249833.87642  20367153.338    20367150.114
  23617504.093    -1926030.86543  -1486499.52242  23617506.351    23617506.182
  22513509.333     9673459.90343   7538628.95742  22513511.090    22513511.192
  23565048.280    -1883102.92143  -1460010.90242  23565050.281    23565049.246
  22232621.579    -9987163.04043  -7773045.20842  22232624.007    22232622.262
  23466583.244      217217.55743    177235.05742  23466585.078    23466584.046
  21814670.371    -9284377.63843  -7198600.12042  21814672.367    21814671.295
 04  5 18 18 40  0.0000000  0  9G22G21G18G 3G 6G29G26G16G15
  21686498.296   -15140269.87443 -11420665.03542  21686499.238    21686496.159
  20392274.409     -264564.95544   -183708.15742  20392276.249    20392272.598
  20364750.209   -19606476.36643 -15259666.41542  20364752.134    20364748.886
  23600175.585    -2017091.59943  -1557455.86142  23600177.769    23600177.740
  22531714.786     9769130.80443   7613177.60842  22531716.734    22531716.937
  23578038.593    -1814838.64143  -1406817.97842  23578040.664    23578039.534
  22242302.494    -9936289.38543  -7733403.42642  22242304.976    22242303.332
  23473235.441      252175.27543    204474.74242  23473237.225    23473236.356
  21801676.084    -9352662.76343  -7251809.27042  21801678.041    21801676.976
 04  5 18 18 40 30.0000000  0  9G22G21G18G 3G 6G29G26G16G15
  21673965.717   -15206128.47243 -11471983.35042  21673966.684    21673963.620
  20392926.212     -261139.74744   -181039.16142  20392928.102    20392924.363
  20362430.691   -19618665.38543 -15269164.33742  20362432.644    20362429.339
  23582896.610    -2107892.22643  -1628209.51442  23582898.586    23582898.590
  22549973.065     9865078.10943   7687941.63442  22549974.934    22549975.296
  23591110.021    -1746148.78843  -1353293.45942  23591112.077    23591110.697
  22252099.844    -9884803.75643  -7693284.76742  22252102.350    22252100.740
  23479975.184      287592.46343    232072.50042  23479976.847    23479976.022
  21788708.468    -9420808.01243  -7304909.43642  21788710.384    21788709.378
 04  5 18 18 41  0.0000000  0  9G22G21G18G 3G 6G29G26G16G15
  21661499.804   -15271637.37843 -11523029.17642  21661500.711    21661497.683
  20393632.052     -257430.25644   -178148.64742  20393633.936    20393630.233
  20360193.025   -19630424.43443 -15278327.21342  20360194.997    20360191.633
  23565668.130    -2198428.95243  -1698757.53142  23565670.012    23565669.717
  22568283.652     9961300.64043   7762920.10242  22568285.466    22568285.977
  23604261.860    -1677034.43443  -1299438.17042  23604264.138    23604262.683
  22262013.540    -9832707.15143  -7652690.01842  22262015.977    22262014.431
  23486802.120      323467.91343    260027.36742  23486803.773    23486802.948
  21775767.808    -9488811.54943  -7357899.16342  21775769.678    21775768.669
 04  5 18 18 41 30.0000000  0  9G22G21G18G 3G 6G29G26G16G15
  21649099.918   -15336799.10243 -11573804.46342  21649100.848    21649097.796
  20394391.577     -253439.03544   -175038.60542  20394393.445    20394389.695
  20358036.507   -19641757.00343 -15287157.77042  20358038.480    20358035.064
  23548489.761    -2288702.53043  -1769100.48842  23548491.602    23548491.247
  22586645.879    10057793.37243   7838109.11842  22586647.620    22586648.064
  23617493.628    -1607500.63143  -1245255.99342  23617495.862    23617494.574
  22272042.663    -9780004.21043  -7611622.80242  22272045.043    22272043.532
  23493715.361      359796.81743    288335.49642  23493716.875    23493716.151
  21762853.706    -9556675.54543  -7410780.15642  21762855.485    21762854.449
 04  5 18 18 42  0.0000000  0  9G22G21G18G 3G 6G29G26G16G15
  21636767.108   -15401608.55743 -11624305.25742  21636768.013    21636764.813
  20395205.639     -249160.90644   -171705.00042  20395207.499    20395203.785
  20355961.730   -19652659.87643 -15295653.49142  20355963.694    20355960.311
  23531362.649    -2378706.08843  -1839233.08242  23531364.617    23531364.184
  22605059.787    10154558.49843   7913510.38742  22605061.512    22605061.910
  23630805.700    -1537545.65243  -1190745.66942  23630807.871    23630806.645
  22282187.428    -9726693.00643  -7570081.61542  22282189.919    22282188.218
  23500715.188      396581.18543    316998.55342  23500716.701    23500715.640
  21749967.146    -9624394.99143  -7463548.51342  21749968.913    21749967.825
 04  5 18 18 42 30.0000000  0  9G22G21G18G 3G 6G29G26G16G15
  21624500.606   -15466069.37243 -11674534.39442  21624501.520    21624498.206
  20396073.684     -244599.61944   -168150.75242  20396075.519    20396071.751
  20353967.769   -19663138.26243 -15303818.44842  20353969.716    20353966.323
  23514286.656    -2468441.38743  -1909156.63742  23514288.534    23514288.282
  22623524.079    10251589.55643   7989118.88242  22623525.958    22623526.410
  23644196.528    -1467175.65143  -1135911.92342  23644198.821    23644197.644
  22292446.809    -9672779.61943  -7528071.19342  22292449.355    22292447.503
  23507800.357      433814.66743    346011.61342  23507802.082    23507801.239
  21737107.457    -9691973.09043  -7516206.73542  21737109.172    21737108.118
 04  5 18 18 43  0.0000000  0  9G22G21G18G 3G 6G29G26G16G15
  21612300.832   -15530179.33343 -11724490.14542  21612301.797    21612298.404
  20396995.977     -239752.80644   -164374.01142  20396997.873    20396994.129
  20352054.958   -19673190.34343 -15311651.22242  20352056.887    20352053.469
  23497262.237    -2557904.04143  -1978867.73542  23497264.190    23497264.174
  22642039.348    10348886.40543   8064934.46942  22642041.077    22642041.542
  23657666.248    -1396391.03043  -1080755.13542  23657668.510    23657667.696
  22302820.762    -9618263.95843  -7485591.47442  22302823.325    22302821.362
  23514971.305      471497.28643    375374.64142  23514972.868    23514972.092
  21724275.271    -9759407.00643  -7568752.61242  21724276.907    21724275.735
 04  5 18 18 43 30.0000000  0  9G22G21G18G 3G 6G29G26G16G15
  21600168.073   -15593936.86943 -11774171.27342  21600169.071    21600165.691
  20397972.900     -234618.83244   -160373.51242  20397974.801    20397971.072
  20350223.216   -19682816.10743 -15319151.79942  20350225.140    20350221.736
  23480290.600    -2647090.69043  -2048363.77242  23480292.546    23480292.538
  22660604.851    10446447.82443   8140956.24442  22660606.578    22660606.906
  23671214.864    -1325193.31243  -1025276.44242  23671216.853    23671216.193
  22313309.224    -9563147.48943  -7442643.58042  22313311.704    22313309.752
  23522227.583      509627.80243    405086.63342  23522229.082    23522228.051
  21711470.813    -9826694.92143  -7621184.72642  21711472.437    21711471.242
 04  5 18 18 44  0.0000000  0  9G22G21G18G 3G 6G29G26G16G15
  21588101.985   -15657344.22843 -11823579.54542  21588102.954    21588099.672
  20399004.042     -229200.38644   -156151.35242  20399005.906    20399002.148
  20348471.949   -19692019.00643 -15326322.86942  20348473.890    20348470.423
  23463371.487    -2736001.67743  -2117644.99042  23463373.377    23463373.288
  22679219.535    10544268.90343   8217180.31442  22679221.344    22679221.758
  23684841.065    -1253587.35543   -969479.62842  23684843.073    23684842.267
  22323910.937    -9507434.80843  -7399231.13742  22323913.334    22323911.412
  23529567.691      548201.09653    435143.65352  23529569.486    23529568.494
  21698693.777    -9893838.99643  -7673504.76342  21698695.427    21698694.139
 04  5 18 18 44 30.0000000  0  9G22G21G18G 3G 6G29G26G16G15
  21576103.360   -15720397.09144 -11872711.57342  21576104.341    21576101.121
  20400090.131     -223492.94544   -151703.99542  20400091.998    20400088.238
  20346801.728   -19700795.90743 -15333161.99942  20346803.680    20346800.205
  23446505.853    -2824630.80943  -2186706.57442  23446507.835    23446507.617
  22697884.094    10642351.19243   8293607.94842  22697885.800    22697886.372
  23698545.010    -1181571.81843   -913363.66542  23698547.205    23698546.336
  22334626.415    -9451124.49843  -7355352.97542  22334628.764    22334626.905
  23536992.503      587218.87143    465547.08342  23536994.172    23536993.527
  21685944.862    -9960834.64443  -7725709.13142  21685946.564    21685945.231
 04  5 18 18 45  0.0000000  0  9G22G21G18G 3G 6G29G26G16G15
  21564171.957   -15783096.78843 -11921568.41142  21564172.951    21564169.690
  20401231.002     -217497.58044   -147032.28542  20401232.843    20401229.158
  20345212.022   -19709149.47243 -15339671.25542  20345213.962    20345210.535
  23429693.991    -2912977.50343  -2255548.06742  23429696.062    23429695.683
  22716597.523    10740691.01543   8370236.24342  22716599.262    22716600.009
  23712326.363    -1109150.62843   -856931.61342  23712328.471    23712327.708
  22345454.932    -9394220.18143  -7311011.96142  22345457.257    22345455.546
  23544501.330      626677.37343    496293.90742  23544503.054    23544502.355
  21673224.088   -10027682.72343  -7777798.51842  21673225.771    21673224.489
 04  5 18 18 45 30.0000000  0  9G22G21G18G 3G 6G29G26G16G15
  21552307.394   -15845444.87843 -11970151.26942  21552308.382    21552305.089
  20402426.365     -211215.93044   -142137.48842  20402428.200    20402424.566
  20343702.436   -19717082.35943 -15345852.71042  20343704.365    20343700.956
  23412935.745    -3001041.13343  -2324169.00242  23412937.928    23412937.808
  22735359.312    10839283.94543   8447061.76642  22735361.014    22735361.718
  23726184.181    -1036328.08243   -800186.80242  23726186.226    23726185.447
  22356395.682    -9336726.03643  -7266211.33942  22356398.008    22356396.283
  23552093.263      666572.41443    527380.88042  23552094.821    23552094.319
  21660531.200   -10094384.17943  -7829773.64242  21660532.913    21660531.761
 04  5 18 18 46  0.0000000  0  9G22G21G18G 3G 6G29G26G16G15
  21540510.692   -15907436.63243 -12018456.46242  21540511.667    21540508.297
  20403677.153     -204643.03544   -137015.74942  20403679.022    20403675.391
  20342273.602   -19724590.87243 -15351703.48142  20342275.529    20342272.166
  23396232.761    -3088814.92343  -2392564.09442  23396234.927    23396235.083
  22754169.722    10938132.16143   8524086.20542  22754171.397    22754172.092
  23740118.644     -963102.27343   -743127.76942  23740120.743    23740119.877
  22367448.969    -9278640.06043  -7220949.57742  22367451.275    22367449.713
  23559768.765      706905.89943    558809.50542  23559770.181    23559769.704
  21647867.264   -10160933.87943  -7881630.52642  21647868.937    21647867.792
 04  5 18 18 46 30.0000000  0  9G22G21G18G 3G 6G29G26G16G15
  21528781.127   -15969075.27443 -12066486.50342  21528782.109    21528778.811
  20404982.740     -197782.33044   -131669.74742  20404984.594    20404980.982
  20340924.535   -19731680.16743 -15357227.58942  20340926.476    20340923.138
  23379584.990    -3176300.49743  -2460734.60542  23379587.015    23379587.118
  22773027.431    11037229.62343   8601304.85442  22773029.194    22773029.906
  23754128.616     -889479.49043   -685759.44642  23754130.742    23754129.867
  22378613.874    -9219968.28243  -7175231.31842  22378616.193    22378614.659
  23567526.344      747671.91843    590575.13242  23567527.934    23567527.260
  21635231.542   -10227334.96343  -7933371.60442  21635233.190    21635232.079
 04  5 18 18 47  0.0000000  0  9G22G21G18G 3G 6G29G26G16G15
  21517119.177   -16030359.00343 -12114239.97842  21517120.138    21517116.918
  20406343.436     -190631.75444   -126097.87042  20406345.313    20406341.643
  20339655.408   -19738349.41043 -15362424.38542  20339657.355    20339653.948
  23362992.754    -3263493.80643  -2528677.37642  23362994.819    23362994.526
  22791932.554    11136575.50043   8678717.06242  22791934.199    22791935.044
  23768214.094     -815460.42043   -628082.27142  23768216.208    23768215.244
  22389890.222    -9160711.51743  -7129057.23242  22389892.496    22389891.026
  23575365.718      788869.46143    622677.06642  23575367.413    23575366.924
  21622624.631   -10293584.89243  -7984994.89642  21622626.226    21622625.112
 04  5 18 18 47 30.0000000  0  9G22G21G18G 3G 6G29G26G16G15
  21505525.134   -16091285.86444 -12161715.38642  21505526.086    21505522.888
  20407759.695     -183189.21544   -120298.49042  20407761.577    20407757.849
  20338466.424   -19744597.50943 -15367293.02142  20338468.374    20338464.991
  23346456.778    -3350390.85943  -2596389.32042  23346458.842    23346458.341
  22810884.647    11236169.47743   8756322.62242  22810886.312    22810887.274
  23782374.515     -741046.04243   -570097.09442  23782376.810    23782375.926
  22401277.495    -9100870.34043  -7082427.77042  22401279.894    22401278.516
  23583287.461      830498.05243    655114.86842  23583289.130    23583288.179
  21610046.864   -10359681.36343  -8036498.60942  21610048.499    21610047.341
 04  5 18 18 48  0.0000000  0  9G22G21G18G 3G 6G29G26G16G15
  21493998.961   -16151856.34844 -12208913.10142  21493999.899    21493996.649
  20409231.493     -175455.03244   -114271.85842  20409233.374    20409229.600
  20337357.218   -19750426.52943 -15371835.10542  20337359.148    20337355.762
  23329977.446    -3436990.20143  -2663869.27542  23329979.575    23329978.867
  22829883.494    11336008.16243   8834118.83742  22829885.094    22829886.092
  23796609.816     -666239.66343   -511806.45442  23796612.071    23796611.200
  22412775.439    -9040447.92943  -7035345.39642  22412777.865    22412776.538
  23591290.238      872554.42543    687886.03942  23591291.755    23591291.424
  21597498.272   -10425624.47743  -8087882.81642  21597499.911    21597498.792
 04  5 18 18 48 30.0000000  0  9G22G21G18G 3G 6G29G26G16G15
  21482539.713   -16212074.92944 -12255836.61042  21482540.659    21482537.346
  20410757.850     -167433.91444   -108021.64042  20410759.737    20410755.993
  20336326.628   -19755842.28343 -15376055.16242  20336328.565    20336325.157
  23313554.370    -3523294.26843  -2731119.16242  23313556.376    23313555.737
  22848927.460    11436084.56043   8912100.30742  22848929.158    22848929.963
  23810918.413     -591048.47943   -453215.96242  23810920.530    23810919.836
  22424382.869    -8979451.57743  -6987815.78442  22424385.219    22424383.682
  23599373.648                      720984.79552                  23599374.761
  21584978.045   -10491418.37643  -8139150.77142  21584979.749    21584978.502
 04  5 18 18 49  0.0000000  0  9G22G21G18G 3G 6G29G26G16G15
  21471149.041   -16271933.20544 -12302479.37242  21471149.950    21471146.570
  20412340.505     -159117.11944   -101541.02342  20412342.367    20412338.634
  20335376.090   -19760837.32543 -15379947.39242  20335378.025    20335374.607
  23297189.450    -3609292.40843  -2798130.64942  23297191.471    23297190.841
  22868017.754    11536404.30743   8990271.39142  22868019.477    22868020.199
  23825301.028     -515466.77143   -394321.16042  23825303.128    23825302.431
  22436100.323    -8917875.41143  -6939834.38142  22436102.766    22436101.187
  23607538.047                      754415.65652                  23607538.884
  21572487.947   -10557053.93943  -8190295.34042  21572489.630    21572488.441
 04  5 18 18 49 30.0000000  0  8G22G21G18G 3G 6G29G26G15
  21459826.235   -16331434.57444 -12348844.00842  21459827.157    21459823.739
  20413978.757     -150508.02244    -94832.63542  20413980.633    20413976.928
  20334504.738   -19765416.42743 -15383515.51442  20334506.655    20334503.216
  23280882.289    -3694986.29743  -2864905.04742  23280884.394    23280883.851
  22887153.312    11636961.33643   9068627.34142  22887154.979    22887155.583
  23839756.937     -439500.87343   -335126.98842  23839759.074    23839757.992
  22447927.078    -8855725.80043  -6891406.15042  22447929.437    22447927.931
  21560027.469   -10622534.21843  -8241318.90742  21560029.107    21560027.913
 04  5 18 18 50  0.0000000  0  8G22G21G18G 3G 6G29G26G15
  21448571.526   -16390578.73143 -12394930.30342  21448572.451    21448568.901
  20415672.646     -141605.95544    -87895.96242  20415674.526    20415670.941
  20333712.311   -19769580.38643 -15386760.15342  20333714.245    20333710.825
  23264633.532    -3780373.52943  -2931440.50242  23264635.615    23264635.229
  22906333.701    11737753.65643   9147166.66642  22906335.344    22906335.739
  23854285.582     -363153.19243   -275635.32442  23854287.635    23854286.309
  22459862.458    -8793005.10343  -6842532.89242  22459864.970    22459863.251
  21547596.695   -10687858.18443  -8292220.68542  21547598.367    21547597.174
 04  5 18 18 50 30.0000000  0  8G22G21G18G 3G 6G29G26G15
  21437385.077   -16449363.38243 -12440736.46042  21437386.005    21437382.509
  20417422.932     -132408.51244    -80729.12942  20417424.722    20417421.171
  20332999.041   -19773328.47443 -15389680.73142  20333000.962    20332997.598
  23248444.237    -3865449.72543  -2997733.59142  23248446.248    23248445.636
  22925558.566    11838780.69643   9225888.87342  22925560.312    22925560.580
  23868886.667     -286424.15543   -215846.55942  23868888.589    23868887.498
  22471906.339    -8729713.65043  -6793214.91442  22471908.822    22471907.246
  21535196.077   -10753023.23943  -8342998.62742  21535197.803    21535196.644
 04  5 18 18 51  0.0000000  0  8G22G21G18G 3G 6G29G26G15
  21426266.312   -16507792.55143 -12486265.62942  21426267.253    21426263.721
  20419228.710     -122919.49444    -73335.10042  20419230.498    20419226.846
  20332364.026   -19776665.74943 -15392281.19642  20332365.930    20332362.545
  23232313.659    -3950216.99643  -3063785.97042  23232315.710    23232314.694
  22944826.968    11940036.00243   9304788.96142  22944828.648    22944828.836
  23883558.915     -209320.59843   -155765.90142  23883560.850    23883559.756
  22484057.707    -8665858.17543  -6743457.44142  22484060.178    22484058.594
  21522825.132   -10818032.80743  -8393655.41142  21522826.856    21522825.620
 04  5 18 18 51 30.0000000  0  8G22G21G18G 3G 6G29G26G15
  21415216.188   -16565861.05043 -12531513.75242  21415217.138    21415213.641
  20421090.923     -113133.58144    -65709.72042  20421092.739    20421089.060
  20331807.908   -19779588.07443 -15394558.32642  20331809.854    20331806.403
  23216243.048    -4034667.73443  -3129591.67642  23216245.093    23216244.160
  22964139.390    12041522.36443   9383869.07442  22964141.035    22964141.222
  23898303.176     -131839.91843    -95391.39742  23898305.056    23898303.988
  22496316.931    -8601436.14843  -6693258.47042  22496319.357    22496317.619
  21510484.963   -10882880.85943  -8444186.34342  21510486.714    21510485.248
 04  5 18 18 52  0.0000000  0  8G22G21G18G 3G 6G29G26G15
  21404234.572   -16623569.52343 -12576481.32642  21404235.520    21404232.101
  20423009.490     -103051.33444    -57853.43142  20423011.358    20423007.638
  20331330.347   -19782097.63643 -15396513.82242  20331332.282    20331328.855
  23200232.916    -4118800.71643  -3195149.80842  23200235.009    23200234.152
  22983494.793    12143236.13443   9463126.38442  22983496.541    22983496.844
  23913118.443      -53985.73543    -34725.87042  23913120.273    23913119.353
  22508683.094    -8536451.08743  -6642620.80542  22508685.468    22508683.967
  21498175.459   -10947567.52143  -8494591.49242  21498177.192    21498175.761
 04  5 18 18 52 30.0000000  0  8G22G21G18G 3G 6G29G26G15
  21393321.199   -16680919.61744 -12621169.64642  21393322.137    21393318.728
  20424984.171      -92674.01344    -49767.20842  20424986.064    20424982.411
  20330930.779   -19784197.15643 -15398149.79942  20330932.706    20330929.342
  23184283.373    -4202615.23443  -3260459.76142  23184285.484    23184284.735
  23002893.000    12245173.37643   9542557.82442  23002894.703    23002895.121
  23928003.900       24237.63243     26227.35542  23928005.798    23928004.726
  22521155.700    -8470907.31043  -6591547.75342  22521157.970    22521156.507
  21485896.472   -11012093.86243  -8544871.72542  21485898.134    21485896.750
 04  5 18 18 53  0.0000000  0  8G22G21G18G 3G 6G29G26G15
  21382476.101   -16737911.30544 -12665578.69642  21382477.014    21382473.501
  20427015.055      -82001.58044    -41451.03442  20427016.937    20427013.321
  20330609.072   -19785887.85943 -15399467.22342  20330611.010    20330607.622
  23168394.717    -4286109.17743  -3325519.94842  23168396.826    23168396.233
  23022333.317    12347331.45343   9622161.37142  23022334.877    23022335.341
  23942959.204      102827.59843     87466.26042  23942961.081    23942959.663
  22533734.189    -8404807.61343  -6540041.53842  22533736.344    22533734.895
  21473648.140   -11076459.17143  -8595026.47142  21473649.707    21473648.453
 04  5 18 18 53 30.0000000  0  8G22G21G18G 3G 6G29G26G15
  21371699.166   -16794543.91944 -12709707.95142  21371700.112    21371696.564
  20429102.403      -71032.78744    -32903.92842  20429104.271    20429100.586
  20330365.076   -19787169.89443 -15400466.20042  20330366.996    20330363.647
  23152567.999    -4369279.52443  -3390327.98042  23152570.009    23152569.502
  23041815.163    12449708.69943   9701935.65642  23041816.756    23041817.479
  23957983.646      181781.95443    148989.06642  23957985.771    23957984.146
  22546417.944    -8338154.00943  -6488103.67642  22546420.158    22546418.637
  21461430.808   -11140661.95443  -8645054.57742  21461432.299    21461431.013
 04  5 18 18 54  0.0000000  0  8G22G21G18G 3G 6G29G26G15
  21360991.350   -16850813.95944 -12753554.67542  21360992.275    21360988.516
  20431246.782      -59764.18544    -24123.21442  20431248.663    20431244.904
  20330199.209   -19788041.64043 -15401145.47542  20330201.104    20330197.732
  23136804.000    -4452120.95043  -3454879.70942  23136805.980    23136805.423
  23061338.760    12552305.71343   9781881.21842  23061340.462    23061341.203
  23973077.672      261101.40943    210796.38942  23973079.903    23973078.099
  22559207.327    -8270945.92543  -6435733.76342  22559209.527    22559207.832
  21449245.090   -11204698.25843  -8694952.96542  21449246.581    21449245.302
 04  5 18 18 54 30.0000000  0  8G22G21G18G 3G 6G29G26G15
  21350352.049   -16906723.48044 -12797120.47742  21350352.995    21350349.181
  20433447.806      -48197.64244    -15110.33542  20433449.680    20433445.982
  20330110.721   -19788506.25343 -15401507.50042  20330112.655    20330109.320
  23121102.417    -4534633.49543  -3519175.14942  23121104.435    23121103.874
  23080903.425    12655118.00943   9861994.52742  23080905.127    23080905.986
  23988240.468      340781.08243    272884.39042  23988242.701    23988240.710
  22572101.138    -8203188.16243  -6382935.54042  22572103.410    22572101.819
  21437090.660   -11268569.72143  -8744722.90342  21437092.204    21437090.961
 04  5 18 18 55  0.0000000  0  8G22G21G18G 3G 6G29G26G15
  21339781.409   -16962271.88943 -12840404.89242  21339782.382    21339778.633
  20435705.688      -36332.21344     -5864.54842  20435707.513    20435703.920
  20330099.649   -19788564.34443 -15401552.75742  20330101.577    20330098.294
  23105463.851    -4616814.10143  -3583211.92242  23105465.989    23105465.345
  23100508.636    12758143.72843   9942274.11942  23100510.337    23100511.463
  24003471.189      420819.11843    335251.63842  24003473.504    24003471.411
  22585099.241    -8134882.79943  -6329710.62742  22585101.552    22585099.985
  21424968.081   -11332274.90743  -8794363.28642  21424969.613    21424968.240
 04  5 18 18 55 30.0000000  0  8G22G21G18G 3G 6G29G26G15
  21329279.236   -17017460.59044 -12883409.00742  21329280.176    21329276.452
  20438020.326      -24168.98444      3613.28942  20438022.125    20438018.554
  20330165.492   -19788218.17443 -15401283.00342  20330167.432    20330164.194
  23089888.561    -4698662.02643  -3646989.47342  23089890.761    23089890.099
  23120153.766    12861378.93843  10022717.00242  23120155.505    23120156.500
  24018769.266      501211.35643    397894.91742  24018771.591    24018769.311
  22598200.771    -8066034.11543  -6276062.32742  22598203.188    22598201.517
  21412876.754   -11395814.38943  -8843874.53942  21412878.429    21412877.100
 04  5 18 18 56  0.0000000  0  8G22G21G18G 3G 6G29G26G15
  21318846.427   -17072285.62944 -12926129.76342  21318847.350    21318843.528
  20440392.430      -11703.51644     13326.63242  20440394.244    20440390.584
  20330308.832   -19787465.15543 -15400696.22742  20330310.749    20330307.481
  23074377.796    -4780171.49143  -3710503.29842  23074379.884    23074379.336
  23139839.133    12964825.03243  10103324.17242  23139840.878    23139841.938
  24034134.729      581959.07043    460815.16042  24034137.132    24034135.131
  22611406.001    -7996641.01643  -6221989.80542  22611408.377    22611406.568
  21400817.942   -11459183.40343  -8893252.95342  21400819.589    21400818.407
 04  5 18 18 56 30.0000000  0  8G22G21G18G 3G 6G29G26G15
  21308482.534   -17126748.08744 -12968567.98842  21308483.474    21308479.612
  20442821.882        1063.12444     23274.65142  20442823.689    20442819.930
  20330529.114   -19786307.72343 -15399794.32142  20330531.048    20330527.731
  23058931.723    -4861341.09343  -3773752.28142  23058933.757    23058932.958
  23159563.763    13068478.43743  10184092.85242  23159565.541    23159566.823
  24049567.306      663058.18143    524009.19942  24049569.537    24049567.992
  22624713.983    -7926707.20243  -6167495.96842  22624716.317    22624714.418
  21388791.657   -11522382.45543  -8942498.93942  21388793.256    21388792.054
 04  5 18 18 57  0.0000000  0  8G22G21G18G 3G 6G29G26G15
  21298186.626   -17180853.31444 -13010727.84442  21298187.578    21298183.671
  20445307.602       14125.59044     33453.18642  20445309.430    20445305.637
  20330825.059   -19784752.51843 -15398582.46142  20330827.012    20330823.611
  23043549.532    -4942174.47443  -3836739.27342  23043551.595    23043550.508
  23179326.522    13172331.06643  10265016.84042  23179328.280    23179329.368
  24065065.644      744500.70043    587470.84142  24065067.679    24065066.232
  22638123.391    -7856241.09943  -6112587.34342  22638125.775    22638123.798
  21376796.687   -11585416.11043  -8991616.02642  21376798.356    21376797.130
 04  5 18 18 57 30.0000000  0  8G22G21G18G 3G 6G29G26G15
  21287960.465   -17234592.32844 -13052602.34742  21287961.419    21287957.406
  20447851.341       27493.48144     43869.72042  20447853.198    20447849.523
  20331198.160   -19782791.79543 -15397054.61542  20331200.127    20331196.718
  23028233.629    -5022660.21543  -3899455.40942  23028235.658    23028234.551
  23199128.424    13276389.59743  10346101.19242  23199130.171    23199131.261
  24080630.089      826292.92943    651204.98542  24080632.267    24080630.835
  22651635.112    -7785236.42543  -6057259.06342  22651637.531    22651635.683
  21364835.114   -11648274.56743  -9040596.62142  21364836.778    21364835.418
 04  5 18 18 58  0.0000000  0  8G22G21G18G 3G 6G29G26G15
  21277802.666   -17287971.68944 -13094196.59742  21277803.608    21277799.642
  20450452.131       41160.63944     54519.45042  20450453.957    20450450.326
  20331647.008   -19780433.20043 -15395216.74342  20331648.955    20331645.558
  23012982.989    -5102802.81843  -3961904.14142  23012985.020    23012984.055
  23218967.499    13380644.90443  10427338.86442  23218969.375    23218970.489
  24096259.770      908425.61343    715204.42242  24096261.751    24096260.350
  22665247.525    -7713702.60243  -6001518.45142  22665250.006    22665248.109
  21352905.903   -11710963.46743  -9089445.09142  21352907.484    21352906.009
 04  5 18 18 58 30.0000000  0  8G22G21G18G 3G 6G29G26G15
  21267714.333   -17340985.90444 -13135506.33242  21267715.254    21267711.344
  20453110.973       55132.76044     65406.80442  20453112.766    20453109.130
  20332172.355   -19777672.42443 -15393065.48742  20332174.281    20332170.903
  22997799.139    -5182594.45343  -4024079.38842  22997801.111    22997800.210
  23238844.872    13485100.03643  10508732.31642  23238846.581    23238847.465
  24111954.543      990901.71743    779471.45142  24111958.569    24111955.171
  22678961.039    -7641636.98343  -5945363.45842  22678963.496    22678961.705
  21341009.903   -11773476.63343  -9138156.62942  21341011.568    21341010.046
 04  5 18 18 59  0.0000000  0  8G22G21G18G 3G 6G29G26G15
  21257694.966   -17393638.30644 -13176534.11842  21257695.852    21257691.909
  20455827.182       69406.67444     76529.33042  20455829.004    20455825.437
  20332773.372   -19774513.98943 -15390604.35742  20332775.292    20332771.931
  22982681.883    -5262036.08543  -4085981.90742  22982683.826    22982682.984
  23258759.052    13589748.99843  10590276.76742  23258760.862    23258761.736
  24127713.480     1073714.96643    844001.17842  24127716.101    24127714.078
  22692774.745    -7569045.69343  -5888798.84342  22692777.086    22692775.352
  21329147.071   -11835816.27143  -9186732.94242  21329148.653    21329147.261
 04  5 18 18 59 30.0000000  0  8G22G21G18G 3G 6G29G26G15
  21247744.452   -17445928.09944 -13217279.35942  21247745.433    21247741.433
  20458601.166       83983.97744     87888.25942  20458602.950    20458599.389
  20333449.970   -19770958.22543 -15387833.62742  20333451.919    20333448.535
  22967631.822    -5341124.67543  -4147609.33042  22967633.809    22967632.894
  23278709.821    13694590.43943  10671971.19042  23278711.564    23278712.749
  24143536.276     1156863.59943    908792.26942  24143538.881    24143536.731
  22706687.987    -7495930.80443  -5831826.23542  22706690.276    22706688.672
  21317317.456   -11897980.82043  -9235172.81942  21317319.053    21317317.827
 04  5 18 19  0  0.0000000  0  8G22G21G18G 3G 6G29G26G15
  21237863.078   -17497854.86644 -13257741.71842  21237864.026    21237860.140
  20461432.960       98865.28044     99484.06842  20461434.754    20461431.145
  20334201.952   -19767006.10043 -15384754.04342  20334203.919    20334200.630
  22952649.494    -5419857.42443  -4208959.47142  22952651.531    22952650.459
  23298696.673    13799622.16943  10753813.91642  23298698.499    23298699.729
  24159422.431     1240345.43543    973842.99542  24159425.031    24159422.914
  22720700.493    -7422294.55743  -5774447.38142  22720702.852    22720701.160
  21305521.490   -11959969.27243  -9283475.48342  21305523.088    21305521.894
 04  5 18 19  0 30.0000000  0  8G22G21G18G 3G 6G29G26G15
  21228050.902   -17549418.07044 -13297920.79342  21228051.809    21228047.931
  20464322.849      114051.52144    111317.49242  20464324.609    20464320.983
  20335029.419   -19762657.94743 -15381365.86842  20335031.322    20335028.023
  22937735.149    -5498231.97543  -4270030.51342  22937737.106    22937736.172
  23318719.776    13904842.26043  10835803.39042  23318721.347    23318722.774
  24175371.555     1324158.30943   1039151.65942  24175373.994    24175372.163
  22734811.805    -7348139.46943  -5716664.24342  22734814.093    22734812.480
  21293759.219   -12021780.10843  -9331639.75142  21293760.854    21293759.621
 04  5 18 19  1  0.0000000  0  8G22G21G18G 3G 6G29G26G15
  21218308.557   -17600614.31644 -13337813.92142  21218309.445    21218305.493
  20467271.401      129546.18344    123391.24942  20467273.168    20467269.532
  20335932.523   -19757911.81043 -15377667.57242  20335934.438    20335931.153
  22922890.158    -5576242.72443  -4330818.08842  22922892.101    22922891.168
  23338778.471    14010251.66143  10917940.36442  23338780.199    23338781.764
  24191383.545     1408302.97843   1104718.88842  24191386.152    24191384.573
  22749021.807    -7273464.87143  -5658476.28842  22749024.161    22749022.696
  21282031.671   -12083408.84143  -9379662.12642  21282033.300    21282031.966
 04  5 18 19  1 30.0000000  0  8G22G21G18G 3G 6G29G26G15
  21208634.909   -17651449.52644 -13377425.73042  21208635.793    21208631.749
  20470277.569      145343.76344    135701.04742  20470279.339    20470275.752
  20336910.050   -19752774.81043 -15373664.71442  20336911.950    20336908.718
  22908113.771    -5653893.23143  -4391324.94042  22908115.689    22908114.788
  23358871.748    14115841.81143  11000218.18842  23358873.483    23358875.065
  24207457.110     1492770.52643   1170537.67742  24207459.695    24207458.258
  22763328.968    -7198279.73243  -5599890.48642  22763331.391    22763329.859
  21270337.865   -12144860.27343  -9427546.33642  21270339.497    21270338.153
 04  5 18 19  2  0.0000000  0  8G22G21G18G 3G 6G29G26G15
  21199030.304   -17701921.76144 -13416754.69842  21199031.209    21199027.162
  20473341.829      161446.69944    148248.78242  20473343.620    20473340.010
  20337962.133   -19747246.17043 -15369356.68042  20337964.028    20337960.750
  22893406.582    -5731179.28443  -4451547.79242  22893408.528    22893407.721
  23378999.440    14221612.53543  11082636.76542  23379001.178    23379002.702
  24223592.033     1577560.68343   1236607.83042  24223594.451    24223593.497
  22777733.406    -7122584.78543  -5540907.44842  22777735.756    22777734.170
  21258678.223   -12206131.81043  -9475290.36742  21258679.909    21258678.565
 04  5 18 19  2 30.0000000  0  8G22G21G18G 3G 6G29G26G15
  21189494.840   -17752031.28344 -13455801.03542  21189495.731    21189491.644
  20476464.355      177855.35744    161034.74142  20476466.127    20476462.475
  20339088.447   -19741327.26743 -15364744.54242  20339090.350    20339087.033
  22878769.317    -5808098.77043  -4511485.01642  22878771.319    22878770.459
  23399161.269    14327561.07643  11165193.85542  23399162.855    23399164.114
  24239788.036     1662670.53143   1302927.14142  24239790.197    24239789.224
  22792234.255    -7046383.11743  -5481529.55042  22792236.541    22792234.948
  21247053.096   -12267222.63343  -9522893.58842  21247054.773    21247053.302
 04  5 18 19  3  0.0000000  0  8G22G21G18G 3G 6G29G26G15
  21180029.245   -17801772.79144 -13494560.60942  21180030.159    21180026.079
  20479646.092      194575.30044    174063.25242  20479647.890    20479644.162
  20340289.878   -19735014.01143 -15359825.11842  20340291.729    20340288.409
  22864203.159    -5884644.14343  -4571130.72942  22864205.173    22864204.300
  23419357.065    14433690.04943  11247891.61442  23419358.799    23419359.881
  24256045.186     1748102.38443   1369497.35442  24256047.189    24256046.326
  22806831.905    -6969672.38743  -5421755.00342  22806834.177    22806832.728
  21235463.450   -12328126.52943  -9570351.15042  21235465.142    21235463.605
 04  5 18 19  3 30.0000000  0  8G22G21G18G 3G 6G29G26G15
  21170632.652   -17851151.74244 -13533037.66942  21170633.551    21170629.506
  20482885.999      211601.14544    187330.13742  20482887.817    20482884.066
  20341565.001   -19728313.27443 -15354603.76742  20341566.865    20341563.444
  22849707.594    -5960818.95243  -4630487.69542  22849709.576    22849708.590
  23439585.877    14539991.68843  11330723.82242  23439587.560    23439588.762
  24272362.105     1833848.38743   1436312.31742  24272364.115    24272363.434
  22821524.680    -6892460.98043  -5361590.32342  22821527.044    22821525.586
  21223908.499   -12388848.23943  -9617666.74742  21223910.192    21223908.626
 04  5 18 19  4  0.0000000  0  8G22G21G18G 3G 6G29G26G15
  21161305.204   -17900167.84944 -13571231.99742  21161306.097    21161301.995
  20486184.420      228934.05544    200836.29042  20486186.180    20486182.408
  20342913.771   -19721225.54843 -15349080.85942  20342915.663    20342912.180
  22835283.269    -6036620.26243  -4689553.61442  22835285.214    22835284.069
  23459847.015    14646464.18443  11413689.14842  23459848.749    23459850.190
  24288738.676     1919906.37443   1503370.40542  24288740.625    24288739.794
  22836312.451    -6814751.22743  -5301037.30142  22836314.725    22836313.202
  21212388.454   -12449386.06543  -9664839.05242  21212390.144    21212388.619
 04  5 18 19  4 30.0000000  0  8G22G21G18G 3G 6G29G26G15
  21152047.298   -17948818.48144 -13609141.53642  21152048.208    21152044.056
  20489541.718      246577.00844    214584.03542  20489543.517    20489539.771
  20344336.421   -19713749.34043 -15343255.23842  20344338.327    20344334.816
  22820930.743    -6112043.13343  -4748324.65742  22820932.715    22820931.636
  23480140.556    14753107.28643  11496787.47742  23480142.201    23480143.745
  24305174.299     2006276.05543   1570671.40342  24305176.246    24305175.476
  22851194.928    -6736543.59343  -5240096.30942  22851197.159    22851195.502
  21200904.131   -12509736.57543  -9711865.40342  21200905.763    21200904.286
 04  5 18 19  5  0.0000000  0  8G22G21G18G 3G 6G29G26G15
  21142859.029   -17997103.19944 -13646765.96642  21142859.911    21142855.702
  20492958.132      264530.46944    228573.73542  20492959.939    20492956.231
  20345832.823   -19705885.94743 -15337127.92342  20345834.720    20345831.139
  22806650.658    -6187085.09543  -4806798.87242  22806652.573    22806651.635
  23500466.402    14859919.28543  11580017.39042  23500468.020    23500469.625
  24321668.797     2092955.31643   1638213.62142  24321670.729    24321670.221
  22866171.665    -6657840.45643  -5178769.24542  22866173.901    22866172.392
  21189455.743   -12569898.11843  -9758744.49642  21189457.296    21189455.909
 04  5 18 19  5 30.0000000  0  8G22G21G18G 3G 6G29G26G15
  21133739.579   -18045025.91844 -13684108.29042  21133740.490    21133736.385
  20496433.089      282791.44744    242803.04942  20496434.924    20496431.227
  20347401.977   -19697640.08243 -15330702.57042  20347403.912    20347400.271
  22792442.769    -6261747.81043  -4864977.57542  22792444.655    22792443.662
  23520823.134    14966893.94543  11663374.07242  23520824.799    23520826.436
  24338221.031     2179937.63643   1705991.96542  24338222.901    24338222.588
  22881241.442    -6578648.58043  -5117061.32142  22881243.609    22881242.185
  21178042.778   -12629873.59343  -9805478.59842  21178044.334    21178042.961
 04  5 18 19  6  0.0000000  0  8G22G21G18G 3G 6G29G26G15
  21124689.983   -18092581.82544 -13721164.80842  21124690.879    21124686.812
  20499967.531      301364.94644    257275.89042  20499969.343    20499965.635
  20349044.556   -19689008.01943 -15323976.28542  20349046.500    20349042.869
  22778308.393    -6336024.26143  -4922855.29742  22778310.330    22778309.218
  23541211.261    15074033.53643  11746859.28442  23541212.909    23541214.337
  24354831.441     2267225.27243   1774008.22542  24354833.255    24354832.863
  22896404.594    -6498966.11243  -5054971.12942  22896406.700    22896405.162
  21166666.399   -12689657.27643  -9852063.26142  21166667.898    21166666.500
 04  5 18 19  6 30.0000000  0  8G22G21G18G 3G 6G29G26G15
  21115709.470   -18139774.44944 -13757938.24542  21115710.360    21115706.271
  20503560.847      320248.01644    271989.96142  20503562.631    20503558.981
  20350759.784   -19679994.44243 -15316952.71542  20350761.714    20350758.089
  22764247.345    -6409915.49943  -4980432.85442  22764249.233    22764248.226
  23561629.631    15181332.11943  11830468.36642  23561631.283    23561632.715
  24371498.846     2354811.99943   1842257.52442  24371500.758    24371499.961
  22911659.834    -6418799.33943  -4992503.58242  22911661.947    22911660.416
  21155325.956   -12749251.37343  -9898500.18942  21155327.518    21155326.179
 04  5 18 19  7  0.0000000  0  8G22G21G18G 3G 6G29G26G15
  21106798.696   -18186600.81044 -13794426.27742  21106799.554    21106795.443
  20507213.760      339444.00744    286947.86242  20507215.534    20507211.855
  20352548.018   -19670597.32243 -15309630.28142  20352549.952    20352546.328
  22750260.683    -6483416.13843  -5037706.04642  22750262.516    22750261.580
  23582078.426    15288790.54143  11914201.95042  23582080.013    23582081.658
  24388223.283     2442698.53643   1910740.46542  24388225.354    24388224.211
  22927007.336    -6338148.11843  -4929658.49242  22927009.501    22927007.685
  21144022.367   -12808651.82243  -9944786.22942  21144023.947    21144022.620
 04  5 18 19  7 30.0000000  0  8G22G21G18G 3G 6G29G26G15
  21097957.057   -18233063.50444 -13830630.92942  21097957.929    21097953.821
  20510925.870      358951.00244    302148.09942  20510927.636    20510923.853
  20354408.362   -19660820.99343 -15302012.35942  20354410.298    20354406.683
  22736348.058    -6556526.53843  -5094675.16942  22736349.974    22736349.034
  23602556.398    15396403.74143  11998056.13442  23602558.107    23602560.006
  24405003.717     2530879.36643   1979452.71842  24405005.698    24405004.513
  22942445.899    -6257018.00243  -4866440.28542  22942448.108    22942446.292
  21132755.426   -12867860.20043  -9990922.59842  21132756.964    21132755.613
 04  5 18 19  8  0.0000000  0  8G22G21G18G 3G 6G29G26G15
  21089184.949   -18279161.33844 -13866551.29342  21089185.804    21089181.662
  20514697.423      378770.68744    317591.99042  20514699.241    20514695.411
  20356341.041   -19650664.81743 -15294098.44842  20356342.945    20356339.368
  22722510.465    -6629243.28043  -5151337.54042  22722512.380    22722511.477
  23623063.893    15504170.56643  12082030.08642  23623065.661    23623067.608
  24421839.636     2619353.42743   2048393.47942  24421841.592    24421840.490
  22957975.280    -6175410.63243  -4802850.16342  22957977.431    22957975.759
  21121525.385   -12926874.04143 -10036907.38642  21121526.970    21121525.582
 04  5 18 19  8 30.0000000  0  8G22G21G18G 3G 6G29G26G15
  21080482.673   -18324891.92644 -13902185.48042  21080483.516    21080479.382
  20518528.985      398905.65644    333281.55942  20518530.805    20518527.066
  20358346.141   -19640127.93043 -15285887.88242  20358348.042    20358344.492
  22708748.637    -6701561.91643  -5207689.69742  22708750.562    22708749.650
  23643600.602    15612090.84443  12166123.56842  23643602.163    23643604.535
  24438730.988     2708120.11643   2117562.26042  24438733.051    24438731.976
  22973595.222    -6093326.78243  -4738888.77742  22973597.472    22973595.867
  21110333.070   -12985689.86143 -10082737.86842  21110334.657    21110333.166
 04  5 18 19  9  0.0000000  0  8G22G21G18G 3G 6G29G26G15
  21071848.957   -18370261.60544 -13937538.42342  21071849.843    21071845.805
  20522419.403      419350.21244    349212.37642  20522421.220    20522417.590
  20360422.266   -19629217.71943 -15277386.41742  20360424.169    20360420.652
  22695061.949    -6773486.08643  -5263734.47742  22695063.818    22695062.909
  23664164.935    15720156.13743  12250330.05142  23664166.419    23664168.992
  24455676.760     2797170.94243   2186952.42742  24455678.786    24455677.869
  22989304.404    -6010775.34443  -4674563.01542  22989306.596    22989304.829
  21099177.533   -13044312.67043 -10128417.95542  21099179.149    21099177.609
 04  5 18 19  9 30.0000000  0  8G22G21G18G 3G 6G29G26G15
  21063284.694   -18415267.22144 -13972607.70042  21063285.553    21063281.465
  20526369.478      440107.98444    365387.24942  20526371.252    20526367.670
  20362569.875   -19617932.14843 -15268592.46142  20362571.745    20362568.271
  22681451.389    -6845010.56643  -5319467.78742  22681453.294    22681452.174
  23684757.056    15828367.23343  12334650.16942  23684758.494    23684761.141
  24472676.896     2886506.42643   2256564.43542  24472678.796    24472677.957
  23005102.509    -5927756.14243  -4609872.79242  23005104.655    23005102.805
  21088059.505   -13102738.37843 -10173944.45842  21088061.170    21088059.591
 04  5 18 19 10  0.0000000  0  8G22G21G18G 3G 6G29G26G15
  21054789.852   -18459907.64044 -14007392.39942  21054790.700    21054786.655
  20530379.596      461180.79344    381807.60742  20530381.337    20530377.696
  20364788.848   -19606271.21643 -15259506.01442  20364790.723    20364787.263
  22667917.329    -6916131.91143  -5374886.97742  22667919.319    22667918.278
  23705376.848    15936723.04843  12419083.08042  23705378.108    23705380.773
  24489730.957     2976125.01443   2326397.03642  24489732.699    24489731.940
  23020989.206    -5844271.06443  -4544819.52842  23020991.384    23020989.506
  21076979.321   -13160964.84543 -10219315.70242  21076980.996    21076979.473
 04  5 18 19 10 30.0000000  0  9G22G21G18G14G 3G 6G29G26G15
  21046364.403   -18504184.02944 -14041893.44242  21046365.247    21046361.105
  20534449.499      482567.84744    398472.82842  20534451.242    20534447.515
  20367078.828   -19594237.16043 -15250128.82442  20367080.743    20367077.265
  24628583.239     -533895.70953   -396679.37852  24628585.115    24628588.018
  22654460.419    -6986849.07243  -5429991.24442  22654462.328    22654461.236
  23726023.171    16045219.90743  12503625.85142  23726024.583    23726027.405
  24506838.094     3066023.08343   2396447.43042  24506839.889    24506839.129
  23036963.965    -5760324.01143  -4479406.29142  23036966.201    23036964.194
  21065937.061   -13218991.85043 -10264531.52642  21065938.741    21065937.326
 04  5 18 19 11  0.0000000  0  9G22G21G18G14G 3G 6G29G26G15
  21038008.486   -18548094.43844 -14076109.30842  21038009.355    21038005.204
  20538579.591      504271.75644    415384.95142  20538581.395    20538577.599
  20369439.991   -19581829.28243 -15240460.34542  20369441.915    20369438.447
  24606705.511     -648863.75143   -486264.68142  24606707.371    24606710.146
  22641081.163    -7057157.65443  -5484777.11442  22641083.102    22641081.788
  23746696.459    16153857.46743  12588278.27842  23746697.861    23746700.809
  24523998.498     3156200.15643   2466715.20542  24524000.216    24523999.459
  23053026.196    -5675916.02043  -4413633.86242  23053028.604    23053026.535
  21054933.536   -13276816.10543 -10309589.36542  21054935.138    21054933.723
 04  5 18 19 11 30.0000000  0  9G22G21G18G14G 3G 6G29G26G15
  21029721.508   -18591642.18644 -14110042.56842  21029722.413    21029718.270
  20542769.457      526289.59044    432541.68342  20542771.255    20542767.466
  20371871.404   -19569051.88043 -15230503.92742  20371873.336    20371869.941
  24584829.638     -763820.15243   -575840.95542  24584831.876    24584834.530
  22627779.376    -7127058.59743  -5539245.35142  22627781.270    22627779.993
  23767395.512    16262630.29743  12673036.08842  23767396.907    23767400.022
  24541210.642     3246650.35643   2537195.78442  24541212.513    24541211.799
  23069175.159    -5591053.08443  -4347506.94642  23069177.472    23069175.433
  21043968.176   -13334439.57043 -10354490.74642  21043969.769    21043968.334
 04  5 18 19 12  0.0000000  0  9G22G21G18G14G 3G 6G29G26G15
  21021504.528   -18634823.01244 -14143689.94142  21021505.389    21021501.120
  20547019.952      548626.36044    449946.95142  20547021.746    20547018.086
  20374373.753   -19555901.81743 -15220257.12642  20374375.674    20374372.269
  24562957.649     -878757.58143   -665402.41542  24562959.956    24562962.745
  22614556.447    -7196545.30443  -5593390.80442  22614558.320    22614557.205
  23788120.519    16371540.53943  12757900.95142  23788121.983    23788125.149
  24558475.108     3337375.58243   2607890.68342  24558477.143    24558476.594
  23085410.900    -5505733.78643  -4281024.44842  23085413.191    23085411.294
  21033042.014   -13391856.77143 -10399231.39142  21033043.626    21033042.259
 04  5 18 19 12 30.0000000  0  9G22G21G18G14G 3G 6G29G26G15
  21013356.652   -18677640.03944 -14177053.82642  21013357.519    21013353.202
  20551330.662      571279.26044    467598.55042  20551332.453    20551328.876
  20376946.350   -19542382.93243 -15209722.92942  20376948.227    20376944.839
  24541089.108     -993676.73443   -754949.63842  24541091.570    24541094.516
  22601412.258    -7265618.53943  -5647214.06842  22601414.158    22601412.949
  23808870.589    16480582.49843  12842868.51542  23808872.108    23808875.303
  24575790.720     3428370.00043   2678795.34642  24575792.840    24575792.426
  23101732.320    -5419964.43043  -4214191.23042  23101734.650    23101732.953
  21022154.728   -13449069.72643 -10443812.90142  21022156.306    21022154.851
 04  5 18 19 13  0.0000000  0  9G22G21G18G14G 3G 6G29G26G15
  21005278.514   -18720090.89644 -14210132.38542  21005279.333    21005275.032
  20555702.205      594251.49744    485498.97742  20555703.963    20555700.337
  20379589.230   -19528494.58743 -15198900.84342  20379591.109    20379587.688
  24519225.197    -1108572.50143   -844478.63142  24519227.586    24519230.400
  22588347.481    -7334273.62943  -5700711.50842  22588349.492    22588348.264
  23829645.977    16589756.38643  12927938.83942  23829647.274    23829650.423
  24593157.631     3519633.66143   2749909.80242  24593159.704    24593159.277
  23118139.258    -5333745.21043  -4147007.49142  23118141.561    23118140.142
  21011307.038   -13506074.40443 -10488232.10642  21011308.600    21011307.100
 04  5 18 19 13 30.0000000  0  9G22G21G18G14G 3G 6G29G26G15
  20997269.166   -18762180.19444 -14242929.21442  20997269.978    20997265.680
  20560133.711      617538.92044    503645.00442  20560135.417    20560131.710
  20382301.303   -19514242.26243 -15187795.13542  20382303.217    20382299.810
  24497365.145    -1223446.66043   -933990.75042  24497367.726    24497370.471
  22575361.930    -7402513.01143  -5753885.03642  22575363.867    22575362.740
  23850444.972    16699055.42343  13013106.60242  23850446.074    23850449.511
  24610574.439     3611159.53443   2821228.58142  24610576.402    24610576.219
  23134630.473    -5247083.79143  -4079479.17642  23134632.661    23134631.293
  21000498.446   -13562874.09243 -10532491.58142  21000499.944    21000498.444
 04  5 18 19 14  0.0000000  0  9G22G21G18G14G 3G 6G29G26G15
  20989329.241   -18803904.41544 -14275441.56042  20989330.058    20989325.800
  20564625.934      641145.60344    522039.80742  20564627.680    20564623.904
  20385083.181   -19499623.45243 -15176403.85342  20385085.092    20385081.673
  24475510.327    -1338293.19843  -1023481.35542  24475512.933    24475515.733
  22562456.785    -7470330.52543  -5806729.82642  22562458.630    22562457.554
  23871268.132    16808480.71643  13098372.80642  23871269.190    23871272.684
  24628041.141     3702948.63943   2892752.50142  24628043.002    24628043.183
  23151205.612    -5159979.38143  -4011605.67042  23151207.928    23151206.918
  20989729.697   -13619464.07943 -10576587.65342  20989731.164    20989729.746
 04  5 18 19 14 30.0000000  0  9G22G21G18G14G 3G 6G29G26G15
  20981458.707   -18845263.78144 -14307669.59542  20981459.564    20981455.356
  20569178.889      665071.75544    540683.55042  20569180.706    20569176.946
  20387934.445   -19484639.69043 -15164728.19242  20387936.359    20387932.984
  24453661.359    -1453109.46243  -1112948.28842  24453663.940    24453666.811
  22549632.100    -7537724.65343  -5859244.69542  22549633.925    22549632.849
  23892114.888    16918029.78843  13183735.56042  23892116.040    23892119.294
  24645557.535     3794998.14343   2964479.31242  24645559.356    24645559.431
  23167864.674    -5072435.30243  -3943389.56142  23167866.869    23167866.222
  20979001.065   -13675843.41944 -10620519.58442  20979002.534    20979001.019
 04  5 18 19 15  0.0000000  0  9G22G21G18G14G 3G 6G29G26G15
  20973656.921   -18886262.45644 -14339616.58742  20973657.763    20973653.540
  20573792.090      689313.94444    559573.55442  20573793.866    20573790.136
  20390854.254   -19469296.19943 -15152772.22742  20390856.145    20390852.757
  24431817.858    -1567897.16543  -1202392.99942  24431820.401    24431823.151
  22536887.644    -7604697.10343  -5911430.98742  22536889.533    22536888.453
  23912983.871    17027696.17743  13269189.68342  23912985.185    23912988.190
  24663122.602     3887301.38643   3036403.85142  24663124.203    24663124.191
  23184606.202    -4984458.50143  -3874836.25342  23184608.196    23184607.937
  20968312.035   -13732014.85943 -10664289.52242  20968313.547    20968311.919
 04  5 18 19 15 30.0000000  0  9G22G21G18G14G 3G 6G29G26G15
  20965924.894   -18926894.62144 -14371277.98542  20965925.722    20965921.452
  20578466.445      713878.39444    578714.67842  20578468.263    20578464.622
  20393843.444   -19453587.83243 -15140531.93442  20393845.348    20393841.972
  24409981.246    -1682647.49443  -1291808.55342  24409983.882    24409986.667
  22524224.953    -7671239.40043  -5963282.11042  22524226.871    22524225.807
  23933875.927    17137483.83643  13354738.28442  23933877.574    23933880.475
  24680736.506     3979862.08543   3108528.99342  24680738.072    24680738.150
  23201430.621    -4896045.86543  -3805943.35642  23201432.525    23201432.483
  20957663.878   -13787971.00143 -10707891.68642  20957665.425    20957663.823
 04  5 18 19 16  0.0000000  0  9G22G21G18G14G 3G 6G29G26G15
  20958261.548   -18967165.43044 -14402657.80942  20958262.364    20958258.124
  20583201.392      738760.77144    598103.53442  20583203.181    20583199.635
  20396900.842   -19437521.16944 -15128012.45442  20396902.748    20396899.359
  24388151.133    -1797363.08343  -1381197.02642  24388153.822    24388156.633
  22511643.728    -7737354.55743  -6014800.39742  22511645.633    22511644.447
  23954789.602    17247385.07143  13440375.34942  23954791.311    23954794.374
  24698397.561     4072672.29743   3180848.59142  24698399.260    24698399.269
  23218336.433    -4807205.63543  -3736717.25042  23218338.341    23218338.386
  20947055.948   -13843715.70443 -10751329.09142  20947057.491    20947055.996
 04  5 18 19 16 30.0000000  0  9G22G21G18G14G 3G 6G29G26G15
  20950667.981   -19007070.31444 -14433752.49242  20950668.783    20950664.450
  20587997.916      763966.39944    617744.27042  20587999.681    20587996.075
  20400027.072   -19421092.68544 -15115211.03742  20400029.024    20400025.595
  24366329.124    -1912036.52643  -1470552.70042  24366331.708    24366334.097
  22499145.052    -7803035.33943  -6065980.20442  22499146.962    22499145.872
  23975725.710    17357402.58443  13526102.97042  23975727.210    23975730.230
  24716106.762     4165734.56143   3253364.59542  24716108.404    24716108.146
  23235323.868    -4717935.97243  -3667156.54142  23235325.803    23235325.944
  20936489.479   -13899243.01143 -10794597.10842  20936491.063    20936489.453
 04  5 18 19 17  0.0000000  0  9G22G21G18G14G 3G 6G29G26G15
  20943143.071   -19046613.73644 -14464565.51742  20943143.928    20943139.581
  20592855.173      789491.02944    637633.57642  20592856.930    20592853.152
  20403221.176   -19404307.71143 -15102131.83942  20403223.126    20403219.672
  24344515.240    -2026669.24443  -1559876.68742  24344517.799    24344519.663
  22486728.633    -7868284.06243  -6116823.33342  22486730.491    22486729.413
  23996682.350    17467529.38343  13611915.77342  23996683.929    23996686.861
  24733862.489     4259041.64343   3326071.36242  24733864.363    24733863.877
  23252391.750    -4628244.29443  -3597266.95842  23252393.550    23252393.620
  20925963.732   -13954556.02843 -10837698.13042  20925965.329    20925963.758
 04  5 18 19 17 30.0000000  0  9G22G21G18G14G 3G 6G29G26G15
  20935687.205   -19085794.37444 -14495095.86242  20935688.069    20935683.755
  20597773.430      815336.57544    657772.94042  20597775.219    20597771.397
  20406483.090   -19387166.24143 -15088774.84942  20406485.046    20406481.529
  24322709.506    -2141257.48743  -1649165.98942  24322712.185    24322714.119
  22474394.937    -7933097.34243  -6167327.16142  22474396.806    22474395.774
  24017659.583    17577764.49043  13697812.97542  24017661.212    24017664.149
  24751664.731     4352592.51343   3398968.04542  24751666.608    24751666.036
  23269539.624    -4538132.15443  -3527049.76542  23269541.353    23269541.450
  20915479.314   -14009651.94443 -10880629.99542  20915480.924    20915479.298
 04  5 18 19 18  0.0000000  0  9G22G21G18G14G 3G 6G29G26G15
  20928300.500   -19124611.70144 -14525343.09542  20928301.349    20928297.086
  20602753.071      841504.75144    678163.71142  20602754.874    20602751.095
  20409812.807   -19369668.65543 -15075140.36742  20409814.736    20409811.188
  24300913.054    -2255797.54943  -1738417.72442  24300915.595    24300917.794
  22462144.831    -7997472.04843  -6217489.24942  22462146.700    22462145.557
  24038657.182    17688106.74843  13783793.74342  24038658.820    24038661.782
  24769513.192     4446385.56043   3472053.46942  24769514.970    24769514.427
  23286767.130    -4447601.51243  -3456506.47342  23286768.837    23286768.700
  20905036.576   -14064528.72543 -10923391.10242  20905038.198    20905036.535
 04  5 18 19 18 30.0000000  0  9G22G21G18G14G 3G 6G29G26G15
  20920982.653   -19163067.48044 -14555308.61142  20920983.484    20920979.106
  20607793.771      867994.00244    698804.67542  20607795.597    20607791.901
  20413209.742   -19351817.77043 -15061230.58242  20413211.690    20413208.104
  24279125.922    -2370288.81943  -1827631.43942  24279128.425    24279130.804
  22449978.294    -8061407.91143  -6267309.36542  22449980.181    22449978.892
  24059674.345    17798551.71843  13869854.51742  24059675.945    24059678.765
  24787406.721     4540416.47343   3545324.24042  24787408.582    24787408.130
  23304073.257    -4356657.54343  -3385641.09742  23304075.001    23304074.730
  20894635.475   -14119186.81443 -10965981.79942  20894637.062    20894635.414
 04  5 18 19 19  0.0000000  0  9G22G21G18G14G 3G 6G29G26G15
  20913733.787   -19201160.35944 -14584991.34842  20913734.642    20913730.216
  20612895.915      894806.17844    719697.26342  20612897.687    20612894.116
  20416673.861   -19333613.35643 -15047045.32742  20416675.849    20416672.296
  24257348.779    -2484727.16443  -1916803.93342  24257351.535    24257353.795
  22437895.877    -8124901.15043  -6316784.59442  22437897.821    22437896.461
  24080710.884    17909098.88143  13955994.91842  24080712.625    24080715.368
  24805345.480     4634684.15043   3618779.49642  24805347.419    24805346.843
  23321457.897    -4265301.57743  -3314454.68342  23321459.687    23321459.031
  20884276.517   -14173623.22843 -11008399.76742  20884278.093    20884276.496
 04  5 18 19 19 30.0000000  0  9G22G21G18G14G 3G 6G29G26G15
  20906554.015   -19238889.93644 -14614390.99742  20906554.852    20906550.452
  20618059.836      921942.45944    740842.40042  20618061.581    20618057.999
  20420205.229   -19315055.99443 -15032585.04742  20420207.174    20420203.687
  24235582.514    -2599108.90143  -2005932.35542  24235585.354    24235587.595
  22425898.239    -8187948.89643  -6365912.69042  22425900.163    22425898.872
  24101766.592    18019746.49943  14042213.58042  24101768.287    24101771.183
  24823328.822     4729186.80543   3692417.86742  24823330.859    24823330.270
  23338920.366    -4173535.78643  -3242948.93142  23338922.275    23338921.525
  20873960.116   -14227836.02743 -11050643.48242  20873961.695    20873960.200
 04  5 18 19 20  0.0000000  0  9G22G21G18G14G 3G 6G29G26G15
  20899442.887   -19276259.10444 -14643509.80442  20899443.733    20899439.290
  20623285.086      949400.70544    762238.41342  20623286.843    20623283.101
  20423803.017   -19296149.41143 -15017852.64742  20423804.959    20423801.509
  24213827.123    -2713434.35043  -2095016.87642  24213829.930    24213832.318
  22413985.213    -8250551.85643  -6414694.18942  22413987.093    22413985.841
  24122840.520    18130489.48243  14128506.53942  24122842.117    24122845.335
  24841355.971     4823919.14843   3766235.20742  24841357.858    24841357.522
  23356459.589    -4081366.23543  -3171128.56142  23356461.671    23356460.750
  20863686.039   -14281826.77643 -11092714.17542  20863687.560    20863686.119
 04  5 18 19 20 30.0000000  0  8G22G21G18G14G 3G 6G26G15
  20892402.005   -19313259.06044 -14672340.90142  20892402.848    20892398.413
  20628573.314      977190.34144    783892.65442  20628575.126    20628571.244
  20427468.714   -19276885.99743 -15002842.19742  20427470.666    20427467.221
  24192084.588    -2827691.81843  -2184048.42442  24192087.546    24192089.691
  22402159.089    -8312698.81643  -6463120.38742  22402161.002    22402159.502
  24143933.564    18241334.56843  14214879.08242  24143935.396    24143938.841
  23374076.877    -3988786.67143  -3098988.69242  23374079.000    23374077.835
  20853456.172   -14335584.92043 -11134603.61942  20853457.686    20853456.249
 04  5 18 19 21  0.0000000  0  8G22G21G18G14G 3G 6G26G15
  20885428.191   -19349906.74144 -14700897.50742  20885429.018    20885424.565
  20633921.460     1005295.23944    805792.55542  20633923.310    20633919.510
  20431198.983   -19257283.46543 -14987567.49842  20431200.914    20431197.489
  24170352.451    -2941895.29143                                  24170355.362
  22390416.902    -8374404.42843  -6511202.65942  22390418.801    22390417.299
  24165042.688    18352262.80643  14301316.39642  24165044.518    24165048.039
  23391768.381    -3895816.86643  -3026544.74342  23391770.549    23391769.270
  20843267.619   -14389125.92543 -11176323.86942  20843269.122    20843267.725
 04  5 18 19 21 30.0000000  0  8G22G21G18G14G 3G 6G26G15
  20878523.596   -19386190.55844 -14729170.58242  20878524.434    20878519.999
  20639331.851     1033727.37144    827947.44742  20639333.695    20639330.044
  20434995.710   -19237331.58443 -14972020.58342  20434997.626    20434994.182
  24148633.380    -3056030.28243  -2361974.18042  24148636.254    24148637.888
  22378761.299    -8435654.85943  -6558930.23742  22378763.223    22378761.876
  24186169.443    18463283.46043  14387825.71542  24186171.208    24186174.956
  23409535.966    -3802448.32643  -2953790.12942  23409538.029    23409536.788
  20833122.995   -14442436.49144 -11217864.55842  20833124.479    20833123.010
 04  5 18 19 22  0.0000000  0  8G22G21G18G14G 3G 6G26G15
  20871687.843   -19422112.41544 -14757161.60742  20871688.684    20871684.199
  20644804.382     1062485.61944    850356.45842  20644806.205    20644802.617
  20438858.378   -19217033.19843 -14956203.66142  20438860.289    20438856.878
  24126927.184    -3170095.81643  -2450856.15442  24126930.113    24126931.771
  22367192.405    -8496449.72843  -6606302.81842  22367194.377    22367193.000
  24207312.933    18574392.47743  14474403.88142  24207314.768    24207318.614
  23427378.495    -3708685.61343  -2880728.31642  23427380.576    23427379.311
  20823022.071   -14495517.14344 -11259226.09042  20823023.591    20823022.013
 04  5 18 19 22 30.0000000  0  8G22G21G18G14G 3G 6G26G15
  20864920.410   -19457675.48244 -14784873.05742  20864921.243    20864916.796
  20650338.466     1091567.12644    873017.34942  20650340.254    20650336.712
  20442786.204   -19196392.31443 -14940119.85442  20442788.132    20442784.687
  24105234.247    -3284092.51543  -2539684.52542  24105237.273    24105238.398
  22355710.011    -8556790.14943  -6653321.31842  22355711.951    22355710.543
  24228472.737    18685584.53443  14561046.75042  24228474.256    24228478.046
  23445294.687    -3614534.97343  -2807364.24742  23445296.838    23445295.857
  20812964.590   -14548369.64044 -11300409.84342  20812966.161    20812964.493
 04  5 18 19 23  0.0000000  0  8G22G21G18G14G 3G 6G26G15
  20858221.960   -19492875.91844 -14812301.94242  20858222.804    20858218.311
  20655935.032     1120977.01044    895934.12442  20655936.816    20655933.246
  20446779.827   -19175405.86144 -14923766.77642  20446781.753    20446778.229
  24083555.683    -3398012.91443  -2628453.51242  24083558.861    24083559.536
  22344315.252    -8616669.46243  -6699980.52742  22344317.168    22344315.895
  24249648.127    18796861.81943  14647756.03842  24249649.877    24249653.600
  23463285.222    -3519994.90543  -2733696.71842  23463287.300    23463286.452
  20802951.606   -14600988.17143 -11341411.28442  20802953.196    20802951.468
 04  5 18 19 23 30.0000000  0  8G22G21G18G14G 3G 6G26G15
  20851591.349   -19527719.81644 -14839452.99842  20851592.188    20851587.747
  20661593.014     1150709.68144    919102.42142  20661594.841    20661591.152
  20450837.699   -19154081.53144 -14907150.41542  20450839.620    20450836.092
  24061890.942    -3511860.50743  -2717165.77842  24061894.060    24061894.853
  22333007.559    -8676091.80043  -6746283.63142  22333009.474    22333008.178
  24270838.242    18908215.83543  14734525.13142  24270839.904    24270843.774
  23481347.988    -3425074.64843  -2659732.94842  23481350.075    23481349.404
  20792982.190   -14653377.70243 -11382234.27942  20792983.778    20792982.057
 04  5 18 19 24  0.0000000  0  8G22G21G18G14G 3G 6G26G15
  20845029.999   -19562199.87844 -14866320.54642  20845030.832    20845026.433
  20667313.865     1180772.93044    942528.30042  20667315.693    20667311.967
  20454961.055   -19132413.12044 -14890265.94642  20454962.996    20454959.386
  24040241.926    -3625625.05343  -2805813.21342  24040245.004    24040246.214
  22321788.604    -8735047.58243  -6792223.17642  22321790.597    22321789.269
  24292043.772    19019651.65443  14821357.98742  24292045.515    24292049.325
  23499484.023    -3329769.58743  -2585469.30542  23499486.054    23499485.381
  20783058.070   -14705529.03443 -11422871.66242  20783059.694    20783058.027
 04  5 18 19 24 30.0000000  0  8G22G21G18G14G 3G 6G26G15
  20838536.621   -19596322.85644 -14892909.84542  20838537.427    20838533.018
  20673096.555     1211160.87644    966207.20542  20673098.354    20673094.589
  20459148.505   -19110407.96544 -14873119.07642  20459150.469    20459146.844
  24018608.199    -3739310.32943  -2894399.03842  24018611.020    24018611.940
  22310657.627    -8793541.00943  -6837802.45842  22310659.581    22310658.382
  24313263.394    19131160.87743  14908248.03242  24313265.175    24313268.875
  23517691.544    -3234089.20943  -2510913.24842  23517693.502    23517692.755
  20773178.415   -14757446.96544 -11463327.17542  20773179.977    20773178.337
 04  5 18 19 25  0.0000000  0  8G22G21G18G14G 3G 6G26G15
  20832111.743   -19630085.72544 -14919218.54742  20832112.551    20832108.128
  20678941.566     1241877.10244    990141.91042  20678943.422    20678939.739
  20463400.453   -19088063.96844 -14855708.17542  20463402.398    20463398.793
  23996990.507    -3852910.63943  -2982918.61442  23996993.381    23996994.362
  22299615.664    -8851566.85143  -6883017.39442  22299617.535    22299616.449
  24334497.369    19242744.14443  14995195.73742  24334498.791    24334502.629
  23535970.380    -3138033.52543  -2436064.71442  23535972.390    23535971.465
  20763343.991   -14809127.21044 -11503597.48842  20763345.558    20763343.893
 04  5 18 19 25 30.0000000  0  8G22G21G18G14G 3G 6G26G15
  20825755.080   -19663490.10844 -14945247.91142  20825755.918    20825751.450
  20684848.933     1272920.53844   1014331.58342  20684850.759    20684847.167
  20467716.297   -19065383.93344 -14838035.41842  20467718.266    20467714.715
  23975389.240    -3966424.68543  -3071370.86042  23975392.003    23975393.354
  22288662.702    -8909124.73343  -6927867.67242  22288664.591    22288663.531
  24355744.597    19354397.98443  15082198.46042  24355745.989    24355749.651
  23554319.917    -3041606.89843  -2360927.14542  23554321.858    23554320.809
  20753554.873   -14860569.48744 -11543682.36642  20753556.439    20753554.702
 04  5 18 19 26  0.0000000  0  8G22G21G18G14G 3G 6G26G15
  20819467.188   -19696533.05544 -14970995.63342  20819468.041    20819463.552
  20690819.274     1304294.88544   1038779.10542  20690821.069    20690817.535
  20472096.537   -19042365.69443 -14820099.13442  20472098.519    20472094.932
  23953806.011    -4079846.13143  -3159751.01942  23953808.518    23953809.891
  22277799.885    -8966209.22743  -6972349.07942  22277801.777    22277800.668
  24377006.574    17624456.68752                                  24377010.686
  23572740.086    -2944809.13743  -2285500.38142  23572741.991    23572740.945
  20743811.879   -14911769.18944 -11583578.23142  20743813.487    20743811.674
 04  5 18 19 26 30.0000000  0  7G22G21G18G14G 3G26G15
  20813246.734   -19729221.64944 -14996467.23742  20813247.575    20813243.088
  20696851.439     1335994.09044   1063479.76342  20696853.166    20696849.670
  20476539.501   -19019017.32743 -14801905.60342  20476541.494    20476537.919
  23932239.455    -4193179.27843  -3248062.39042  23932242.086    23932243.449
  22267026.376    -9022824.99343  -7016465.23942  22267028.255    22267027.018
  23591228.705    -2847649.86943  -2209791.90642  23591230.920    23591229.698
  20734114.029   -14962731.63444 -11623289.21842  20734115.670    20734113.897
 04  5 18 19 27  0.0000000  0  7G22G21G18G14G 3G26G15
  20807094.806   -19761550.01644 -15021658.14742  20807095.636    20807091.195
  20702946.708     1368024.66844   1088438.63842  20702948.398    20702944.918
  20481046.382   -18995333.72544 -14783450.85042  20481048.337    20481044.744
  23910691.320    -4306415.22143  -3336297.99742  23910694.049    23910695.442
  22256343.515    -9078964.01343  -7060209.89142  22256345.471    22256344.086
  23609786.944    -2750126.05543  -2133799.38842  23609789.179    23609787.872
  20724462.717   -15013449.30244 -11662809.45742  20724464.363    20724462.717
 04  5 18 19 27 30.0000000  0  7G22G21G18G14G 3G26G15
  20801011.248   -19793519.01244 -15046569.02142  20801012.072    20801007.675
  20709104.992     1400386.13544   1113655.34242  20709106.676    20709103.128
  20485616.623   -18971317.01944 -14764736.54042  20485618.553    20485614.975
  23889161.789    -4419551.99443  -3424456.33142  23889164.631    23889165.946
  22245751.511    -9134624.81843  -7103581.92942  22245753.466    22245752.135
  23628413.748    -2652241.61143  -2057525.88942  23628416.018    23628414.919
  20714858.197   -15063921.66644 -11702138.56642  20714859.822    20714858.150
 04  5 18 19 28  0.0000000  0  7G22G21G18G14G 3G26G15
  20794995.339   -19825132.84244 -15071203.15242  20794996.170    20794991.720
  20715325.503     1433075.00444   1139127.16342  20715327.246    20715323.642
  20490249.246   -18946972.24344 -14745766.58742  20490251.194    20490247.658
  23867650.814    -4532590.60743  -3512538.17642  23867653.814    23867655.257
  22235250.112    -9189809.51143  -7146582.97442  22235252.019    22235250.702
  23647107.760    -2554003.52443  -1980976.78542  23647110.104    23647109.281
  20705299.798   -15114151.21943 -11741278.46142  20705301.384    20705299.729
 04  5 18 19 28 30.0000000  0  7G22G21G18G14G 3G26G15
  20789047.411   -19856389.84244 -15095559.23542  20789048.229    20789043.651
  20721608.770     1466093.90944   1164856.15742  20721610.543    20721606.954
  20494944.558   -18922298.43444 -14726540.25142  20494946.451    20494942.933
  23846159.702    -4645526.22143  -3600539.76042  23846162.638    23846164.170
  22224840.070    -9244514.08643  -7189209.87442  22224841.984    22224840.744
  23665868.884    -2455412.57643  -1904152.71242  23665871.300    23665870.771
  20695788.357   -15164134.05044 -11780226.11942  20695789.924    20695788.197
 04  5 18 19 29  0.0000000  0  7G22G21G18G14G 3G26G15
  20783166.643   -19887293.21444 -15119639.75942  20783167.476    20783162.940
  20727954.326     1499440.25144   1190840.29642  20727956.102    20727952.582
  20499701.593   -18897299.95943 -14707060.92542  20499703.507    20499700.013
  23824688.391    -4758358.95243  -3688461.23642  23824691.149    23824692.626
  22214521.518    -9298739.36043  -7231463.32442  22214523.369    22214522.115
  23684696.147    -2356474.74743  -1827058.39042  23684698.446    23684698.126
  20686323.566   -15213871.81044 -11818982.79542  20686325.109    20686323.385
 04  5 18 19 29 30.0000000  0  7G22G21G18G14G 3G26G15
  20777353.973   -19917838.77044 -15143441.47242  20777354.775    20777350.260
  20734363.256     1533119.22444   1217083.62842  20734365.014    20734361.474
  20504521.097   -18871973.10944 -14687325.72442  20504523.017    20504519.567
  23803237.671    -4871081.59843  -3776296.84242  23803240.517    23803242.003
  22204295.240    -9352478.88643  -7273338.27042  22204297.135    22204295.848
  23703589.904    -2257188.40443  -1749692.49442  23703592.051    23703591.734
  20676906.602   -15263358.38844 -11857543.75442  20676908.111    20676906.383
 04  5 18 19 30  0.0000000  0  7G22G21G18G14G 3G26G15
  20771608.645   -19948030.59844 -15166967.55042  20771609.455    20771604.930
  20740834.778     1567127.23444   1243583.35842  20740836.503    20740833.003
  20509402.119   -18846323.23744 -14667338.81242  20509404.022    20509400.556
  23781808.016    -4983695.33743  -3864047.64942  23781810.826    23781811.827
  22194160.919    -9405734.78643  -7314836.35942  22194162.846    22194161.482
  23722548.492    -2157560.69743  -1672060.58842  23722550.639    23722550.348
  20667536.859   -15312596.34644 -11895910.97342  20667538.413    20667536.714
 04  5 18 19 30 30.0000000  0  7G22G21G18G14G 3G26G15
  20765930.999   -19977866.60544 -15190216.35942  20765931.795    20765927.345
  20747369.410     1601466.89544   1270341.51142  20747371.115    20747367.655
  20514344.868   -18820349.07444 -14647099.21842  20514346.785    20514343.302
  23760399.795    -5096195.03843  -3951709.52642  23760402.645    23760403.833
  22184119.521    -9458502.61843  -7355954.13542  22184121.413    22184120.200
  23741572.077    -2057592.31743  -1594163.21542  23741574.187    23741573.839
  20658215.196   -15361581.99644 -11934081.59742  20658216.750    20658215.061
 04  5 18 19 31  0.0000000  0  7G22G21G18G14G 3G26G15
  20760321.198   -20007346.49944 -15213187.67642  20760321.982    20760317.478
  20753967.381     1636139.41444   1297359.03342  20753969.084    20753965.650
  20519349.139   -18794051.53344 -14626607.63042  20519351.060    20519347.605
  23739014.054    -5208577.21043  -4039279.89842  23739016.961    23739018.163
  22174171.379    -9510779.88543  -7396689.64942  22174173.325    22174172.234
  23760659.935    -1957285.63843  -1516002.22042  23760662.089    23760661.532
  20648942.007   -15410312.88444 -11972053.70342  20648943.564    20648941.823
 04  5 18 19 31 30.0000000  0  7G22G21G18G14G 3G26G15
  20754778.852   -20036471.79344 -15235882.68742  20754779.648    20754775.096
  20760628.606     1671143.92444   1324635.25542  20760630.278    20760626.797
  20524414.561   -18767432.81644 -14605865.78442  20524416.481    20524413.017
  23717650.985    -5320840.69243  -4126757.76442  23717653.867    23717655.192
  22164316.909    -9562566.07443  -7437042.50042  22164318.820    22164317.620
  23779811.075    -1856644.95343  -1437580.98242  23779813.309    23779812.776
  20639717.331   -15458788.90344 -12009827.20942  20639718.869    20639717.162
 04  5 18 19 32  0.0000000  0  7G22G21G18G14G 3G26G15
  20749303.848   -20065243.32444 -15258302.04642  20749304.626    20749299.972
  20767352.984     1706480.47644   1352170.19942  20767354.662    20767351.164
  20529540.701   -18740494.84544 -14584875.16742  20529542.632    20529539.112
  23696310.942    -5432983.02043  -4214141.23842  23696313.818    23696315.237
  22154556.064    -9613859.55743  -7477011.43842  22154558.002    22154556.609
  23799025.191    -1755673.64243  -1358902.11742  23799027.445    23799027.016
  20630541.370   -15507008.82944 -12047401.16442  20630542.906    20630541.190
 04  5 18 19 32 30.0000000  0  7G22G21G18G14G 3G26G15
  20743895.806   -20093662.42244 -15280446.77242  20743896.616    20743891.969
  20774140.385     1742148.63744   1379963.55042  20774142.066    20774138.657
  20534727.195   -18713239.91644 -14563637.56942  20534729.113    20534725.571
  23674994.173    -5545002.30143  -4301428.80442  23674997.038    23674998.563
  22144889.117    -9664659.53943  -7516595.81542  22144891.068    22144889.743
  23818301.683    -1654375.74143  -1279968.74842  23818303.878    23818303.417
  20621414.258   -15554972.34644 -12084775.32342  20621415.794    20621414.025
 04  5 18 19 33  0.0000000  0  7G22G21G18G14G 3G26G15
  20738554.742   -20121729.75144 -15302317.39242  20738555.550    20738550.898
  20780990.848     1778148.09144   1408015.05242  20780992.504    20780989.131
  20539973.679   -18685669.08744 -14542153.81042  20539975.626    20539972.140
  23653701.317    -5656896.09143  -4388618.59442  23653704.103    23653705.677
  22135316.416    -9714964.41643  -7555794.41242  22135318.368    22135317.074
  23837639.524    -1552754.67043  -1200783.56642  23837641.659    23837641.264
  20612336.165   -15602678.22344 -12121948.72142  20612337.723    20612335.898
 04  5 18 19 33 30.0000000  0  7G22G21G18G14G 3G26G15
  20733281.231   -20149442.36544 -15323911.61642  20733282.034    20733277.365
  20787905.100     1814482.38544   1436327.46942  20787906.711    20787903.356
  20545280.737   -18657780.37844 -14520422.35842  20545282.627    20545279.181
  23632433.478    -5768658.46843  -4475706.00342  23632436.218    23632437.674
  22125838.945    -9764769.19443  -7594603.31842  22125840.915    22125839.523
  23857039.111    -1450810.27943  -1121346.48142  23857041.152    23857040.963
  20603307.876   -15650121.80044 -12158917.72442  20603309.464    20603307.748
 04  5 18 19 34  0.0000000  0  7G22G21G18G14G 3G26G15
  20728074.241   -20176805.10744 -15345233.20342  20728075.036    20728070.434
  20794882.393     1851147.96844   1464898.02842  20794884.000    20794880.631
  20550647.201   -18629579.33544 -14498447.52642  20550649.087    20550645.664
  23611190.225    -5880290.93843  -4562692.16442  23611192.975    23611194.622
  22116456.147    -9814076.20743  -7633024.35242  22116458.095    22116456.674
  23876498.908    -1348549.81243  -1041663.08542  23876500.780    23876500.551
  20594329.099   -15697305.68744 -12195684.37342  20594330.641    20594328.954
 04  5 18 19 34 30.0000000  0  7G22G21G18G14G 3G26G15
  20722934.549   -20203814.05044 -15366279.10542  20722935.361    20722930.734
  20801923.399     1888149.22644   1493730.15742  20801925.112    20801921.754
  20556073.679   -18601063.01744 -14476227.02842  20556075.562    20556072.118
  23589973.271    -5991786.38143  -4649571.53742  23589976.003    23589977.691
  22107169.025    -9862879.55443  -7671052.92142  22107170.986    22107169.751
  23896018.713    -1245972.16243   -961732.51742  23896020.545    23896020.490
  20585400.789   -15744224.16144 -12232244.20642  20585402.318    20585400.630
 04  5 18 19 35  0.0000000  0  7G22G21G18G14G 3G26G15
  20717862.020   -20230470.54544 -15387050.38142  20717862.812    20717858.220
  20809028.370     1925485.53744   1522823.36042  20809030.057    20809026.616
  20561559.606   -18572234.12944 -14453762.96342  20561561.497    20561558.041
  23568782.684    -6103143.38943  -4736343.06542  23568785.351    23568786.994
  22097978.001    -9911178.63843  -7708688.56542  22097979.916    22097978.675
  23915598.075    -1143081.36743   -881557.93642  23915600.101    23915600.191
  20576523.142   -15790876.90444 -12268596.98042  20576524.643    20576522.866
 04  5 18 19 35 30.0000000  0  7G22G21G18G14G 3G26G15
  20712855.545   -20256779.42644 -15407550.78542  20712856.356    20712851.793
  20816196.208     1963152.80744   1552174.45842  20816197.958    20816194.459
  20567104.078   -18543097.82244 -14431059.35742  20567105.978    20567102.480
  23547618.044    -6214363.47643  -4823007.86842  23547620.770    23547622.412
  22088882.579    -9958975.79943  -7745933.09542  22088884.514    22088883.084
  23935235.687    -1039884.95143   -801145.22242  23935237.798    23935238.056
  20567695.476   -15837266.64244 -12304744.82542  20567697.030    20567695.197
 04  5 18 19 36  0.0000000  0  7G22G21G18G14G 3G26G15
  20707915.921   -20282737.10444 -15427777.52242  20707916.735    20707912.152
  20823427.876     2001155.29044   1581786.75942  20823429.648    20823426.101
  20572707.605   -18513651.29144 -14408114.01342  20572709.514    20572705.972
  23526480.664    -6325440.05943  -4909560.89242  23526483.384    23526484.843
  22079883.605   -10006265.53743  -7782782.22242  22079885.540    22079884.186
  23954931.799     -936381.93343   -720493.61642  23954933.892    23954933.884
  20558918.820   -15883388.04544 -12340683.57142  20558920.391    20558918.602
 04  5 18 19 36 30.0000000  0  7G22G21G18G14G 3G26G15
  20703042.661   -20308346.19144 -15447732.63042  20703043.449    20703038.897
  20830722.996     2039491.48044   1611659.09742  20830724.814    20830721.200
  20578369.484   -18483898.01744 -14384929.65642  20578371.390    20578367.829
  23505370.999    -6436372.27543  -4996001.43142  23505373.560    23505374.701
  22070981.147   -10053048.26943  -7819236.28042  22070983.100    22070981.738
  23974685.291     -832577.41343   -639607.08442  23974687.394    23974687.144
  20550193.138   -15929241.36944 -12376413.42042  20550194.770    20550193.046
 04  5 18 19 37  0.0000000  0  7G22G21G18G14G 3G26G15
  20698235.620   -20333606.97144 -15467416.32042  20698236.444    20698231.876
  20838081.756     2078161.57644   1641791.60842  20838083.537    20838079.891
  20584089.451   -18453839.33244 -14361507.31242  20584091.374    20584087.789
  23484288.834    -6547157.52943  -5082327.46842  23484291.479    23484292.523
  22062175.609   -10099322.13043  -7855293.82142  22062177.529    22062176.151
  23994495.549     -728474.68143   -558488.14542  23994497.765    23994497.067
  20541518.847   -15974825.28944 -12411933.35042  20541520.437    20541518.763
 04  5 18 19 37 30.0000000  0  7G22G21G18G14G 3G26G15
  20693495.358   -20358517.20844 -15486826.87842  20693496.165    20693491.529
  20845504.450     2117168.50444   1672186.60042  20845506.254    20845502.747
  20589867.849   -18423473.66144 -14337845.75442  20589869.802    20589866.243
  23463236.114    -6657790.32343  -5168534.66542  23463238.668    23463239.633
  22053467.619   -10145082.67843  -7890951.38642  22053469.544    22053468.175
  24014362.520     -624073.82243   -477136.91742  24014364.762    24014363.894
  20532896.527   -16020135.64144 -12447240.10842  20532898.120    20532896.489
 04  5 18 19 38  0.0000000  0  7G22G21G18G14G 3G26G15
  20688821.481   -20383078.87144 -15505965.82142  20688822.247    20688817.508
  20852991.089     2156511.03744   1702843.09042  20852992.873    20852989.414
  20595704.102   -18392803.98944 -14313947.31342  20595706.026    20595702.572
  23442212.419    -6768269.83743  -5254622.43442  23442214.997    23442215.921
  22044857.318   -10190330.27543  -7926209.24542  22044859.196    22044857.789
  24034285.265     -519379.72343   -395557.16342  24034287.358    24034286.364
  20524326.312   -16065172.61944 -12482333.83942  20524327.849    20524326.172
 04  5 18 19 38 30.0000000  0  7G22G21G18G14G 3G26G15
  20684213.683   -20407292.85544 -15524833.83442  20684214.449    20684209.755
  20860541.570     2196189.06644   1733761.01442  20860543.342    20860539.911
  20601597.895   -18361831.89944 -14289813.22842  20601599.836    20601596.359
  23421218.594    -6878592.93643  -5340588.34342  23421221.178    23421222.242
  22036344.993   -10235063.27743  -7961066.12242  22036346.868    22036345.209
  24054262.895     -414395.51543   -313751.37142  24054264.928    24054264.113
  20515808.383   -16109934.61844 -12517213.30942  20515809.967    20515808.183
 04  5 18 19 39  0.0000000  0  7G22G21G18G14G 3G26G15
  20679671.994   -20431159.36244 -15543431.08242  20679672.785    20679668.078
  20868156.125     2236203.36444   1764940.95142  20868157.830    20868154.333
  20607549.092   -18330558.13744 -14265444.07342  20607551.015    20607547.596
  23400254.705    -6988757.32843  -5426430.58342  23400257.339    23400258.488
  22027930.885   -10279279.66043  -7995520.43042  22027932.800    22027931.199
  24074295.096     -309124.11143   -231721.80542  24074297.182    24074296.778
  20507343.061   -16154420.06544 -12551877.28242  20507344.624    20507342.811
 04  5 18 19 39 30.0000000  0  7G22G21G18G14G 3G26G15
  20675196.314   -20454679.51644 -15561758.45542  20675197.081    20675192.362
  20875834.455     2276553.13944   1796382.30742  20875836.141    20875832.679
  20613557.202   -18298985.18744 -14240841.78242  20613559.125    20613555.690
  23379321.709    -7098760.74643  -5512147.36842  23379324.175    23379325.312
  22019615.168   -10322978.80143  -8029571.69542  22019617.056    22019615.599
  24094381.548     -203569.40643   -149471.44942  24094383.664    24094383.459
  20498930.498   -16198628.32544 -12586325.26742  20498932.064    20498930.267
 04  5 18 19 40  0.0000000  0  7G22G21G18G14G 3G26G15
  20670785.821   -20477856.74644 -15579818.61342  20670786.590    20670781.804
  20883576.168     2317236.07544   1828083.26742  20883577.859    20883574.482
  20619621.597   -18267116.73644 -14216009.23342  20619623.504    20619620.082
  23358419.348    -7208603.31043  -5597738.82542  23358421.826    23358422.825
  22011397.692   -10366161.75243  -8063220.74242  22011399.507    22011398.111
  24114520.949      -97737.08643    -67004.76742  24114523.120    24114522.869
  20490570.418   -16242560.70744 -12620558.26842  20490571.972    20490570.249
 04  5 18 19 40 30.0000000  0  7G22G21G18G14G 3G26G15
  20666441.334   -20500686.84444 -15597608.27642  20666442.118    20666437.368
  20891382.244     2358257.04044   1860047.63142  20891383.961    20891380.563
  20625742.925   -18234949.62544 -14190943.96642  20625744.814    20625741.311
  23337548.912    -7318277.65843  -5683199.22042  23337551.527    23337552.326
  22003279.634   -10408822.81743  -8096463.13342  22003281.447    22003279.980
  24134713.556        8374.07343     15679.18842  24134715.803    24134715.274
  20482264.046   -16286210.97244 -12654571.45442  20482265.583    20482263.845
 04  5 18 19 41  0.0000000  0  7G22G21G18G14G 3G26G15
  20662162.485   -20523172.53244 -15615129.57542  20662163.282    20662158.496
  20899252.220     2399614.03444   1892273.83242  20899253.958    20899250.556
  20631920.350   -18202486.93144 -14165648.36742  20631922.255    20631918.712
  23316710.592    -7427783.23543  -5768528.10242  23316713.169    23316714.037
  21995260.758   -10450962.27843  -8129299.07042  21995262.616    21995261.179
  24154958.035      114759.04843     98576.50242  24154960.446    24154959.793
  20474011.242   -16329579.63544 -12688365.20442  20474012.778    20474011.070
 04  5 18 19 41 30.0000000  0  7G22G21G18G14G 3G26G15
  20657949.465   -20545311.87644 -15632380.99342  20657950.272    20657945.501
  20907186.622     2441309.74944   1924763.96742  20907188.372    20907185.096
  20638154.259   -18169727.70744 -14140121.70642  20638156.188    20638152.694
  23295905.303    -7537114.95543  -5853721.50542  23295907.844    23295908.903
  21987341.848   -10492576.25143  -8161725.53042  21987343.739    21987342.194
  24175254.506      221417.32243    181686.75942  24175257.038    24175256.198
  20465812.837   -16372662.83444 -12721936.51442  20465814.341    20465812.540
 04  5 18 19 42  0.0000000  0  7G22G21G18G14G 3G26G15
  20653801.577   -20567109.03444 -15649365.77242  20653802.370    20653797.570
  20915184.924     2483340.98944   1957515.56042  20915186.664    20915183.351
  20644443.536   -18136676.72844 -14114367.69842  20644445.508    20644442.062
  23275132.950    -7646273.60843  -5938780.05342  23275135.536    23275136.537
  21979522.493   -10533666.72843  -8193744.06442  21979524.402    21979522.842
  24195601.640      328342.16043    265004.72742  24195604.227    24195603.478
  20457668.233   -16415462.60644 -12755286.96842  20457669.754    20457668.031
 04  5 18 19 42 30.0000000  0  7G22G21G18G14G 3G26G15
  20649718.938   -20588563.53844 -15666083.54942  20649719.726    20649714.918
  20923247.327     2525708.60544   1990529.24942  20923249.037    20923245.586
  20650788.353   -18103334.33444 -14088386.62142  20650790.307    20650786.887
  23254394.163    -7755255.90143  -6023701.15242  23254396.728    23254397.748
  21971803.280   -10574231.41043  -8225352.90642  21971805.155    21971803.683
  24215999.083      435531.12343    348528.49342  24216001.596    24216001.037
  20449578.006   -16457977.01344 -12788415.06442  20449579.525    20449577.788
 04  5 18 19 43  0.0000000  0  7G22G21G18G14G 3G26G15
  20645701.356   -20609675.63044 -15682534.51342  20645702.161    20645697.398
  20931373.797     2568413.37344   2023805.66342  20931375.494    20931372.093
  20657188.444   -18069701.71344 -14062179.38542  20657190.388    20657186.990
  23233689.709    -7864058.64243  -6108482.36342  23233692.285    23233693.011
  21964184.450   -10614268.60343  -8256550.70842  21964186.359    21964184.892
  24236446.398      542981.72143    432256.16042  24236448.674    24236448.281
  20441542.508   -16500203.88044 -12821319.10542  20441544.021    20441542.248
 04  5 18 19 43 30.0000000  0  7G22G21G18G14G 3G26G15
  20641749.122   -20630444.99244 -15698718.41942  20641749.882    20641745.086
  20939564.651     2611456.30544   2057345.58742  20939566.335    20939562.908
  20663643.716   -18035779.11744 -14035746.20142  20663645.697    20663642.269
  23213019.854    -7972678.26543  -6193120.87042  23213022.483    23213023.240
  21956666.577   -10653775.85343  -8287335.56342  21956668.433    21956666.929
  24256943.012      650691.65643    516185.89942  24256945.180    24256944.678
  20433562.207   -16542140.82344 -12853997.23842  20433563.715    20433561.861
 04  5 18 19 44  0.0000000  0  7G22G21G18G14G 3G26G15
  20637862.307   -20650870.50344 -15714634.38342  20637863.080    20637858.275
  20947820.090     2654839.07043   2091150.30142  20947821.792    20947818.395
  20670154.242   -18001566.39144 -14009086.94342  20670156.214    20670152.703
  23192385.751    -8081110.41643  -6277613.28642  23192388.457    23192389.250
  21949249.950   -10692750.03943  -8317705.04342  21949251.847    21949250.310
  24277488.605      758659.74443    600316.81742  24277490.858    24277490.325
  20425637.613   -16583784.38644 -12886446.74742  20425639.161    20425637.360
 04  5 18 19 44 30.0000000  0  7G22G21G18G14G 3G26G15
  20634039.121   -20670961.14844 -15730289.41842  20634039.876    20634035.112
  20956138.771     2698553.58444   2125213.53542  20956140.424    20956137.035
  20676718.143   -17967073.25544 -13982209.18242  20676720.089    20676716.508
  23171786.238    -8189360.97943  -6361964.22642  23171788.887    23171789.744
  21941933.458   -10731198.38843  -8347664.78842  21941935.324    21941933.784
  24298081.305      866874.21043    684639.72042  24298083.529    24298082.931
  20417767.621   -16625141.71344 -12918673.23142  20417769.147    20417767.261
 04  5 18 19 45  0.0000000  0  7G22G21G18G14G 3G26G15
  20630281.222   -20690708.76444 -15745677.14742  20630282.007    20630277.260
  20964522.274     2742608.85344   2159542.28442  20964523.933    20964520.523
  20683336.756   -17932291.97244 -13955106.89342  20683338.694    20683335.134
  23151223.747    -8297418.33843  -6446164.61642  23151226.240    23151226.947
  21934718.964   -10769110.81043  -8377206.92342  21934720.822    21934719.283
  24318721.961      975341.00343    769159.22442  24318724.113    24318723.455
  20409954.007   -16666202.39244 -12950668.55142  20409955.520    20409953.690
 04  5 18 19 45 30.0000000  0  7G22G21G18G14G 3G26G15
  20626588.312   -20710115.06544 -15760798.92242  20626589.062    20626584.339
  20972970.287     2787003.70744   2194135.64842  20972972.003    20972968.654
  20690009.741   -17897224.98444 -13927781.97442  20690011.683    20690008.183
  23130697.955    -8405281.20543  -6530213.41142  23130700.474    23130701.135
  21927606.523   -10806486.67743  -8406330.96142  21927608.341    21927606.855
  24339409.694     1084055.62443    853871.85042  24339411.818    24339411.301
  20402196.920   -16706966.11844 -12982432.48142  20402198.401    20402196.549
 04  5 18 19 46  0.0000000  0  8G22G21G18G14G 3G26G19G15
  20622960.304   -20729180.47244 -15775655.06942  20622961.062    20622956.328
  20981483.198     2831738.70444   2228994.04542  20981484.860    20981481.488
  20696736.948   -17861873.27144 -13900235.19042  20696738.881    20696735.358
  23110209.794    -8512946.23443  -6614108.08642  23110212.494    23110212.960
  21920596.511   -10843324.66643  -8435035.88642  21920598.339    21920596.818
  24360144.126     1193015.68443    938775.73342  24360146.363    24360146.013
  24250332.893     -552545.17453   -416579.80852  24250333.539    24250332.269
  20394496.735   -16747431.03144 -13013963.57242  20394498.237    20394496.346
 04  5 18 19 46 30.0000000  0  9G22G21G18G14G 3G 9G26G19G15
  20619396.334   -20747909.32944 -15790248.97242  20619397.089    20619392.335
  20990059.930     2876810.29743   2264114.74242  20990061.686    20990058.374
  20703517.324   -17826241.99444 -13872470.56542  20703519.263    20703515.708
  23089759.098    -8620414.89143  -6697849.70642  23089761.743    23089762.191
  21913688.428   -10879627.22243  -8463323.58142  21913690.277    21913688.759
  24120974.378
  24380923.895     1302213.99543   1023865.26242  24380926.200    24380925.935
  24232388.798     -646841.21943   -490057.19042  24232390.011    24232388.574
  20386852.944   -16787599.54544 -13045263.70942  20386854.480    20386852.581
 04  5 18 19 47  0.0000000  0  9G22G21G18G14G 3G 9G26G19G15
  20615896.365   -20766301.95944 -15804580.87142  20615897.122    20615892.314
  20998700.878     2922218.61943   2299497.81942  20998702.597    20998699.318
  20710350.624   -17790332.76444 -13844489.35542  20710352.551    20710349.071
  23069346.345    -8727684.45443  -6781436.25142  23069349.012    23069349.181
  21906882.319   -10915393.19843  -8491193.16142  21906884.202    21906882.677
  24108635.367
  24401748.583     1411647.62343   1109138.14042  24401750.652    24401750.518
  24214492.912     -740885.38643   -563338.25642  24214493.913    24214492.530
  20379265.677   -16827470.30144 -13076331.82042  20379267.256    20379265.353
 04  5 18 19 47 30.0000000  0  9G22G21G18G14G 3G 9G26G19G15
  20612460.936   -20784355.16744 -15818648.29642  20612461.719    20612456.812
  21007406.556     2967967.39543   2335146.18142  21007408.281    21007404.998
  20717237.393   -17754142.53744 -13816289.19042  20717239.322    20717235.954
  23048972.645    -8834748.21743  -6864862.40642  23048975.313    23048975.290
  21900179.348   -10950617.20843  -8518640.43442  21900181.261    21900179.674
  24096360.368     -591843.39453   -319587.23552  24096363.042    24096363.034
  24422618.003     1521317.38043   1194595.02842  24422619.973    24422620.004
  24196645.990     -834670.84343   -636417.80242  24196647.134    24196645.631
  20371736.287   -16867037.76144 -13107163.59542  20371737.799    20371735.945
 04  5 18 19 48  0.0000000  0  9G22G21G18G14G 3G 9G26G19G15
  20609089.172   -20802073.67844 -15832454.91142  20609089.951    20609085.065
  21016176.334     3014052.92643   2371056.95442  21016178.026    21016174.753
  20724176.658   -17717676.42244 -13787874.04042  20724178.603    20724175.201
  23028637.957    -8941607.57743  -6948129.31442  23028640.546    23028640.478
  21893579.058   -10985301.99143  -8545667.53842  21893580.945    21893579.373
  24084149.304     -656014.73643   -369590.69842  24084151.707    24084152.240
  24443530.849     1631216.33343   1280230.50142  24443533.003    24443533.209
  24178848.100     -928199.20943   -709297.01642  24178849.326    24178847.756
  20364264.114   -16906304.19844 -13137760.81442  20364265.654    20364263.763
 04  5 18 19 48 30.0000000  0  9G22G21G18G14G 3G 9G26G19G15
  20605781.002   -20819457.94644 -15846001.07542  20605781.809    20605776.941
  21025010.379     3060475.54943   2407230.39342  21025011.967    21025008.661
  20731168.162   -17680935.90944 -13759245.08142  20731170.091    20731166.716
  23008342.542    -9048260.08643  -7031235.00342  23008345.157    23008344.938
  21887081.589   -11019446.56543  -8572273.68142  21887083.481    21887081.873
  24072002.034     -719847.45843   -419330.30942  24072004.629    24072005.265
  24464486.884     1741341.40943   1366042.16042  24464489.142    24464489.330
  24161099.511    -1021467.68143   -781973.68242  24161100.999    24161099.194
  20356849.494   -16945268.28244 -13168122.42342  20356850.992    20356849.227
 04  5 18 19 49  0.0000000  0  9G22G21G18G14G 3G 9G26G19G15
  20602536.899   -20836505.70744 -15859285.03742  20602537.697    20602532.835
  21033908.995     3107238.27643   2443668.84742  21033910.631    21033907.329
  20738212.210   -17643919.32544 -13730400.99642  20738214.152    20738210.750
  22988087.598    -9154699.69843  -7114174.81742  22988090.234    22988089.987
  21880687.655   -11053046.58043  -8598455.49542  21880689.530    21880688.013
  24059920.871     -783335.32543   -468801.22742  24059923.149    24059924.105
  24485485.958     1851692.63343   1452030.04542  24485488.229    24485488.578
  24143401.670    -1114470.63243   -854443.44642  24143403.297    24143401.287
  20349493.334   -16983925.18444 -13198244.68142  20349494.826    20349493.073
 04  5 18 19 49 30.0000000  0  8G22G21G18G14G 3G 9G19G15
  20599357.563   -20853213.26744 -15872303.90542  20599358.344    20599353.459
  21042873.269     3154345.39743   2480375.66042  21042874.843    21042871.574
  20745309.445   -17606623.39144 -13701339.24942  20745311.382    20745307.886
  22967874.490    -9260919.46443  -7196943.31742  22967877.091    22967876.954
  21874398.358   -11086096.52643  -8624208.70242  21874400.247    21874398.896
  24047906.492     -846470.82243   -517997.59542  24047908.806    24047909.832
  24125755.569    -1207201.08843   -926700.88542  24125757.136    24125755.087
  20342196.718   -17022269.17244 -13228123.10742  20342198.205    20342196.405
 04  5 18 19 50  0.0000000  0  8G22G21G18G14G 3G 9G19G15
  20596240.506   -20869593.30544 -15885067.55342  20596241.290    20596236.471
  21051900.844     3201785.16443   2517341.67342  21051902.435    21051899.116
  20752457.131   -17569061.97244 -13672070.62042  20752459.096    20752455.595
  22947701.416    -9366929.01043  -7279548.03842  22947703.898    22947703.884
  21868211.964   -11118607.04943  -8649541.58242  21868213.757    21868212.358
  24035957.233     -909262.78943   -566926.23242  24035959.782    24035960.986
  24108159.523    -1299668.47343   -998753.34342  24108161.079    24108159.092
  20334957.595   -17060310.98844 -13257766.07842  20334959.067    20334957.260
 04  5 18 19 50 30.0000000  0  8G22G21G18G14G 3G 9G19G15
  20593187.256   -20885638.44444 -15897570.24842  20593187.993    20593183.191
  21060993.113     3249565.83643   2554573.33542  21060994.757    21060991.592
  20759656.800   -17531227.77244 -13642589.44042  20759658.731    20759655.176
  22927570.263    -9472717.73643  -7361980.67042  22927572.796    22927572.883
  21862129.728   -11150569.09343  -8674447.06442  21862131.543    21862130.212
  24024075.539     -971700.10543   -615578.56842  24024078.215    24024079.720
  24090615.629    -1391862.09243  -1070592.45842  24090617.294    24090615.399
  20327777.832   -17098040.90244 -13287166.00142  20327779.309    20327777.459
 04  5 18 19 51  0.0000000  0  8G22G21G18G14G 3G 9G19G15
  20590196.726   -20901353.88244 -15909816.03142  20590197.492    20590192.651
  21070149.494     3297682.62643   2592066.90242  21070151.100    21070147.953
  20766907.233   -17493126.62744 -13612900.25442  20766909.132    20766905.664
  22907480.829    -9578287.48643  -7444242.67342  22907483.354    22907483.691
  21856151.199   -11181986.20143  -8698927.92942  21856153.007    21856151.826
  24012261.170    -1033784.33443   -663955.77642  24012263.821    24012265.257
  24073123.391    -1483783.76343  -1142219.69742  24073125.209    24073123.008
  20320656.847   -17135462.05544 -13316325.33242  20320658.320    20320656.416
 04  5 18 19 51 30.0000000  0  8G22G21G18G14G 3G 9G19G15
  20587269.335   -20916737.30044 -15921803.09742  20587270.131    20587265.235
  21079370.381     3346138.53743   2629824.72042  21079371.987    21079368.841
  20774208.713   -17454757.20944 -13583002.02142  20774210.626    20774207.143
  22887434.430    -9683632.55643  -7526329.62742  22887436.775    22887437.208
  21850277.218   -11212854.23543  -8722980.93242  21850279.008    21850277.776
  24000515.296    -1095509.21043   -712052.99042  24000517.720    24000519.182
  24055684.172    -1575427.95943  -1213630.73042  24055685.914    24055683.299
  20313595.414   -17172569.87244 -13345240.49642  20313596.934    20313594.975
 04  5 18 19 52  0.0000000  0  8G22G21G18G14G 3G 9G19G15
  20584405.168   -20931788.20144 -15933531.06142  20584405.975    20584401.124
  21088656.070     3394934.81743   2667847.75842  21088657.709    21088654.466
  20781561.280   -17416119.42144 -13552894.66742  20781563.191    20781559.636
  22867431.071    -9788749.52843  -7608238.82842  22867433.589    22867434.005
  21844508.057   -11243171.02043  -8746604.40642  21844509.879    21844508.635
  23988838.561    -1156870.64643   -759866.94842  23988840.838    23988842.468
  24038298.317    -1666791.20243  -1284822.83542  24038300.163    24038297.286
  20306594.192   -17209361.83144 -13373909.55342  20306595.685    20306593.659
 04  5 18 19 52 30.0000000  0  8G22G21G18G14G 3G 9G19G15
  20581603.463   -20946511.72544 -15945003.93142  20581604.240    20581599.363
  21098005.611     3444066.96043   2706132.50642  21098007.327    21098003.982
  20788963.753   -17377219.14444 -13522582.77942  20788965.667    20788962.101
  22847471.087    -9893639.95443  -7689971.50142  22847473.545    22847473.784
  21838843.241   -11272940.07143  -8769801.07042  21838845.034    21838843.747
  23977230.666    -1217869.50243   -807398.37642  23977232.887    23977234.611
  24020965.599    -1757874.88743  -1355797.08442  24020967.373    24020964.581
  20299652.463   -17245840.74344 -13402334.67142  20299653.978    20299651.941
 04  5 18 19 53  0.0000000  0  8G22G21G18G14G 3G 9G19G15
  20578864.894   -20960902.91344 -15956217.83442  20578865.694    20578860.852
  21107420.087     3493540.49943   2744683.27342  21107421.788    21107418.521
  20796417.064   -17338051.74844 -13492062.74242  20796419.003    20796415.450
  22827555.749    -9998295.62843  -7771521.27442  22827558.289    22827558.202
  21833283.868   -11302154.60643  -8792565.63942  21833285.699    21833284.304
  23965693.422    -1278497.38143   -854640.77942  23965695.748    23965697.505
  24003687.771    -1848670.99643  -1426547.25942  24003689.437    24003686.739
  20292771.664   -17281999.45844 -13430510.28642  20292773.190    20292771.204
 04  5 18 19 53 30.0000000  0  8G22G21G18G14G 3G 9G19G15
  20576188.930   -20974965.22444 -15967175.46542  20576189.747    20576184.900
  21116899.156     3543353.17143   2783498.31042  21116900.867    21116897.636
  20803920.419   -17298621.48644 -13461337.87942  20803922.365    20803918.790
  22807685.048   -10102716.86543  -7852888.34342  22807687.538    22807687.415
  21827829.795   -11330816.42843  -8814899.51242  21827831.631    21827830.125
  23954226.815    -1338754.15543   -901593.98942  23954229.120    23954230.920
  23986464.477    -1939179.81543  -1497073.57142  23986466.211    23986463.698
  20285951.647   -17317839.26244 -13458437.40342  20285953.149    20285951.126
 04  5 18 19 54  0.0000000  0  8G22G21G18G14G 3G 9G19G15
  20573575.165   -20988700.58844 -15977878.33842  20573575.946    20573571.104
  21126442.509     3593503.61943   2822576.54742  21126444.190    21126441.059
  20811473.246   -17258930.98644 -13430410.22842  20811475.212    20811471.648
  22787859.229   -10206902.09043  -7934071.52742  22787861.779    22787861.436
  21822480.750   -11358925.79743  -8836802.90842  21822482.667    21822481.164
  23942831.338    -1398637.81843   -948256.45742  23942833.647    23942835.278
  23969296.085    -2029399.64643  -1567374.68942  23969297.800    23969295.677
  20279192.253   -17353359.83044 -13486115.75842  20279193.782    20279191.817
